GFSCGP_sfc_30mbdewp_000.txt.gz
Dewpoint
49 45 42 42 42 39 37 32 33 31 28 27 26 26 27 28 28 26 29 34 36 37 40 41 41 41 40 41 41 43 46 50 53 56 56 56 57 58 58 59 59 59 58 58
46 41 43 43 42 41 36 32 31 31 30 28 28 27 28 28 26 25 30 34 36 37 39 40 40 40 40 40 40 41 42 45 52 55 57 57 58 57 55 52 50 51 51 52
39 43 43 43 39 39 36 35 35 34 31 29 27 26 27 25 26 29 33 35 37 37 38 39 40 40 41 40 41 41 41 41 42 46 49 49 49 47 46 46 44 45 45 43
43 45 44 42 41 40 39 35 34 31 29 25 27 24 25 24 25 29 32 35 37 38 40 40 40 40 40 41 41 41 42 42 42 42 42 42 42 42 43 43 43 42 43 43
41 43 44 42 41 42 40 36 35 31 27 25 25 24 24 23 24 29 32 34 37 38 39 40 40 40 41 41 41 41 42 42 42 42 42 42 41 42 42 41 39 40 40 41
39 44 44 44 43 40 37 32 28 27 25 24 25 24 23 23 23 28 31 32 36 38 40 40 40 40 40 41 41 41 42 42 42 41 41 41 39 38 37 38 37 38 38 38
36 42 41 42 38 32 33 32 29 24 24 23 24 23 24 24 24 27 30 31 36 38 39 39 39 39 39 40 41 41 41 41 41 40 39 38 38 37 36 36 35 33 33 34
33 33 35 31 38 36 33 31 25 20 21 21 24 21 21 26 30 28 31 31 36 38 38 39 39 38 39 40 40 40 39 38 39 38 37 35 35 34 33 32 31 31 31 32
34 33 28 27 29 38 29 28 28 26 26 25 26 24 26 28 28 29 30 32 35 37 38 39 38 38 40 40 39 38 36 36 36 36 34 31 29 28 26 27 27 26 26 24
30 27 28 24 24 23 26 28 25 26 23 23 24 21 23 23 26 30 30 31 35 37 37 38 38 39 40 39 37 35 34 34 33 33 30 27 24 23 22 21 19 20 21 21
28 26 28 24 25 26 24 24 25 26 25 21 20 19 23 23 26 29 31 32 34 36 37 38 38 40 39 36 34 32 31 31 29 30 25 20 17 18 18 17 18 17 18 19
32 28 25 25 30 27 24 23 24 23 22 22 21 22 24 27 26 31 31 33 33 36 37 38 38 39 36 33 30 28 28 27 27 26 19 15 14 15 13 13 15 16 15 16
34 30 28 30 30 32 27 25 23 24 24 21 20 21 25 25 30 32 32 33 34 35 37 38 39 38 35 31 27 25 24 23 23 19 13 11 11 11 10 11 12 13 14 14
35 31 27 27 27 29 28 27 24 24 23 23 22 22 23 24 28 30 31 33 34 36 37 39 39 37 33 29 25 23 22 20 19 13 10 9 10 10 9 11 12 12 13 13
32 29 28 26 29 30 28 27 26 24 25 24 25 24 23 25 26 27 29 31 34 36 36 39 39 35 31 27 24 22 20 15 15 9 9 10 11 11 11 11 12 12 13 12
30 26 24 22 22 22 26 28 27 26 25 24 25 24 24 29 31 33 34 33 34 36 35 39 38 34 30 26 24 21 17 9 10 9 9 10 11 11 11 12 11 11 11 11
25 24 23 22 22 21 18 20 29 27 27 27 24 24 27 32 32 32 33 34 34 35 34 39 36 32 27 24 23 18 11 8 8 8 8 10 11 12 12 12 11 11 11 12
23 22 20 17 22 16 19 29 23 25 25 26 28 31 32 32 32 32 32 34 34 34 36 38 33 29 25 23 19 13 8 7 6 7 8 11 12 12 12 12 11 11 12 12
25 23 21 16 16 21 28 27 28 25 30 33 32 32 32 31 31 31 34 35 34 34 37 35 31 26 22 18 11 6 6 5 6 8 9 11 12 12 12 11 11 12 12 13
28 27 21 25 18 12 24 29 30 31 27 33 33 33 33 32 29 31 34 36 36 36 34 30 27 22 16 9 6 5 5 5 6 9 10 12 13 13 12 12 12 13 14 13
24 25 21 26 24 26 29 31 30 26 26 34 32 31 32 30 31 34 37 36 34 32 29 26 22 18 11 7 7 6 5 5 9 11 12 12 12 12 13 13 13 14 15 15
20 20 24 27 25 22 31 32 28 30 32 31 31 31 31 31 33 36 36 35 32 30 27 24 19 13 9 9 8 6 5 9 10 11 12 12 12 12 13 14 15 16 15 15
25 26 26 27 27 33 33 32 33 32 31 32 32 32 32 32 33 35 36 35 33 29 25 21 17 11 7 9 8 5 8 10 11 11 11 11 12 12 13 14 15 15 15 14
31 32 31 29 32 32 32 33 33 33 33 33 33 33 32 32 32 32 34 35 33 27 22 17 11 7 7 9 9 9 10 11 11 10 10 11 12 14 14 15 15 16 15 15
30 32 32 32 33 34 33 33 33 34 34 34 33 33 32 32 32 33 33 33 31 25 18 13 10 8 7 9 9 10 10 11 10 11 11 12 13 14 15 15 16 15 15 17
34 32 30 29 33 33 33 34 34 34 34 34 34 33 32 33 32 34 33 34 30 21 15 11 8 7 7 9 9 10 10 11 11 11 11 12 14 15 16 15 15 17 18 18

GFSCGP_sfc_30mbdewp_003.txt.gz
Dewpoint
45 44 42 42 43 39 35 33 32 35 32 29 28 28 29 29 29 28 31 36 37 38 40 41 41 41 41 42 42 44 50 53 56 57 57 57 55 51 49 46 45 44 44 44
41 41 44 43 43 39 37 35 34 33 31 30 31 29 28 29 29 26 31 36 36 38 39 40 41 41 41 41 41 42 43 46 54 57 57 57 50 48 46 45 44 43 41 40
37 42 43 42 43 41 37 36 34 35 33 30 28 27 26 26 26 29 34 36 37 38 39 40 40 41 41 41 42 42 43 43 44 45 45 45 45 45 44 43 41 41 40 38
41 43 42 42 41 41 38 35 36 34 36 33 27 24 26 26 24 30 34 36 37 39 40 40 40 41 41 42 43 43 43 43 44 44 44 43 42 40 41 40 39 37 37 36
40 41 41 41 41 41 39 39 39 35 32 26 25 24 24 24 23 28 33 36 38 39 40 40 41 41 41 42 42 43 43 43 43 42 42 40 39 39 38 36 34 34 33 33
42 44 44 42 42 42 33 34 34 28 26 25 25 24 23 23 22 27 31 34 38 39 40 40 41 41 41 42 43 42 41 40 40 40 39 38 36 33 31 31 28 27 27 28
40 43 45 47 38 36 35 37 32 29 26 25 24 24 23 25 24 27 30 33 37 39 39 39 40 40 41 41 41 41 40 38 37 36 35 34 32 30 26 24 21 19 17 21
34 34 40 44 41 37 38 37 31 25 22 22 25 22 20 24 28 28 31 32 38 39 39 39 39 40 41 40 40 39 38 37 35 32 29 27 26 23 20 19 17 16 16 18
31 34 36 39 36 38 35 36 31 26 26 25 27 27 27 27 28 29 30 32 37 38 39 39 39 40 40 39 37 36 35 34 34 29 23 20 18 16 15 15 15 15 14 12
35 29 33 25 33 28 35 33 33 26 23 21 24 24 25 23 24 29 30 32 36 38 38 38 38 40 39 36 35 34 33 32 29 24 19 15 13 13 12 12 11 12 12 14
30 29 28 24 26 29 31 34 31 26 26 23 20 20 24 23 24 28 30 33 36 37 38 38 39 40 36 33 32 31 30 29 26 19 14 11 11 10 9 9 10 11 12 13
28 29 26 25 29 28 26 30 29 24 23 23 22 23 25 26 27 30 31 32 35 37 38 38 40 37 32 29 28 28 27 26 23 15 10 9 9 8 7 8 9 10 10 12
31 29 27 27 29 31 28 25 25 25 24 22 21 22 24 27 31 31 31 32 33 36 38 38 39 34 30 27 25 24 22 22 17 11 8 8 8 7 7 8 10 10 10 11
33 30 29 27 28 28 27 26 24 24 23 22 22 22 23 24 29 30 31 33 34 35 38 38 38 34 30 26 23 21 19 19 12 9 8 8 8 9 10 10 10 11 11 11
33 28 28 27 29 28 27 27 24 24 24 23 24 24 25 23 28 29 27 30 33 36 37 38 37 33 29 25 23 20 16 14 11 8 8 9 11 12 11 11 12 11 11 11
32 28 24 23 27 27 27 28 26 25 25 25 25 25 26 28 30 32 33 33 34 36 37 39 37 32 28 25 23 20 14 9 10 8 8 11 11 12 12 12 11 11 11 10
32 26 24 26 22 21 23 24 28 27 27 26 25 26 26 30 32 32 33 33 34 35 36 39 37 32 28 25 22 18 9 8 8 8 10 11 12 12 12 12 11 11 11 11
33 32 24 20 20 19 23 28 27 28 25 25 25 25 29 31 32 31 32 32 33 34 35 39 35 30 25 24 19 12 8 7 7 8 9 11 13 12 12 12 11 11 11 11
29 26 26 19 18 20 26 27 24 26 26 29 28 31 32 31 31 31 35 35 35 34 37 37 32 26 23 19 13 7 6 6 6 8 10 12 12 12 12 10 11 11 12 12
28 25 25 24 14 13 22 28 30 30 22 33 32 32 30 31 28 30 34 36 35 36 35 32 27 22 17 10 6 5 5 4 6 9 11 12 13 12 11 11 11 12 13 12
24 24 26 25 19 24 28 30 30 25 22 33 32 32 32 30 30 33 36 35 34 32 30 26 22 18 11 7 7 6 5 4 9 11 12 12 12 11 11 12 13 13 13 13
23 21 21 25 21 16 30 31 27 30 32 31 30 31 30 31 33 35 36 35 32 29 27 22 17 12 9 9 7 5 3 9 11 11 11 10 10 11 11 13 14 14 14 13
21 23 22 23 22 32 32 32 33 31 30 31 31 32 31 31 33 35 35 35 32 29 26 21 17 12 9 10 7 4 7 10 11 11 9 9 10 11 13 14 13 13 13 14
30 32 30 29 32 31 32 32 31 32 32 32 32 32 32 32 33 33 34 35 32 29 24 20 14 9 9 9 8 8 9 10 10 8 8 9 10 13 12 13 14 14 14 14
30 32 31 31 33 32 32 32 33 33 33 33 33 32 32 32 32 32 33 33 32 28 22 16 11 10 9 8 8 9 10 10 8 9 9 9 10 12 14 14 14 15 16 17
33 31 30 29 33 32 32 33 33 33 33 33 33 32 32 33 32 33 33 33 30 24 17 14 12 8 7 8 8 9 10 10 9 8 8 10 13 14 14 14 14 17 17 17

GFSCGP_sfc_30mbdewp_006.txt.gz
Dewpoint
40 38 38 40 43 38 33 34 35 34 34 33 34 34 31 34 32 30 30 33 35 37 39 40 41 41 42 44 47 51 55 55 55 56 55 52 48 46 44 43 41 39 39 38
36 36 40 44 43 40 36 34 34 33 33 32 34 35 36 33 31 30 30 33 35 37 37 39 40 40 41 41 42 46 50 54 56 56 52 48 45 44 43 42 40 39 36 36
34 38 41 45 41 39 36 34 32 32 34 34 32 32 31 27 27 28 30 34 35 36 37 38 39 40 41 42 42 43 45 46 45 45 45 45 45 43 41 39 37 36 34 31
32 38 43 42 40 40 34 37 36 36 38 33 32 28 29 27 27 29 33 34 35 37 38 39 39 40 42 44 44 44 43 44 44 44 43 42 40 38 37 35 35 32 31 26
33 39 40 42 40 39 35 39 38 38 37 35 33 28 27 26 24 28 33 34 36 38 38 39 40 41 42 44 44 43 42 41 41 41 39 37 36 35 33 31 29 27 26 23
32 45 42 40 41 40 38 36 36 33 33 31 30 28 25 22 22 26 33 35 37 38 39 40 41 41 42 44 43 41 39 39 38 37 36 35 32 29 28 25 21 18 16 17
34 35 45 42 42 38 38 37 33 32 31 28 25 25 24 25 24 26 31 35 36 38 39 39 40 40 41 42 42 39 37 35 35 33 31 30 28 24 20 16 13 11 9 12
30 32 43 43 40 38 37 35 29 24 25 25 25 23 21 25 27 27 30 34 37 38 38 39 40 41 42 41 40 38 36 34 31 28 25 22 21 18 13 12 10 8 8 9
31 33 42 43 40 39 39 36 32 26 26 24 24 27 28 27 28 29 29 34 37 38 38 39 40 41 41 39 37 36 35 33 28 24 20 16 13 11 10 9 9 9 9 7
33 32 38 37 42 38 39 38 32 29 24 22 23 24 23 23 25 28 29 33 37 38 38 39 40 40 39 37 36 35 33 29 25 20 15 11 8 7 6 6 7 8 7 8
35 33 32 36 38 37 37 37 36 30 26 22 19 21 24 24 26 27 28 32 36 38 38 38 39 40 37 35 34 32 30 27 21 15 11 8 6 5 5 4 5 6 7 8
37 29 33 32 30 35 36 34 33 30 26 24 23 21 25 26 27 28 29 32 36 37 38 38 39 39 35 33 31 29 28 25 19 12 7 6 6 6 4 4 6 6 6 7
33 29 28 31 32 29 33 33 35 30 25 24 23 22 24 29 31 31 31 33 36 37 38 38 39 37 33 31 29 27 25 21 14 9 6 5 6 5 5 6 7 6 7 8
33 30 25 25 28 30 30 30 33 33 29 25 24 24 24 27 30 31 32 32 34 36 38 38 39 36 32 29 26 23 21 18 11 7 6 6 7 8 8 9 8 8 8 8
36 28 30 29 29 29 29 30 28 29 30 26 26 25 25 25 30 31 32 32 33 34 37 38 38 36 32 28 25 22 18 15 8 6 6 9 10 10 10 9 9 9 10 9
36 30 26 26 30 28 27 28 31 31 30 27 26 26 27 26 29 29 29 30 32 34 36 38 38 36 32 28 24 21 16 11 8 5 7 10 9 10 10 10 9 9 9 9
34 30 28 25 24 25 26 27 27 27 27 26 25 27 27 28 28 30 32 33 34 35 37 38 38 36 31 27 24 21 13 8 6 6 7 9 9 10 10 9 8 8 9 10
34 30 28 26 22 23 26 28 28 28 27 27 27 27 28 29 32 33 34 33 34 35 36 39 39 35 30 26 23 15 9 7 6 6 7 8 9 9 9 8 7 8 9 9
35 36 33 26 29 23 22 27 25 27 27 28 28 27 31 32 32 33 35 35 35 34 36 38 37 33 27 24 19 11 8 6 5 6 7 8 8 8 6 6 7 8 9 10
36 40 36 30 20 20 22 28 28 27 19 28 28 30 31 31 28 30 34 35 36 36 37 35 32 28 25 19 12 11 7 4 4 6 7 9 9 8 6 7 8 9 10 9
30 30 33 28 30 23 27 30 32 21 24 32 31 32 32 30 31 34 35 35 34 34 33 30 27 24 20 11 10 9 4 3 7 8 9 8 7 6 6 8 10 10 10 9
30 25 25 30 32 30 31 30 27 31 34 33 33 33 32 33 34 34 35 34 32 31 29 26 23 18 13 11 9 6 4 6 8 9 8 6 6 6 8 11 11 11 8 7
25 28 27 26 27 33 33 33 33 34 32 32 32 32 32 32 33 35 35 35 33 30 27 24 21 16 13 10 7 4 5 8 8 7 6 5 5 6 9 9 10 9 8 7
29 32 28 27 32 32 32 32 32 32 32 33 33 32 32 32 34 34 35 35 34 31 28 24 21 18 13 10 8 6 8 8 8 5 4 4 6 9 9 9 8 9 8 9
30 32 31 31 32 32 32 32 32 33 33 33 33 33 33 33 33 33 34 34 34 32 28 24 21 17 13 10 7 8 8 8 6 5 4 6 7 9 9 8 8 11 12 15
32 31 30 29 32 32 31 33 34 33 34 34 33 33 33 33 33 33 33 34 34 31 27 22 18 16 10 7 7 8 9 8 7 5 5 7 10 9 7 7 9 12 15 17

GFSCGP_sfc_30mbdewp_009.txt.gz
Dewpoint
36 37 35 36 38 41 37 38 34 35 34 34 34 33 31 32 33 32 29 30 34 35 38 40 41 42 44 48 51 53 53 54 55 56 53 50 47 45 43 42 40 38 37 36
35 35 35 34 38 39 39 35 33 32 34 33 32 31 32 33 34 34 29 30 33 36 36 39 39 39 40 43 47 50 53 55 53 50 49 47 45 43 42 40 37 35 32 32
32 35 34 32 35 40 39 38 33 33 34 33 32 33 34 35 34 31 30 30 34 35 35 37 39 40 40 42 44 46 46 47 47 47 47 45 44 42 39 37 35 33 29 25
33 34 37 32 35 41 37 39 33 33 34 30 34 25 26 29 27 28 28 31 34 35 35 37 38 40 42 44 44 43 44 44 44 44 43 41 39 36 35 34 32 30 28 22
31 34 36 33 37 41 40 39 34 36 34 37 36 31 28 29 26 28 28 32 34 35 36 38 39 41 43 44 43 42 41 41 40 39 37 36 35 34 32 30 27 24 22 20
31 38 38 35 40 44 43 38 39 37 34 30 30 30 24 26 26 26 29 33 35 36 37 39 40 42 43 44 42 40 38 37 37 36 35 34 32 30 29 25 21 18 16 16
34 34 39 42 40 43 42 39 34 30 31 25 27 28 26 23 24 25 30 33 35 37 38 39 40 40 42 42 40 37 36 35 34 32 31 30 29 26 22 19 16 13 11 12
29 28 36 38 42 39 40 39 28 23 23 24 26 25 24 26 26 26 31 33 35 37 38 38 39 40 42 41 38 36 34 32 30 28 26 25 23 20 17 14 13 10 9 9
30 31 39 41 43 40 38 37 32 27 25 23 25 26 25 27 27 26 29 33 35 37 38 38 40 41 41 40 38 36 34 31 28 25 22 19 16 15 13 11 10 10 8 6
35 30 36 43 43 42 40 36 31 28 22 21 23 22 22 24 25 27 27 32 35 37 38 38 40 40 40 38 37 36 34 30 26 21 18 15 11 9 8 8 8 7 7 7
38 34 33 39 39 38 40 36 35 29 26 22 21 21 25 23 25 27 28 32 35 37 37 38 39 40 39 37 36 34 31 27 22 19 15 13 9 7 7 6 6 6 6 6
39 36 31 33 32 38 40 37 33 28 26 25 23 21 24 25 27 28 28 31 35 37 37 38 39 40 37 36 35 32 31 26 21 16 12 10 10 8 7 7 6 5 5 6
37 34 32 33 33 38 38 35 36 33 29 25 22 22 25 27 30 30 29 31 35 37 37 37 39 39 36 35 33 31 29 24 17 13 11 10 10 10 8 7 7 6 6 6
37 32 30 26 28 35 36 36 34 32 28 26 25 24 23 27 29 30 30 32 35 36 37 37 38 38 36 34 32 29 26 21 16 11 10 10 10 9 9 9 9 8 7 8
37 30 27 26 28 31 32 33 34 33 32 28 26 25 25 25 28 30 31 33 34 35 36 37 38 37 35 33 30 26 23 18 14 10 10 11 11 10 10 10 9 9 9 10
36 32 29 28 29 28 28 30 32 32 32 31 28 28 28 28 27 29 31 32 33 34 36 37 38 38 35 32 28 25 21 17 12 9 9 10 10 10 9 10 9 8 9 10
35 35 29 25 27 29 27 27 28 30 30 29 28 29 30 27 27 29 29 31 32 33 35 37 38 38 35 32 28 24 19 13 10 9 8 8 9 8 8 8 7 8 9 9
35 34 31 29 25 24 26 28 28 28 29 30 30 30 29 29 29 30 32 32 33 35 36 37 38 38 34 30 27 22 14 12 11 9 7 8 7 7 7 6 7 7 8 9
38 36 33 30 30 30 29 25 27 28 27 29 28 28 28 31 33 33 34 34 34 34 36 38 39 36 32 27 23 16 14 11 9 7 7 6 6 6 6 5 6 8 9 10
38 38 36 32 24 25 24 28 27 29 25 28 30 29 29 32 29 31 35 35 36 37 37 38 36 32 29 25 19 16 13 10 5 6 6 7 7 6 5 5 7 10 11 10
36 38 35 34 32 29 27 28 28 21 27 29 29 30 32 31 32 34 34 34 35 35 35 33 31 29 25 19 16 16 9 5 6 8 7 6 6 5 5 7 10 12 11 10
33 32 34 34 33 29 30 30 26 33 33 31 31 32 32 34 33 33 33 33 33 32 31 30 28 23 17 16 16 10 7 7 7 7 6 6 5 4 7 11 14 12 10 8
33 31 28 29 31 33 32 33 34 34 33 33 33 33 33 33 33 34 34 33 32 31 29 27 24 19 16 14 13 8 7 7 7 6 5 4 4 6 8 11 11 10 8 7
27 30 28 27 31 31 32 33 33 34 33 34 33 32 32 32 33 34 34 34 32 31 28 26 23 20 16 12 9 6 7 7 6 5 4 3 5 8 9 10 9 8 7 9
29 29 30 30 32 32 32 33 33 33 33 33 33 33 32 33 33 33 34 34 34 32 30 27 25 22 17 13 9 7 8 7 6 4 3 4 7 9 10 9 8 8 9 12
31 30 30 29 31 31 32 33 33 33 33 33 33 34 34 33 33 34 33 34 34 33 30 27 25 20 17 12 7 7 8 7 6 4 5 7 9 10 9 8 9 10 11 13

GFSCGP_sfc_30mbdewp_015.txt.gz
Dewpoint
36 34 32 34 37 37 32 33 35 38 38 38 37 38 38 37 36 36 32 30 37 38 40 42 44 49 51 53 54 55 56 56 52 49 46 43 41 38 36 32 30 29 30 27
33 32 34 35 36 36 36 35 34 36 39 38 38 37 37 37 37 36 35 34 37 39 40 42 45 49 51 53 54 53 53 53 50 48 46 44 40 38 35 31 25 23 22 23
31 32 33 33 33 33 35 34 33 33 36 39 38 37 36 36 36 36 35 34 38 39 39 40 43 46 48 49 49 50 49 48 47 45 43 42 41 38 35 31 26 21 20 20
33 32 31 32 32 32 30 33 33 33 34 33 39 33 36 35 34 34 33 34 37 38 39 40 43 45 46 46 48 48 47 46 45 44 43 41 38 35 35 32 27 23 19 18
31 31 31 30 31 32 30 31 31 32 33 35 36 36 34 32 33 32 33 34 37 38 39 40 42 44 45 44 44 43 44 44 44 43 41 37 35 34 32 27 25 21 18 17
32 35 34 31 31 31 35 33 33 35 34 30 35 35 31 31 31 32 32 35 36 38 39 42 44 45 43 42 40 39 38 38 38 38 36 34 31 27 24 20 19 19 20 17
34 34 35 36 33 34 34 32 24 24 26 25 33 33 35 30 30 31 30 35 36 38 41 43 44 43 42 40 38 36 35 33 32 31 29 28 24 21 18 16 13 13 13 12
26 22 33 35 33 29 32 30 26 19 22 26 37 33 33 34 30 32 32 35 37 39 42 43 43 43 41 39 37 34 32 30 28 26 24 22 19 17 15 14 12 12 10 10
27 27 34 33 33 32 30 29 30 32 33 31 35 32 26 27 28 31 35 36 37 39 41 42 43 42 41 38 35 32 30 27 24 21 18 16 15 14 12 11 12 11 10 9
31 26 30 33 35 34 31 33 28 30 27 25 29 23 24 25 29 33 34 35 37 39 41 42 43 42 40 37 34 31 28 25 21 17 13 11 10 11 10 9 8 7 8 8
31 31 30 33 34 31 34 34 33 35 32 29 27 25 27 25 29 32 35 36 37 39 40 41 42 42 39 37 32 29 26 22 18 14 11 10 9 9 9 8 7 7 7 8
35 32 27 29 36 38 32 35 33 29 32 33 23 21 26 27 28 32 34 36 38 39 40 41 42 40 38 36 32 28 24 20 18 14 12 11 11 10 9 8 8 8 8 8
36 30 25 30 36 39 35 37 35 34 37 32 21 21 28 28 28 30 34 37 38 39 40 41 40 38 37 35 31 27 23 19 15 13 12 12 11 10 10 9 10 10 10 10
37 34 31 29 34 38 34 34 38 37 33 28 23 24 28 28 28 28 34 37 38 38 39 40 39 38 37 35 32 28 21 16 13 13 13 11 11 11 10 11 12 11 11 10
36 31 33 34 35 37 37 36 36 34 35 26 23 23 28 28 29 29 35 37 38 38 39 40 39 37 37 34 32 26 19 14 13 13 13 12 12 11 11 12 12 11 11 11
37 32 36 36 37 37 36 38 37 35 34 33 32 30 27 30 31 30 35 37 37 38 38 39 38 37 36 33 29 21 17 13 13 13 12 12 11 10 11 10 10 9 10 11
34 34 36 27 37 36 34 36 35 35 34 33 30 31 27 29 30 30 34 37 37 38 38 39 38 37 34 31 25 19 15 13 12 11 11 11 10 9 9 9 8 8 8 9
32 34 34 29 27 21 25 29 35 34 34 35 34 32 30 30 33 33 33 36 37 38 38 39 38 35 31 26 22 16 13 12 11 10 10 10 8 7 7 7 7 7 8 11
36 35 33 30 29 28 28 25 28 31 31 33 34 33 31 33 33 34 36 36 37 38 39 39 36 31 27 22 16 14 13 12 11 9 8 7 7 7 7 7 6 7 10 13
37 37 35 32 26 24 25 27 27 29 26 30 29 32 31 31 27 33 37 38 38 37 35 32 28 24 20 15 14 13 11 11 9 7 7 7 7 7 6 6 6 10 13 13
36 36 32 32 31 31 32 27 28 25 26 31 31 32 32 29 32 35 37 36 34 32 30 28 25 20 17 15 14 12 10 8 8 8 7 7 7 6 5 7 11 13 13 12
34 34 34 34 32 27 31 27 23 30 32 34 34 34 34 35 35 35 34 33 32 31 29 26 23 19 17 16 12 8 7 8 8 8 7 7 6 5 7 11 11 12 12 10
35 36 35 35 32 35 33 32 34 34 33 35 34 34 34 34 34 33 32 31 30 29 25 21 19 17 17 12 10 8 8 8 8 6 6 5 4 6 10 10 11 12 10 9
37 38 33 35 34 33 32 34 34 35 34 35 35 34 34 33 33 32 31 30 29 27 22 19 17 15 12 11 9 9 8 8 6 5 4 4 7 12 10 12 11 11 11 11
34 36 34 31 32 32 33 33 35 34 34 34 35 34 34 33 32 32 31 29 28 27 21 19 17 14 10 8 8 8 7 7 6 4 5 8 10 11 12 12 11 13 13 15
30 30 31 32 32 30 31 34 34 33 34 34 34 34 35 34 34 33 32 31 29 26 23 21 18 14 12 8 8 8 8 8 6 5 8 10 12 12 12 12 12 15 14 15

GFSCGP_sfc_30mbdewp_018.txt.gz
Dewpoint
36 34 31 33 36 36 36 33 32 35 37 38 38 38 38 40 40 37 37 36 34 37 40 41 43 47 51 53 53 53 55 49 48 45 43 41 37 34 31 30 28 27 26 26
34 31 32 33 33 35 35 35 34 34 34 36 37 38 39 38 38 39 37 37 34 38 40 42 47 50 52 53 55 56 53 50 48 46 43 39 36 34 29 25 22 22 22 23
30 30 32 33 33 33 33 32 32 32 34 34 32 32 36 39 39 39 38 37 36 38 40 43 48 50 52 52 53 53 50 48 46 43 39 37 35 32 27 24 21 20 20 21
32 34 32 32 32 33 30 34 34 33 32 28 34 28 34 36 37 37 37 36 36 39 41 43 48 49 50 50 50 49 48 46 43 41 38 35 33 31 32 27 22 19 18 19
31 33 32 30 30 32 31 32 31 32 32 31 30 28 31 36 35 37 37 35 37 39 40 43 46 48 48 48 48 47 46 45 44 42 39 37 34 34 32 25 20 17 17 18
32 35 33 31 30 33 35 32 31 31 31 26 26 28 27 34 35 35 36 35 36 39 40 43 45 45 45 44 44 44 44 43 42 40 38 35 32 29 26 23 20 19 18 16
33 34 35 36 30 31 31 29 22 22 22 19 26 25 26 34 35 34 34 34 37 39 41 43 44 43 41 41 40 40 40 39 38 36 34 31 27 22 18 17 16 14 13 12
27 24 33 35 32 30 30 29 22 15 19 17 25 25 31 34 33 34 36 34 37 39 42 43 43 42 40 38 36 35 35 33 32 30 26 22 20 18 16 14 13 12 10 11
27 26 33 34 32 31 31 29 28 25 26 26 28 35 37 38 33 31 33 35 37 40 42 43 42 41 39 37 34 33 30 27 25 23 19 17 16 14 13 12 11 10 11 10
30 25 31 33 34 33 30 30 26 27 20 20 27 33 31 30 31 32 34 36 38 41 42 43 42 40 38 36 33 30 27 24 20 17 15 13 12 11 10 9 8 8 8 8
31 28 29 32 31 27 31 30 28 25 24 27 21 26 35 29 30 33 34 36 39 41 42 43 42 40 37 34 31 28 25 20 16 13 11 10 10 9 9 8 7 7 8 8
31 31 25 26 30 32 32 29 29 24 22 24 29 27 30 28 32 36 36 37 39 41 42 42 42 39 36 33 30 26 22 18 14 11 10 10 10 9 8 8 9 9 8 9
33 30 25 26 30 35 33 33 31 30 32 30 28 27 28 29 33 36 35 37 39 40 41 42 41 38 36 32 29 24 20 17 13 12 11 11 10 10 10 9 10 10 10 10
38 32 29 24 31 34 32 32 33 31 25 26 30 30 32 27 30 34 36 38 39 40 41 41 40 38 36 32 27 23 19 15 13 13 12 11 11 10 10 11 11 11 11 11
35 29 32 32 34 35 33 31 34 33 33 29 29 32 28 27 28 33 37 38 38 39 40 40 39 38 35 31 27 22 17 14 14 13 12 12 12 11 12 11 11 11 11 11
37 29 32 32 37 36 36 34 36 35 35 34 33 34 28 30 30 34 36 37 38 39 40 40 39 37 35 32 27 20 15 14 14 13 13 13 12 11 11 10 9 9 9 9
35 32 32 31 37 37 34 35 35 35 35 34 32 35 29 29 29 33 36 37 38 39 40 39 38 37 35 31 23 18 14 14 14 13 13 12 11 10 9 8 8 7 7 10
35 33 34 32 35 24 28 39 38 36 37 39 38 30 29 30 33 34 36 38 38 38 39 39 38 36 33 27 20 15 13 13 13 12 11 11 10 8 8 7 7 6 9 11
36 34 32 30 29 28 27 28 35 36 35 35 35 32 31 33 33 34 37 37 38 38 40 39 37 32 26 21 16 13 13 12 12 11 10 8 7 7 7 6 6 7 10 12
37 36 34 32 28 24 26 27 28 29 26 30 33 32 31 32 29 32 37 37 37 37 36 33 29 25 21 16 14 13 12 11 10 9 8 8 8 6 5 5 6 10 12 13
35 35 33 31 30 30 32 30 29 26 25 30 31 33 32 29 32 36 35 33 32 30 28 25 23 20 16 15 14 12 11 10 9 9 8 7 7 6 5 7 11 12 12 11
32 32 33 32 30 26 32 28 25 28 33 34 34 34 34 35 36 34 33 32 30 28 24 22 20 17 15 14 12 10 9 9 8 8 7 7 5 5 9 11 12 12 11 10
33 35 34 34 32 35 33 32 34 33 34 34 34 35 35 35 34 33 32 31 28 25 23 20 18 16 13 12 10 9 8 8 8 7 6 4 5 10 11 12 12 11 11 12
37 38 35 35 34 34 32 34 35 35 35 35 35 35 35 33 33 32 31 29 25 22 20 18 17 14 11 10 10 9 8 8 6 5 3 6 9 13 12 12 11 13 13 13
36 37 34 34 33 32 33 33 35 35 35 34 34 34 33 32 31 30 29 28 24 21 19 17 14 12 10 10 9 8 8 7 5 4 6 9 11 12 12 12 13 15 15 16
32 36 35 34 34 31 31 34 35 34 34 34 34 33 33 32 31 30 29 28 24 21 19 16 13 10 9 9 8 8 8 6 4 5 8 12 13 13 12 13 13 16 16 16

GFSCGP_sfc_30mbdewp_021.txt.gz
Dewpoint
36 34 32 33 35 36 36 34 33 33 35 34 35 35 37 39 39 39 39 39 38 37 37 40 42 44 47 50 50 48 55 51 47 44 43 41 37 34 31 29 27 26 25 24
34 31 33 33 32 32 33 33 33 34 35 34 33 33 34 35 37 39 39 39 39 36 38 40 42 47 51 52 53 53 51 48 47 45 42 38 34 30 27 24 23 22 22 22
32 30 32 32 31 31 32 31 29 30 32 33 31 25 24 29 34 37 40 39 39 37 37 39 44 49 52 53 54 52 50 48 45 41 37 33 29 25 23 21 20 20 21 21
34 34 30 30 31 32 28 32 32 31 30 25 31 19 25 29 31 35 37 39 39 38 38 40 46 49 52 52 53 50 48 45 42 39 36 33 31 26 26 22 19 19 19 19
32 33 31 30 30 32 29 31 32 33 32 30 28 27 25 28 27 32 37 38 38 38 39 41 46 49 51 51 51 48 46 43 41 39 36 34 32 29 26 20 17 16 17 17
32 35 34 32 31 32 34 31 31 31 30 24 25 26 21 19 26 32 37 38 38 37 39 43 48 49 48 48 48 46 45 43 41 39 37 34 31 27 22 19 17 16 16 16
33 34 36 36 31 31 32 31 24 22 22 18 23 24 23 22 28 32 33 36 37 38 41 44 47 47 46 46 46 45 44 42 40 37 35 32 29 25 22 20 19 15 12 12
27 24 34 36 32 29 31 31 24 15 16 17 18 15 20 28 27 27 33 35 36 38 41 44 47 46 45 44 43 42 42 39 36 34 31 27 24 22 20 18 15 12 11 11
27 26 35 35 34 33 32 28 30 26 27 24 24 25 33 26 30 31 32 33 35 39 41 44 45 43 42 41 39 39 38 34 31 28 24 21 18 16 14 12 12 11 11 10
30 24 31 33 34 35 33 31 27 28 18 15 17 26 24 30 31 29 33 35 36 39 42 44 43 41 39 36 35 33 32 30 25 21 18 16 14 12 12 11 9 9 8 8
32 30 27 33 31 29 31 29 30 26 24 17 16 18 33 29 32 32 32 33 37 40 42 42 41 39 36 34 31 28 26 22 18 16 14 12 10 10 9 8 8 7 8 8
32 31 26 25 31 32 29 27 29 23 20 21 19 18 27 31 30 33 34 37 40 42 42 41 40 37 34 32 29 25 21 18 15 12 11 10 10 9 8 8 8 9 8 10
33 30 23 26 28 32 31 30 28 27 29 20 18 12 29 32 33 36 38 40 41 42 42 40 38 36 33 30 27 23 18 15 12 11 11 10 10 9 9 9 10 10 10 11
34 32 28 23 28 31 28 30 31 29 25 23 22 23 28 34 36 36 38 40 41 41 41 40 38 36 33 29 25 21 17 13 12 12 11 10 10 10 10 11 11 11 11 11
35 28 31 31 32 32 32 29 30 29 27 23 21 28 33 34 36 36 38 39 40 41 41 40 38 36 32 28 24 19 15 13 13 12 12 12 12 11 12 11 11 11 11 10
37 28 31 29 34 33 30 33 31 30 28 26 29 33 33 35 36 35 37 38 39 40 41 40 38 36 32 27 22 17 15 14 14 13 13 13 12 12 11 10 9 9 8 10
33 31 30 29 35 32 28 34 31 31 31 31 32 32 35 34 35 34 37 38 39 40 40 40 38 36 32 27 21 16 14 15 14 14 14 13 11 10 9 8 7 6 8 11
35 33 33 30 33 26 35 39 33 30 34 36 35 36 37 37 39 35 37 38 38 40 40 39 38 36 31 24 19 15 15 14 14 14 13 12 10 8 8 7 5 7 9 11
37 35 33 30 29 30 28 39 38 37 35 39 39 38 37 38 35 34 37 38 38 40 40 39 38 33 27 22 16 14 14 14 14 12 11 9 8 7 6 5 6 8 11 12
36 36 35 31 28 24 25 31 40 39 34 37 37 37 37 37 30 30 37 38 38 39 38 36 31 27 22 17 15 14 13 13 12 11 9 8 7 6 5 5 9 11 12 12
34 35 33 30 29 29 32 31 35 31 25 31 37 39 39 33 34 35 33 33 33 33 31 28 26 23 17 15 14 13 12 11 11 9 8 7 6 5 6 10 12 12 11 11
32 29 30 30 29 25 31 28 26 28 33 34 34 33 34 35 33 32 31 29 28 27 24 22 20 17 14 14 13 12 11 10 9 9 8 6 5 8 11 12 12 12 11 11
33 33 31 31 30 33 33 32 34 33 34 34 34 35 35 34 33 31 28 26 24 22 21 19 17 14 13 13 12 11 9 9 8 7 5 4 9 11 12 12 11 12 13 13
36 38 36 35 34 35 34 34 35 35 34 35 36 36 35 33 32 29 26 24 22 21 19 16 15 13 12 11 11 9 9 8 6 4 4 9 14 12 12 12 12 14 14 14
36 37 35 34 34 33 33 33 35 35 35 34 34 34 34 32 31 29 26 24 21 19 18 16 14 12 10 10 9 9 8 6 4 4 8 11 12 12 12 12 13 16 16 17
35 36 34 32 35 33 31 34 35 34 34 34 33 32 32 32 30 28 26 23 21 19 17 15 12 11 10 9 8 8 7 5 4 6 9 14 13 13 13 13 14 16 16 17

GFSCGP_sfc_30mbdewp_024.txt.gz
Dewpoint
36 34 33 35 34 34 35 34 33 34 35 35 33 33 34 35 37 38 38 40 40 40 40 39 39 41 44 47 48 53 57 52 49 46 44 43 40 36 32 30 28 26 26 26
33 31 34 34 34 34 33 32 30 30 31 33 33 32 32 33 34 36 38 39 40 40 39 39 40 43 46 48 49 53 54 49 49 48 44 44 36 31 27 25 24 23 23 23
31 30 32 33 32 31 30 30 29 28 29 31 30 26 21 23 26 29 31 34 37 40 40 38 40 44 48 50 51 51 51 48 46 41 37 32 28 24 22 21 22 22 21 21
34 34 32 32 30 30 28 31 31 31 30 24 28 19 20 22 22 24 27 32 36 40 39 39 39 45 48 51 53 51 49 46 42 39 37 34 33 26 22 21 21 20 20 20
31 33 33 32 30 31 29 30 31 31 31 29 28 26 22 23 23 25 32 35 37 39 39 39 40 43 49 52 52 49 47 44 40 39 37 35 31 26 22 19 18 17 17 17
32 35 33 31 31 31 33 31 31 32 30 23 24 25 19 18 20 21 21 28 34 37 39 39 42 48 50 51 50 47 45 42 40 37 35 34 28 21 19 17 16 16 16 16
34 34 36 36 31 32 32 31 23 21 22 18 23 24 22 20 22 22 22 26 34 38 38 41 44 48 49 50 48 46 44 41 39 37 35 31 25 21 18 17 16 14 13 13
26 23 33 37 31 28 30 29 23 16 16 16 20 17 19 24 26 26 26 32 35 37 39 43 46 48 49 49 47 45 43 40 38 36 33 28 24 22 20 19 15 13 12 12
27 25 34 34 34 31 31 28 30 27 28 24 22 23 25 26 24 26 27 27 28 36 40 43 47 48 48 47 46 44 42 38 35 32 27 24 22 20 18 15 13 12 11 10
29 25 29 33 35 35 34 33 26 27 18 16 17 18 19 23 25 31 32 30 30 36 40 44 47 46 45 44 41 40 38 34 29 25 22 20 17 14 13 12 11 9 9 9
30 29 27 33 31 29 32 29 30 30 27 16 11 11 24 29 33 35 35 34 34 37 40 44 45 42 39 38 38 34 31 27 23 19 16 14 12 11 9 9 8 8 9 9
31 31 25 24 30 32 30 29 29 23 20 23 20 17 31 32 36 37 37 37 36 39 42 43 41 38 37 35 32 30 25 22 18 15 13 11 10 9 8 8 8 9 9 11
31 30 24 24 28 32 31 31 29 27 27 20 18 14 17 22 31 38 38 41 42 42 41 39 37 36 34 31 27 24 20 16 14 12 11 10 10 9 9 9 10 10 10 11
33 32 27 23 25 30 28 30 32 30 25 21 21 20 21 23 34 39 39 42 42 42 40 39 37 34 31 27 23 19 15 14 12 12 11 10 10 10 10 11 11 11 11 10
34 29 30 31 32 32 31 30 31 29 27 23 20 20 21 30 34 40 39 42 43 42 39 38 36 32 29 25 20 16 14 13 12 12 11 12 11 12 12 11 11 11 10 11
38 29 31 29 32 33 29 32 32 30 29 27 26 25 27 36 39 39 41 40 42 41 40 38 35 31 28 24 19 15 13 13 13 13 13 13 13 12 11 10 9 8 10 12
34 30 30 26 32 31 28 30 32 32 30 28 27 27 28 29 37 38 38 38 40 41 40 38 35 32 27 23 18 15 13 14 14 14 14 13 12 11 9 9 7 8 10 12
35 32 31 29 32 26 33 39 34 32 31 31 30 31 36 38 38 38 37 37 39 41 40 38 36 31 26 20 17 15 15 15 15 14 13 12 11 9 8 6 6 8 10 12
36 35 31 29 29 32 29 37 34 32 31 32 31 32 35 38 37 35 36 38 39 41 40 39 36 31 24 19 16 15 15 15 14 13 12 11 9 7 6 5 8 10 11 12
37 36 33 32 27 25 27 30 39 38 33 38 37 36 37 37 34 32 37 39 40 40 39 36 32 26 21 17 15 15 14 14 13 12 10 9 8 5 5 8 10 12 12 11
33 34 31 32 28 29 32 32 40 31 27 31 39 39 38 37 36 34 34 35 36 36 34 30 28 24 18 16 15 14 13 13 12 10 9 7 6 5 9 11 12 11 11 11
31 29 30 31 29 24 31 35 30 29 32 34 34 38 38 36 33 32 31 32 31 30 27 24 21 17 15 15 14 13 12 11 10 9 7 5 7 11 12 12 12 12 12 12
31 32 30 31 29 31 34 32 34 34 33 34 34 35 36 34 32 30 27 26 24 23 22 19 17 15 14 14 13 12 10 9 8 6 4 8 11 12 12 11 11 12 13 13
36 37 35 34 34 35 35 34 35 35 34 35 36 35 34 32 29 26 24 23 22 20 18 17 15 14 12 12 11 10 9 8 5 4 8 13 12 12 12 12 12 14 14 14
35 37 35 35 35 35 34 33 34 35 35 35 35 34 32 29 27 25 23 21 19 18 17 16 14 12 11 10 9 8 7 5 4 7 10 11 13 12 12 13 13 16 16 17
36 36 34 32 35 33 31 34 35 34 34 34 33 32 32 29 27 24 22 20 18 17 15 14 12 10 9 9 8 7 5 5 6 8 13 14 12 13 13 13 13 16 16 17

GFSCGP_sfc_30mbdewp_027.txt.gz
Dewpoint
37 34 31 34 35 34 34 33 31 33 35 32 31 31 31 33 34 34 34 35 36 39 41 41 41 40 40 43 47 50 58 60 56 52 51 49 46 42 38 33 31 30 30 26
34 32 33 32 34 33 33 32 31 30 30 30 30 30 31 33 33 33 32 33 36 36 39 40 40 41 41 44 48 53 57 55 54 53 51 49 44 38 32 29 28 28 27 25
31 30 33 33 32 31 32 32 29 26 29 30 28 24 20 20 24 28 31 32 33 34 36 39 40 41 43 46 49 52 54 52 51 47 42 38 36 31 25 24 26 25 24 23
34 34 33 32 31 32 28 31 30 30 29 23 28 18 18 20 19 20 22 25 29 31 34 37 39 40 43 46 51 52 51 49 45 45 43 42 41 35 26 25 23 22 22 21
30 32 33 31 30 31 29 30 29 30 30 27 26 25 22 24 22 23 24 25 26 30 35 37 39 40 43 49 51 51 49 46 43 44 44 46 43 31 23 21 19 20 20 20
32 35 33 32 33 32 32 31 31 31 30 23 23 25 20 19 19 19 22 24 27 33 36 39 40 41 46 51 52 50 48 44 42 42 43 41 34 23 20 19 18 18 18 18
31 34 35 34 31 32 31 31 23 21 22 18 22 24 21 21 23 23 22 23 24 28 33 38 41 44 48 50 50 48 46 43 40 39 38 34 26 22 20 18 17 16 15 15
26 23 32 36 31 29 31 30 23 16 17 16 22 21 21 24 24 24 26 26 27 28 34 38 41 45 48 50 49 47 45 41 39 38 33 27 24 21 20 19 17 15 15 14
27 25 33 35 35 32 31 28 29 25 24 23 21 21 23 23 24 30 34 35 34 30 34 38 43 46 49 50 48 46 44 40 38 34 29 25 24 23 20 17 16 15 14 12
29 24 28 32 34 33 33 32 26 27 17 16 20 21 19 20 20 34 36 38 38 36 33 40 44 47 49 49 47 44 42 38 34 30 26 23 21 19 16 15 14 12 11 11
31 27 26 33 30 27 31 29 30 29 25 17 13 13 17 17 33 35 37 39 40 39 36 40 45 47 47 45 43 40 37 33 28 24 21 18 16 14 13 12 11 10 10 11
31 30 25 24 27 30 29 29 29 25 21 25 20 16 31 34 35 38 38 40 41 41 40 44 45 42 42 41 38 36 32 27 23 19 16 14 12 11 10 9 10 10 10 12
32 29 23 22 28 29 30 31 32 31 30 24 20 16 20 25 29 36 38 41 42 41 41 40 39 40 39 38 33 30 26 20 16 15 13 11 11 10 9 9 10 11 12 12
32 30 24 20 25 31 28 31 32 30 25 22 23 21 20 20 22 28 38 42 43 42 39 38 37 35 33 31 28 23 18 16 14 13 12 11 11 11 11 11 11 12 12 12
33 28 30 31 30 31 31 30 31 29 28 25 21 21 21 22 23 36 40 40 41 43 39 37 34 32 28 25 22 18 15 14 13 13 13 13 12 13 12 12 12 11 12 13
35 29 32 29 31 31 30 33 33 31 31 29 27 25 25 31 35 35 35 39 41 42 40 37 33 29 26 23 19 16 14 13 13 14 14 14 14 13 12 12 10 12 13 13
35 31 29 26 30 33 29 33 32 32 32 30 28 28 28 29 31 33 35 40 39 42 40 36 32 29 25 20 18 16 14 14 14 14 14 14 13 11 11 9 10 11 12 13
34 33 31 28 32 25 35 37 38 33 33 33 31 30 31 33 37 39 40 41 39 41 39 35 31 26 21 17 15 14 14 15 15 14 14 13 12 10 9 7 9 11 12 12
36 33 31 28 28 30 30 33 36 32 33 34 32 32 33 35 38 38 37 37 40 41 39 35 31 25 20 17 15 15 15 15 15 14 13 11 9 7 6 8 10 11 12 11
36 36 33 30 27 24 29 31 39 37 30 35 34 33 32 36 35 33 37 39 41 40 37 33 27 22 18 16 15 15 15 15 14 13 11 10 8 6 7 10 11 12 11 10
32 33 29 30 30 28 31 32 39 27 26 31 35 36 37 36 36 34 35 36 36 36 33 28 25 21 17 16 15 15 14 14 13 10 9 7 6 8 11 12 12 11 11 11
30 30 31 32 29 24 32 36 33 29 33 33 34 38 39 37 33 33 31 32 32 30 27 23 21 18 16 16 15 14 13 11 10 8 7 7 10 12 13 12 12 12 12 11
31 31 29 30 28 31 33 32 33 34 33 34 34 35 36 34 32 29 27 26 24 23 22 19 17 15 15 15 14 12 10 9 7 6 9 11 12 12 13 12 13 12 13 13
35 36 34 34 33 35 35 35 35 35 35 35 36 35 34 32 28 25 24 23 22 20 18 17 16 14 13 12 12 10 9 7 5 8 10 12 12 12 12 12 14 14 14 15
34 36 35 35 35 35 35 34 34 34 35 34 32 32 29 28 26 24 22 20 19 18 17 16 14 12 11 10 9 8 7 6 7 11 14 14 14 12 13 13 14 16 17 17
35 35 34 32 35 34 32 34 35 34 34 33 31 29 28 26 24 22 20 19 17 16 15 13 12 11 9 8 7 6 6 7 8 10 12 13 13 13 13 13 13 16 16 17

GFSCGP_sfc_30mbdewp_030.txt.gz
Dewpoint
38 34 31 30 30 30 32 30 30 30 32 30 29 28 29 30 30 30 30 31 32 34 36 38 40 41 42 42 43 44 46 50 55 58 60 61 57 55 52 48 45 40 38 33
34 31 30 32 32 31 31 30 28 28 29 29 27 27 27 28 28 28 27 27 27 28 31 33 37 39 41 42 42 44 47 53 56 58 57 58 56 52 47 43 42 38 34 29
30 30 32 32 31 30 29 29 29 28 28 27 26 24 21 20 21 22 25 26 27 27 27 28 31 36 39 41 43 45 49 55 57 56 56 52 45 40 37 37 37 33 29 25
32 32 31 31 30 30 26 28 29 29 27 24 26 20 20 20 20 20 21 22 24 26 28 28 29 31 35 39 44 47 51 55 56 55 51 49 49 43 41 36 34 31 28 27
30 32 33 31 30 30 29 29 28 28 26 26 25 25 19 22 20 21 21 21 22 23 24 26 29 30 33 39 46 50 52 54 53 52 52 52 50 46 38 33 28 24 23 23
30 34 33 31 31 31 31 30 30 28 28 23 23 25 19 18 19 19 20 19 20 22 26 28 30 33 34 40 49 51 52 52 51 52 51 53 49 38 32 25 25 24 23 22
30 31 33 33 31 32 32 31 21 22 22 17 18 21 22 19 21 21 20 21 22 27 25 25 30 36 39 40 50 51 51 50 50 51 51 51 44 40 31 25 24 21 20 20
26 25 31 35 31 27 30 28 20 13 12 13 19 18 16 20 21 21 23 28 35 35 36 29 29 34 39 44 49 50 50 48 48 50 50 45 40 36 26 22 21 19 20 19
28 26 32 33 33 31 31 29 29 26 24 21 18 16 17 18 20 21 27 34 33 37 38 35 33 36 40 45 49 50 49 47 47 47 41 33 29 26 24 22 21 19 18 16
30 26 28 30 34 33 32 31 26 27 16 12 13 13 14 16 20 30 30 32 37 39 39 38 35 37 42 46 49 50 48 46 46 43 38 30 26 25 23 20 19 18 15 14
30 26 26 31 30 27 30 29 31 27 25 17 14 12 14 14 17 26 31 34 39 40 41 40 37 41 45 48 49 48 46 44 41 37 32 27 25 21 21 19 17 16 14 14
29 28 23 25 25 28 23 24 26 24 22 25 22 20 19 26 31 33 29 32 38 41 41 42 42 44 47 48 48 46 43 40 36 30 28 22 19 18 17 15 15 14 13 12
30 29 23 23 28 28 27 27 26 31 29 25 22 18 19 23 28 26 28 32 36 41 41 41 42 43 45 46 45 42 39 33 28 25 20 17 17 16 15 14 13 12 12 12
32 29 26 19 22 27 29 30 32 31 25 23 24 23 21 21 21 21 21 26 34 41 41 41 41 42 43 44 41 37 30 27 22 18 17 16 16 15 14 13 12 12 12 11
32 28 29 30 29 30 30 30 31 30 30 26 23 22 23 23 24 23 23 32 34 40 41 40 40 40 40 38 32 27 22 19 17 17 16 16 15 15 14 13 12 11 12 13
34 29 31 29 30 30 31 34 34 33 32 32 31 28 28 28 28 27 33 31 33 40 40 40 38 37 35 30 24 20 17 16 20 19 16 16 15 14 14 12 12 13 14 13
32 32 30 26 29 30 30 34 35 34 34 32 29 29 29 29 28 31 33 38 39 40 40 41 37 35 31 25 20 17 19 20 20 17 16 15 14 14 13 11 12 13 13 14
33 33 31 27 29 25 35 37 38 37 36 36 33 32 31 31 35 39 41 42 41 41 41 39 36 30 26 23 20 20 19 18 17 16 15 14 13 12 10 10 12 12 13 13
35 33 30 26 28 28 32 36 37 34 35 35 36 36 36 37 38 38 39 39 40 41 41 36 32 23 22 21 17 17 16 16 16 15 14 13 11 9 9 10 11 12 13 12
36 35 31 27 26 23 30 35 39 37 31 31 34 35 34 33 37 37 37 41 41 39 36 32 28 25 22 19 18 17 16 15 15 14 12 11 9 8 9 12 13 12 12 10
32 32 29 29 28 30 31 32 39 26 27 33 33 36 34 35 36 36 37 37 38 34 30 27 24 22 18 17 17 16 15 15 14 12 10 9 8 9 12 13 12 12 11 10
30 29 30 31 29 26 32 35 32 32 35 34 34 37 40 35 36 33 34 33 34 31 27 24 21 17 16 16 16 15 14 13 11 10 8 8 10 12 14 15 14 12 11 10
32 31 29 31 29 32 33 34 34 35 35 34 35 36 38 35 34 33 30 30 28 27 25 23 20 18 17 16 15 13 12 11 9 8 10 11 12 13 15 15 15 12 11 9
34 36 34 34 34 35 35 35 35 35 35 35 36 36 36 33 30 29 28 26 24 23 21 20 18 17 15 15 13 11 10 8 9 9 10 11 12 12 13 13 14 12 10 9
35 36 36 35 35 35 34 35 35 35 34 32 33 34 33 30 29 28 25 24 22 20 19 18 17 15 13 12 11 9 8 9 9 10 11 14 13 12 13 13 13 13 13 16
36 35 33 30 35 35 33 35 35 35 33 31 30 29 29 29 27 25 23 22 20 19 17 16 15 13 11 10 8 8 9 11 11 11 11 12 12 13 12 12 11 16 16 17

GFSCGP_sfc_30mbdewp_033.txt.gz
Dewpoint
36 33 31 31 33 31 28 28 27 27 29 29 27 27 27 27 27 28 29 31 31 31 33 35 37 39 37 37 40 41 42 44 47 52 56 59 61 62 63 62 58 54 49 42
35 33 31 30 29 29 29 28 27 27 27 27 26 25 25 25 25 26 26 27 28 29 29 30 34 36 38 39 40 41 42 44 48 53 57 59 62 60 58 55 53 48 42 38
31 29 31 30 30 29 28 27 26 26 27 27 26 23 21 21 22 23 25 26 26 27 26 26 27 32 37 38 40 42 42 45 50 54 57 60 55 50 47 47 46 44 40 36
31 30 29 29 29 28 26 27 27 26 26 23 25 19 19 18 18 20 20 21 22 23 25 26 26 27 31 37 42 43 44 47 52 56 57 57 53 49 47 45 43 40 34 32
30 31 31 29 28 28 28 29 28 27 26 26 24 23 20 20 19 20 21 21 21 22 23 23 26 29 30 33 42 45 46 48 54 56 56 55 50 50 46 43 38 35 32 29
29 32 31 31 30 30 31 28 28 27 27 23 22 20 17 15 15 16 19 21 19 20 21 23 25 26 29 33 38 46 48 50 54 56 54 52 52 48 42 39 34 32 30 28
30 29 31 31 29 30 30 30 21 22 23 17 15 18 20 18 19 19 19 19 21 23 29 31 28 24 30 33 36 46 49 51 54 55 53 52 53 44 42 37 33 31 29 27
26 26 29 33 30 27 27 27 20 13 12 13 17 15 15 16 18 20 20 20 21 29 32 35 36 31 29 37 39 44 49 51 52 52 53 54 48 45 39 37 33 30 30 26
27 26 29 32 31 29 28 27 27 24 22 19 16 15 16 16 16 16 18 20 24 31 35 36 38 37 28 33 40 45 49 50 50 52 52 52 46 41 36 33 30 25 25 23
29 26 27 30 31 30 29 30 26 28 18 13 13 13 13 14 14 16 19 29 31 34 35 37 38 37 33 35 40 47 48 49 49 51 51 47 40 31 29 27 26 24 22 20
29 26 26 29 28 26 29 28 29 27 27 18 15 14 15 15 17 15 27 29 32 35 36 37 40 38 36 38 42 47 48 48 48 48 41 35 31 29 26 25 22 21 18 18
29 26 24 25 25 26 26 27 27 26 20 26 24 21 21 19 19 27 26 27 29 33 36 39 42 42 43 44 47 48 48 47 47 42 35 30 26 24 24 21 21 18 17 18
29 27 23 27 27 26 25 26 25 29 30 26 23 20 20 22 21 22 26 25 24 30 37 39 41 42 45 47 48 48 46 44 40 35 31 26 23 22 21 19 19 18 17 15
30 27 25 21 25 29 30 29 29 32 27 24 24 24 24 23 23 26 23 26 23 27 34 40 41 42 43 45 46 44 42 38 34 30 26 24 22 20 18 18 17 17 15 14
31 29 27 28 29 29 30 30 31 31 31 27 27 28 29 29 28 26 28 26 26 29 35 41 41 41 43 43 43 38 33 31 28 25 23 20 18 18 18 17 16 15 14 14
32 28 30 28 27 28 28 29 34 35 35 35 33 32 36 34 30 28 28 28 29 30 32 41 40 40 41 40 34 30 28 24 22 20 19 18 18 18 17 15 15 16 16 14
32 32 29 23 28 28 30 35 35 36 37 36 31 33 33 30 29 30 36 37 36 37 39 41 38 38 37 29 25 21 21 22 22 21 20 20 20 19 19 15 16 16 15 14
32 32 31 26 27 24 31 33 36 36 37 37 37 37 37 35 38 37 40 40 41 41 42 41 37 34 28 21 20 23 25 25 24 22 23 20 16 15 15 14 15 14 14 14
34 31 27 26 24 25 29 32 34 36 36 35 35 38 39 40 39 39 39 41 41 39 41 38 33 26 21 21 24 24 24 24 24 25 27 22 15 13 13 14 13 14 14 13
34 34 30 26 25 22 28 33 34 38 32 34 33 36 36 37 37 37 39 39 39 39 36 28 24 20 21 24 25 26 25 26 26 23 15 13 12 12 13 14 14 13 13 12
33 33 29 29 27 26 29 32 39 29 28 35 34 38 37 37 37 37 37 37 37 35 29 27 27 27 30 33 34 32 29 26 22 14 12 11 12 13 14 14 14 13 11 11
30 29 29 30 28 25 32 33 32 34 35 35 34 38 40 38 35 34 35 34 31 28 27 27 25 23 23 23 19 17 15 14 13 11 10 11 12 13 15 16 15 13 12 11
30 29 30 30 30 32 34 34 36 36 36 35 35 36 42 40 38 33 34 31 30 26 22 20 18 17 17 17 16 14 13 11 10 11 11 12 15 16 18 17 16 13 12 10
33 34 33 33 33 34 35 36 36 35 35 35 36 37 40 35 33 30 29 28 27 26 24 21 19 17 15 14 13 11 10 11 11 11 12 13 13 13 13 14 15 13 11 8
34 36 34 34 35 35 34 35 35 35 34 33 35 37 35 33 31 30 28 26 24 23 21 20 18 16 14 12 10 10 11 12 12 12 12 13 14 13 13 13 14 13 12 14
34 34 33 31 33 35 34 35 35 35 32 32 33 32 32 31 30 28 26 24 22 21 19 18 16 14 12 10 10 11 12 13 12 13 12 12 13 13 13 12 12 15 14 16

GFSCGP_sfc_30mbdewp_036.txt.gz
Dewpoint
44 39 37 36 36 35 35 30 27 28 28 27 27 27 28 28 28 28 30 30 31 32 34 35 35 37 37 35 36 43 44 44 45 50 57 60 60 62 62 62 61 57 53 50
34 32 33 33 34 34 29 27 27 27 27 26 26 26 27 27 26 26 26 27 28 29 31 32 33 36 38 39 38 37 43 44 45 47 53 58 62 62 60 60 58 53 48 42
32 31 33 32 30 29 29 28 27 26 27 27 26 24 23 24 25 26 26 26 26 27 28 29 30 32 36 37 39 39 41 43 46 49 55 58 54 53 53 54 51 48 44 39
32 32 29 28 29 29 27 28 27 26 26 23 26 22 22 20 19 20 21 22 25 26 27 27 28 28 29 35 38 40 42 42 47 51 57 58 58 55 51 49 47 44 43 38
31 30 30 29 28 29 27 29 28 27 26 25 25 23 21 20 19 19 20 21 22 23 24 24 26 27 28 30 38 40 42 44 48 52 57 58 55 50 47 45 42 40 38 35
30 31 31 30 29 30 30 28 27 28 26 23 23 22 17 15 17 19 19 21 22 22 23 26 28 29 30 31 32 38 44 44 50 55 58 55 52 47 46 42 39 37 35 34
30 30 31 31 29 30 29 28 23 23 22 16 17 21 18 17 19 20 20 20 21 22 25 29 35 36 36 30 33 35 42 46 52 56 57 53 51 47 44 42 38 35 32 33
26 25 30 31 30 28 29 27 23 17 18 18 19 17 17 18 20 19 20 20 21 22 29 35 36 38 39 37 33 36 42 48 54 56 54 52 48 45 42 41 37 34 33 32
27 26 29 32 31 30 27 26 27 24 22 20 18 16 17 18 17 18 17 19 20 23 35 35 36 39 39 38 36 38 44 49 53 55 53 51 45 44 41 37 35 35 32 29
30 25 28 31 30 29 28 29 26 27 18 15 16 16 15 17 17 17 18 24 27 34 34 36 37 38 41 38 36 40 46 50 52 53 52 46 44 39 37 35 32 30 28 24
28 27 26 30 28 27 28 27 27 27 27 20 17 16 19 20 19 20 21 29 31 35 36 36 38 41 43 40 38 42 48 50 51 52 47 40 36 34 32 28 26 25 22 22
28 26 25 26 27 29 28 27 26 23 20 24 24 22 24 23 22 22 22 31 33 33 34 37 39 41 42 43 43 46 48 49 49 40 34 31 28 28 26 25 23 23 22 20
29 26 23 27 26 25 25 26 27 27 29 25 23 20 22 24 25 25 25 25 26 28 32 38 40 41 42 46 47 47 48 47 38 33 30 29 27 26 24 22 23 22 20 19
29 28 26 24 28 30 28 29 27 28 27 25 25 24 26 27 28 31 32 28 28 29 29 40 41 41 42 46 49 46 40 36 32 29 27 26 26 23 21 20 20 19 19 15
31 28 28 28 27 28 29 29 30 31 32 28 28 29 32 35 36 36 36 31 29 29 29 41 41 41 42 45 43 36 34 31 27 26 25 23 20 20 19 20 19 17 16 16
32 29 29 27 28 28 27 28 29 32 36 36 35 34 37 37 37 34 35 37 36 33 31 41 40 41 43 39 32 30 29 27 26 23 21 20 20 21 21 21 20 21 16 15
33 32 28 24 26 27 28 30 35 36 37 37 32 36 38 38 39 40 40 40 39 39 40 41 40 40 32 30 28 25 24 23 21 20 19 20 20 20 20 20 18 16 15 16
35 33 31 26 27 24 32 35 35 35 36 37 38 37 37 39 40 40 40 40 40 41 40 41 38 30 26 23 23 23 23 22 22 23 23 24 27 27 26 23 24 23 17 15
37 35 29 26 24 25 27 31 33 34 34 38 34 34 39 40 40 39 39 40 40 41 41 37 28 22 21 23 24 25 26 28 29 31 31 31 31 30 29 22 16 15 14 13
37 36 30 28 25 21 28 32 34 38 33 36 36 39 39 40 36 36 39 37 29 27 27 23 22 23 25 25 28 28 29 31 32 33 32 32 31 27 17 15 14 15 14 12
32 33 29 29 27 26 27 33 38 32 30 36 34 41 39 38 37 37 36 37 29 25 22 23 25 27 28 32 32 32 32 31 31 31 30 24 17 15 15 14 14 12 11 11
30 29 29 30 28 24 32 33 32 35 36 36 35 39 40 36 36 35 32 31 37 37 36 35 34 35 36 36 35 34 33 33 31 23 17 15 14 15 16 16 14 12 12 11
29 30 30 29 28 30 34 35 37 36 35 35 36 37 41 38 35 33 31 28 24 27 34 37 37 37 37 35 30 26 21 13 13 13 14 16 18 19 19 16 14 12 11 10
32 32 33 32 33 34 35 35 36 35 35 35 36 37 40 37 32 30 31 32 28 21 18 18 16 15 14 14 13 11 12 13 13 14 15 16 15 15 15 15 15 12 10 9
35 35 34 34 35 35 35 35 35 35 34 34 36 38 34 32 31 29 26 24 23 22 20 17 15 13 11 11 11 12 13 13 13 13 14 15 14 14 14 15 15 13 17 15
34 34 34 33 34 34 35 35 35 34 32 33 34 33 33 31 29 27 25 23 21 19 18 15 13 11 11 11 12 13 13 14 14 13 13 14 13 14 13 12 14 16 15 14

GFSCGP_sfc_30mbdewp_039.txt.gz
Dewpoint
45 40 38 38 39 35 34 34 30 28 29 27 27 28 29 29 30 30 30 30 31 32 34 35 35 35 33 33 35 39 47 58 60 62 62 62 61 61 61 61 59 58 53 50
39 35 38 38 37 36 35 32 28 28 28 27 26 25 26 27 27 27 27 28 29 30 31 32 33 34 36 37 37 36 43 54 58 60 61 62 62 62 62 62 59 56 52 48
33 32 33 33 32 32 29 28 28 27 27 27 25 22 23 26 26 27 27 27 27 27 28 29 30 31 32 35 37 38 39 43 49 52 58 58 58 57 59 57 55 51 48 47
33 33 31 32 31 29 27 29 28 27 26 22 27 20 24 20 19 21 24 26 27 27 27 28 29 29 29 30 35 38 39 40 45 46 56 58 59 59 57 53 50 47 44 43
32 31 30 28 29 30 28 29 28 28 26 25 25 21 21 23 18 19 20 21 22 26 26 26 27 28 28 29 30 35 38 40 43 46 55 57 59 56 52 48 47 45 44 42
31 32 31 31 30 30 30 28 27 28 26 20 22 22 16 16 17 19 20 20 21 23 24 26 29 33 33 32 31 34 38 40 44 47 57 57 56 52 50 45 44 44 42 39
30 30 30 31 30 30 30 25 21 20 21 13 21 23 19 18 19 19 19 20 22 22 25 31 36 37 39 39 39 36 35 37 43 50 58 56 54 52 51 45 44 41 37 36
26 21 30 31 30 28 29 26 19 11 19 20 21 18 18 21 21 21 20 20 20 22 30 35 36 37 37 38 39 39 37 37 43 55 56 54 50 50 48 46 43 40 37 34
25 25 31 31 30 30 29 26 27 24 23 20 18 17 18 18 18 18 20 21 20 22 35 35 36 37 37 38 41 41 38 40 47 56 54 50 49 48 46 43 41 38 36 34
29 25 31 32 31 31 27 28 24 25 14 12 17 17 15 18 19 21 21 23 29 34 35 36 37 38 39 40 42 42 39 42 53 54 51 47 47 44 42 39 37 35 33 30
28 26 28 30 28 27 28 26 26 26 26 18 18 18 20 20 22 22 24 26 32 34 35 36 37 39 40 41 43 44 42 47 54 50 47 46 43 40 38 37 34 33 30 28
29 27 25 26 28 30 29 27 26 21 16 25 24 21 24 24 24 24 26 27 28 30 33 36 39 39 40 41 43 47 46 51 50 45 43 40 39 36 34 33 31 29 25 24
29 25 22 25 27 28 28 28 27 26 27 23 21 20 22 24 26 27 29 35 36 31 29 37 40 40 41 42 48 49 48 42 39 36 33 32 31 29 27 26 25 26 24 22
29 28 23 20 26 28 25 28 28 27 27 24 24 23 25 27 30 35 37 39 38 36 31 38 40 41 42 46 43 41 37 35 35 32 31 28 27 24 24 24 24 23 24 21
30 26 28 27 28 28 27 27 28 28 28 27 25 28 31 34 38 39 40 39 37 36 32 40 41 41 43 41 38 35 36 33 32 31 29 27 24 23 23 23 23 23 22 22
32 26 30 27 27 28 27 28 28 29 29 30 31 33 37 38 39 40 40 40 39 39 40 41 41 41 36 34 33 31 31 31 29 29 25 24 22 22 22 23 24 25 26 26
31 29 28 22 25 26 27 28 28 32 36 35 33 35 37 37 39 40 39 40 41 41 40 40 40 33 31 29 28 29 27 26 25 23 22 22 23 24 25 26 27 29 29 28
33 32 31 24 26 23 31 32 32 33 35 36 37 37 38 40 41 38 39 36 33 36 41 41 32 28 25 24 24 23 23 23 23 22 24 25 27 29 30 30 30 28 27 27
36 33 28 25 24 25 28 32 33 34 33 36 36 36 41 41 41 38 38 28 28 36 36 28 24 23 25 24 24 25 27 27 26 28 30 30 32 33 33 32 32 32 30 22
36 36 32 29 24 20 27 32 34 38 31 35 35 36 42 39 36 35 36 26 23 24 23 24 25 26 26 28 29 30 30 30 32 33 34 35 35 34 33 32 28 19 14 12
32 32 28 27 27 27 28 29 38 31 30 36 35 37 41 38 37 34 36 33 27 25 25 27 28 28 30 32 33 33 33 33 35 35 34 34 33 28 19 15 14 13 11 11
30 29 29 30 28 23 29 34 33 34 36 36 35 39 38 37 36 31 33 36 34 33 32 32 32 34 35 34 34 33 32 34 33 32 30 27 24 20 17 14 13 12 12 11
30 30 30 29 28 29 33 35 36 36 35 35 35 38 37 35 33 30 26 33 36 36 36 36 36 35 35 35 35 33 32 31 29 25 19 18 17 17 16 14 13 12 10 10
33 32 32 32 33 33 34 35 35 35 34 34 35 40 40 35 32 31 27 22 27 29 31 33 31 30 30 30 29 28 26 18 16 17 18 18 17 16 16 15 14 11 10 10
35 35 34 34 35 35 35 35 35 34 33 34 36 38 38 33 30 30 28 23 21 18 17 16 14 13 12 12 13 14 14 15 15 15 16 17 16 14 14 15 13 15 15 11
34 33 33 32 35 34 35 35 35 33 32 34 34 34 33 31 28 25 23 21 19 17 15 14 13 12 12 13 14 14 14 15 15 14 14 14 14 14 13 13 15 18 16 15

GFSCGP_sfc_30mbdewp_042.txt.gz
Dewpoint
46 40 37 40 38 35 33 34 33 33 29 27 27 27 27 28 29 29 30 31 31 32 33 35 35 34 34 34 34 38 50 59 63 63 63 63 62 62 61 61 58 57 56 53
42 38 39 40 40 38 36 33 31 29 28 27 26 26 26 26 26 27 28 28 29 30 30 31 32 34 35 35 34 34 40 54 60 63 63 63 62 62 61 61 59 57 55 52
36 34 37 37 36 36 33 30 28 28 28 27 25 21 20 23 26 26 26 28 28 28 28 29 30 31 32 33 35 37 37 43 57 61 62 60 59 59 60 60 60 57 54 53
34 31 33 34 32 30 28 29 28 28 26 22 27 17 22 20 21 22 21 24 27 28 28 28 28 29 30 31 32 34 37 39 49 58 60 60 58 59 60 60 58 53 52 52
32 31 29 30 30 30 28 29 28 27 26 25 24 23 18 22 18 18 20 20 21 22 26 28 28 29 29 29 30 31 34 38 41 48 57 60 58 59 57 54 54 51 50 50
31 32 31 30 30 30 29 27 27 28 25 18 20 21 15 15 17 19 19 20 20 21 23 25 27 34 37 37 35 34 33 36 40 43 51 57 59 56 54 52 50 48 47 47
30 30 31 31 29 30 27 25 19 17 19 12 22 23 19 20 20 19 20 21 21 23 24 30 35 37 38 38 38 39 38 38 38 41 47 55 57 55 54 52 50 47 45 43
27 26 29 30 30 28 28 25 17 8 14 19 22 18 15 21 21 20 21 22 21 21 25 34 37 38 37 36 36 39 40 40 39 39 45 55 56 55 53 52 50 47 45 43
25 24 31 31 31 29 29 26 26 23 21 20 18 18 17 19 20 21 23 25 29 25 28 35 36 37 36 37 37 40 42 42 40 40 51 55 54 53 51 48 47 45 43 41
28 25 30 31 31 31 27 28 23 23 9 9 14 17 12 16 19 22 24 26 28 33 34 35 37 37 38 39 39 41 43 44 42 45 54 52 52 51 49 46 45 43 40 39
29 27 29 31 28 27 28 26 26 25 23 15 14 15 21 20 22 23 24 26 28 31 32 31 34 38 39 39 38 41 45 46 46 53 51 49 49 47 46 45 43 41 38 36
29 28 25 27 29 29 29 27 25 20 15 24 23 20 24 24 24 25 27 30 35 36 39 39 36 37 39 38 40 44 48 47 50 49 47 46 44 43 42 41 39 38 34 32
28 24 21 23 26 29 28 28 27 26 26 22 20 19 23 24 25 28 34 38 40 40 40 39 35 38 39 41 44 47 47 48 46 44 43 42 41 41 39 37 34 30 29 25
30 26 22 18 22 26 25 28 28 26 25 23 23 22 24 25 28 33 38 41 41 40 40 37 37 40 42 45 41 40 38 38 37 39 39 38 37 36 34 30 26 24 24 25
28 25 27 27 28 28 27 27 28 26 26 25 23 26 28 30 32 37 41 40 40 40 40 41 41 42 42 39 36 35 34 34 35 34 32 30 28 28 26 25 25 25 26 27
31 25 29 25 27 28 26 27 27 27 27 27 28 28 31 34 38 41 39 39 39 40 41 40 41 40 36 34 32 33 34 36 37 34 31 30 30 30 25 24 26 27 27 27
30 28 27 21 25 26 26 27 28 28 29 29 30 34 36 37 40 39 38 36 32 31 36 41 40 33 31 29 29 30 31 31 29 28 28 27 26 27 28 30 31 32 32 31
31 30 30 24 25 23 31 31 31 29 30 35 36 36 37 39 42 38 36 29 26 25 36 40 32 26 25 26 26 28 31 31 31 30 29 30 29 31 32 32 32 32 32 32
34 32 28 25 23 25 27 32 32 32 31 34 35 36 36 41 41 38 35 25 25 23 24 25 25 24 24 25 27 27 28 30 31 31 31 32 33 33 33 33 33 33 32 31
36 35 31 28 23 20 27 30 36 36 30 36 36 35 36 40 36 37 35 25 25 25 26 26 27 28 29 29 29 29 30 30 31 33 34 35 35 34 34 33 33 32 30 25
32 32 28 27 25 26 28 30 38 30 30 35 36 35 40 38 38 35 34 32 31 29 29 30 31 31 33 33 31 32 33 32 34 36 35 35 35 34 33 31 29 24 16 13
30 28 28 28 26 23 29 36 33 34 36 36 35 38 39 38 35 31 36 35 33 34 33 33 34 34 35 34 33 32 31 32 33 33 32 30 30 30 25 18 14 12 11 11
29 30 29 30 27 29 30 34 36 36 35 35 35 38 38 36 32 29 34 36 35 35 35 35 34 34 35 35 34 31 31 32 32 31 27 20 18 17 16 13 12 11 11 9
32 33 33 32 32 32 33 34 35 35 34 34 34 38 36 35 31 26 29 34 35 36 36 35 34 33 32 33 33 32 32 29 22 18 18 17 15 15 14 14 12 10 10 11
34 35 34 34 35 35 35 35 35 35 33 34 35 39 39 34 31 27 24 28 26 25 24 22 22 23 25 23 25 25 22 18 17 17 17 18 17 14 14 14 14 13 12 8
34 32 31 29 33 35 35 35 35 34 33 34 35 36 35 32 31 28 24 22 19 17 16 15 14 14 14 14 15 16 16 16 16 16 15 15 14 14 14 15 17 18 17 17

GFSCGP_sfc_30mbdewp_045.txt.gz
Dewpoint
46 41 38 39 38 34 33 33 32 33 32 28 28 27 27 28 28 28 29 31 33 33 34 34 34 35 35 35 34 36 47 58 63 65 64 64 63 63 61 61 60 58 56 55
42 38 40 42 41 39 35 34 32 30 29 28 27 26 27 27 27 27 28 28 29 30 30 31 32 33 34 34 35 34 38 55 61 64 64 63 63 63 63 62 61 59 56 55
36 37 41 40 39 38 36 34 31 29 28 27 26 22 22 23 24 25 26 27 28 28 28 29 29 30 31 33 34 35 36 41 59 63 63 61 61 60 61 60 60 58 57 55
32 32 38 36 37 36 30 29 29 27 26 25 27 20 23 21 21 23 23 23 24 26 28 29 29 29 30 30 32 34 36 38 44 60 62 61 60 60 61 61 61 58 56 56
32 30 34 34 33 30 28 29 28 27 25 24 24 22 18 20 14 16 20 20 21 21 22 24 27 28 29 30 30 31 32 35 39 48 61 61 61 60 60 60 60 57 54 56
31 33 31 30 31 30 30 27 26 27 24 18 20 21 12 13 17 18 19 21 21 22 23 25 26 31 35 37 34 33 31 32 35 39 49 60 60 58 57 56 57 55 52 53
30 30 31 31 29 30 27 26 18 13 17 11 23 21 15 19 21 22 22 22 25 23 22 27 34 37 38 38 38 38 38 37 39 39 41 51 58 58 56 56 56 53 52 50
27 26 29 31 29 28 27 25 15 4 10 17 23 19 14 22 20 22 25 27 30 31 31 34 36 37 37 36 36 37 39 39 40 41 40 45 53 57 57 55 55 53 53 52
25 24 31 31 31 29 28 25 25 22 20 19 18 18 16 20 22 23 24 25 27 29 31 32 34 35 37 37 37 37 38 40 42 42 42 44 51 56 55 55 53 52 50 47
27 26 30 31 31 30 27 28 23 22 7 4 12 15 9 17 19 23 24 26 27 29 33 35 33 34 35 37 39 39 40 41 43 44 44 46 52 54 54 52 50 48 46 45
29 27 30 30 28 28 27 26 26 24 20 14 12 10 20 19 22 24 26 29 32 37 39 40 37 38 38 38 39 39 41 45 46 46 48 50 51 51 50 48 46 45 43 41
29 27 27 27 28 29 29 26 25 18 16 24 22 17 24 24 24 25 27 33 37 41 41 41 41 40 40 38 39 41 46 47 48 49 49 49 48 47 46 45 44 43 41 41
27 24 21 23 25 28 27 28 25 25 24 21 18 17 24 24 25 27 31 36 41 41 40 40 41 40 37 41 44 42 39 40 43 46 45 45 45 44 43 43 42 39 37 34
29 25 21 16 21 25 25 27 27 26 24 22 22 21 23 25 27 30 33 42 41 41 41 41 41 41 43 41 38 35 35 37 39 40 41 42 42 41 40 37 37 36 31 28
28 25 26 26 27 28 27 26 28 26 26 23 22 23 25 27 29 31 42 40 39 39 38 40 41 41 42 37 34 35 37 36 36 36 35 35 36 35 33 31 30 29 28 27
29 27 28 24 26 27 26 27 27 28 28 27 27 27 28 29 32 40 40 38 35 33 31 31 39 38 34 31 31 33 33 35 35 34 34 31 30 29 30 29 29 29 29 29
29 27 25 20 24 26 24 26 26 27 27 26 25 28 31 36 37 41 38 34 29 28 26 32 38 33 29 29 30 31 31 29 29 29 30 31 32 32 32 31 31 31 31 31
29 28 28 24 24 18 25 30 28 27 28 29 30 31 33 37 40 39 35 29 25 26 24 28 28 26 26 27 30 32 33 34 33 32 33 33 34 34 33 34 33 33 33 32
32 31 27 24 23 23 26 29 32 30 31 33 32 34 36 37 41 39 34 25 26 26 26 25 25 26 27 27 29 31 33 34 34 34 34 34 34 33 33 33 33 33 33 32
35 35 30 27 22 19 28 31 35 35 30 35 36 35 35 39 37 38 34 29 28 27 28 29 30 30 29 29 30 30 31 32 33 34 35 35 35 34 34 33 32 33 33 32
32 32 28 25 24 24 27 29 38 29 31 35 36 36 35 37 39 35 34 31 31 30 30 32 33 33 34 34 34 33 32 32 35 35 34 34 34 34 33 33 32 31 30 27
30 29 27 28 25 21 29 36 33 34 36 35 35 35 37 39 36 32 36 34 33 33 33 34 33 34 34 34 33 32 31 32 33 34 33 33 33 32 30 27 20 15 13 11
30 31 29 28 26 28 30 31 35 36 35 34 34 34 38 38 35 32 36 36 34 34 35 35 35 34 35 34 33 31 32 33 32 31 28 22 20 20 17 14 12 11 10 9
32 33 32 33 33 33 34 36 35 35 35 34 34 34 38 37 34 29 35 36 35 35 35 34 34 33 33 34 33 32 31 29 26 20 17 15 14 14 13 12 12 11 10 11
34 34 34 33 34 34 35 35 35 35 35 33 35 36 38 36 33 27 30 31 32 31 28 29 30 31 31 32 31 30 21 19 18 17 17 16 14 13 14 14 11 9 8 8
34 33 31 30 33 34 35 36 36 35 34 33 34 36 39 36 33 28 25 26 23 22 20 21 20 21 20 20 19 18 18 17 16 16 15 14 14 15 16 17 18 20 19 18

GFSCGP_sfc_30mbdewp_048.txt.gz
Dewpoint
45 41 37 37 37 34 33 32 31 32 32 30 31 29 28 29 29 28 28 29 29 30 33 35 35 35 35 35 35 36 38 55 65 66 64 64 63 63 63 63 62 58 57 57
41 38 41 40 39 35 34 33 33 32 29 28 28 27 28 28 28 28 28 29 29 29 30 31 32 33 34 34 34 35 36 42 59 65 65 64 63 63 63 62 62 60 57 56
36 39 41 41 39 37 37 35 32 30 28 27 26 24 22 23 24 24 25 27 27 27 26 27 29 30 31 32 33 34 35 38 51 62 64 62 62 61 62 62 61 61 58 56
33 40 40 39 38 38 34 34 30 27 27 25 27 22 23 23 19 20 21 21 22 22 23 24 26 27 29 29 31 32 34 36 40 58 62 62 61 61 61 62 62 61 59 57
34 38 38 38 37 37 30 29 28 26 25 24 24 21 17 19 15 18 20 25 25 23 23 28 31 28 29 31 30 31 32 35 38 43 61 62 61 61 60 61 61 60 57 57
32 32 32 32 31 31 29 27 26 25 24 19 20 20 8 14 18 20 23 27 29 29 30 32 35 38 38 39 39 38 32 31 34 39 48 61 61 60 59 59 60 58 56 56
31 30 31 31 29 29 28 28 24 11 16 12 23 21 15 21 21 22 24 26 29 31 32 33 34 35 36 36 36 36 38 38 38 38 39 49 59 60 58 58 58 57 55 55
28 27 29 31 29 28 27 26 19 3 8 15 22 18 14 22 20 25 26 26 28 29 32 35 36 37 36 35 36 37 37 37 40 41 40 41 45 54 58 57 57 57 55 55
25 26 31 31 31 29 27 25 25 21 19 18 17 17 13 22 22 23 25 27 28 30 32 35 38 39 38 36 39 38 38 39 39 41 43 43 43 45 53 56 56 56 55 54
27 26 30 30 30 30 28 28 22 20 10 2 8 12 6 17 20 24 26 28 29 34 37 39 40 40 39 39 40 39 39 39 40 45 46 45 46 48 50 53 54 54 52 50
28 27 30 30 28 27 27 26 25 23 20 10 4 5 18 18 23 24 26 28 32 37 41 42 41 41 41 41 40 39 40 44 46 46 48 48 48 50 52 52 50 49 47 46
28 28 27 27 28 29 28 26 24 16 17 22 21 12 23 24 24 25 27 30 36 42 42 41 41 41 41 40 41 43 39 40 41 44 46 47 47 48 48 47 46 44 43 43
27 24 23 25 27 28 28 27 25 23 22 20 16 12 23 24 24 26 29 33 42 41 40 41 41 41 43 40 38 36 36 38 39 42 44 44 45 45 45 44 43 42 41 40
28 24 20 16 20 26 25 27 25 24 22 20 20 19 21 23 25 27 30 41 40 39 37 35 34 40 40 35 35 36 36 36 37 39 41 42 42 42 41 40 38 36 34 33
28 25 26 25 26 27 26 26 27 25 25 21 21 22 23 26 28 29 33 40 38 35 31 30 30 36 35 32 33 34 35 35 35 34 34 35 36 34 36 35 34 31 31 30
28 27 28 24 26 27 26 27 27 27 26 26 26 26 28 28 30 36 40 38 35 29 29 26 32 37 31 30 31 30 30 32 32 32 31 31 32 32 32 32 32 32 33 33
28 27 25 20 24 26 23 26 26 27 28 27 25 26 28 30 34 38 39 35 30 27 26 26 28 28 28 30 32 32 31 32 32 32 33 33 33 32 32 31 32 32 33 33
28 27 27 23 23 16 20 29 28 26 25 28 27 27 29 31 36 39 35 29 26 26 26 25 25 25 26 30 32 33 34 34 34 34 34 35 34 34 34 33 33 33 33 33
30 30 26 23 23 22 25 30 29 28 31 31 29 31 33 36 40 39 33 27 26 27 27 27 28 28 28 30 31 32 33 34 34 34 34 35 35 34 33 32 32 32 33 32
34 32 27 25 21 19 26 32 35 34 31 34 36 36 36 37 35 37 34 30 29 28 29 30 31 31 31 32 33 34 34 35 34 35 35 35 34 34 33 33 33 33 33 31
31 32 27 24 22 24 26 29 37 31 31 35 35 35 35 35 38 36 34 32 31 32 32 33 34 33 33 34 34 33 33 33 34 35 35 34 34 33 32 32 32 31 30 29
27 27 26 27 24 20 29 36 33 35 35 35 35 35 35 38 35 35 36 34 33 33 33 34 34 34 34 33 33 32 31 33 34 34 33 33 33 33 32 30 28 21 15 13
29 30 27 26 25 28 31 31 32 36 35 35 35 34 34 37 37 35 36 35 34 34 34 35 34 34 34 34 34 32 33 33 33 32 30 30 29 25 20 14 12 10 10 10
32 33 33 32 32 33 34 36 36 35 35 35 34 34 35 36 36 32 36 36 35 34 34 34 34 33 33 33 33 32 32 30 23 18 17 15 14 12 12 12 12 11 11 11
33 34 33 33 33 34 34 35 36 36 36 35 34 35 36 37 35 30 36 36 35 34 34 33 33 33 33 33 32 25 22 20 17 17 16 15 13 13 12 11 8 7 8 9
33 31 31 30 34 36 36 36 37 37 35 34 33 34 38 38 35 28 33 31 32 28 26 28 29 29 28 28 25 19 20 18 16 14 14 14 15 16 17 18 20 21 20 20

GFSCGP_sfc_30mbdewp_051.txt.gz
Dewpoint
44 39 35 37 37 32 32 31 31 32 32 30 31 30 30 30 30 30 30 30 30 30 31 33 35 36 36 37 37 36 38 52 64 64 64 64 63 63 63 64 62 60 60 60
41 35 37 38 36 33 33 32 32 32 29 29 28 27 28 29 29 29 29 29 29 30 29 28 29 31 33 35 35 36 36 39 53 63 63 63 63 63 64 63 63 62 59 59
35 39 40 38 38 35 35 32 31 30 28 27 27 25 23 24 23 23 23 23 24 25 23 28 29 28 30 31 33 34 36 37 42 58 63 64 63 63 63 63 63 62 61 59
36 41 40 39 37 37 34 37 32 28 27 25 26 21 23 22 18 22 26 27 26 26 26 32 36 36 34 35 34 32 34 36 38 48 60 62 59 59 61 61 62 62 62 59
34 40 38 37 38 38 35 31 28 27 26 25 24 20 16 17 18 23 25 28 30 30 32 34 36 37 38 39 39 38 34 32 36 39 54 61 60 60 61 62 62 62 61 60
31 34 36 37 38 38 30 27 26 25 24 22 21 21 10 16 19 22 25 27 29 32 35 36 37 38 39 38 38 38 38 38 36 36 41 58 61 61 61 61 61 61 60 60
34 33 31 36 33 31 28 28 23 13 20 18 23 21 16 19 21 23 25 27 29 31 35 37 38 39 40 40 38 39 39 38 39 40 39 40 53 61 60 60 60 60 58 57
29 26 30 31 30 29 27 28 23 8 8 12 22 16 15 22 21 23 26 27 28 32 34 38 39 40 40 40 39 40 40 40 40 40 41 42 42 46 56 59 59 59 59 58
25 27 31 31 31 29 26 25 23 20 19 17 15 18 15 21 23 24 27 29 31 33 37 40 41 41 41 41 41 41 40 40 40 40 44 45 45 44 45 50 56 58 58 57
27 26 31 30 30 29 27 27 23 20 8 4 7 9 6 19 20 24 27 29 30 34 41 42 41 41 42 42 42 41 40 40 42 46 46 48 48 48 48 48 50 54 56 55
28 27 30 30 28 27 26 25 24 21 18 7 -0 2 16 17 23 24 26 29 31 40 42 41 41 42 42 42 40 40 40 41 42 43 45 46 47 48 49 50 51 51 51 51
28 29 27 28 28 29 28 26 23 16 17 21 20 7 22 22 24 25 26 29 35 42 40 40 40 40 42 39 37 37 37 38 39 42 44 45 47 47 47 47 47 47 48 47
27 25 24 25 27 28 28 27 24 21 22 19 14 9 23 24 24 25 27 30 41 40 38 35 34 34 39 35 36 37 37 36 38 39 42 43 44 45 45 45 44 44 44 43
27 24 20 15 20 26 26 27 25 23 21 19 19 16 18 21 24 27 29 35 40 37 32 31 30 32 36 33 34 34 35 35 35 35 36 39 39 40 40 38 38 38 37 34
28 24 25 25 26 26 26 27 26 24 24 21 17 21 21 24 26 28 31 40 38 33 30 28 31 34 31 31 31 31 32 33 33 32 33 33 34 35 35 33 33 32 31 30
28 27 27 24 26 27 26 27 27 26 26 25 25 25 27 28 29 33 40 38 34 29 28 28 27 29 29 31 32 31 32 33 33 33 33 33 33 34 34 34 35 34 34 34
27 26 24 20 24 25 23 26 27 27 28 27 24 26 27 27 29 33 39 35 30 27 27 26 25 26 28 31 33 33 34 34 34 34 34 34 33 32 32 33 34 35 35 36
27 26 26 23 22 16 19 28 28 27 27 28 28 27 27 28 32 39 35 31 27 27 27 26 26 27 28 31 33 34 35 35 35 35 35 35 35 34 34 34 34 34 34 35
29 28 26 23 22 20 26 29 27 27 30 28 27 29 31 36 39 38 34 28 27 27 28 29 29 29 30 31 32 33 34 34 34 34 34 35 34 33 32 32 32 33 33 32
33 30 25 24 20 16 24 32 33 33 31 34 33 34 35 36 32 37 34 30 30 29 31 32 32 33 33 33 35 35 34 34 34 35 35 35 35 34 33 32 31 31 32 31
31 32 26 24 22 22 25 28 37 31 31 34 35 35 34 33 36 37 33 32 32 33 33 33 33 33 33 34 34 33 34 33 35 35 35 34 33 32 32 32 31 31 30 29
26 26 26 27 23 18 27 36 34 35 35 35 35 35 34 35 37 35 35 34 33 33 34 34 33 33 34 33 33 32 32 34 34 34 33 32 33 33 32 30 27 20 16 14
28 28 27 25 23 26 31 31 34 34 35 35 35 35 34 35 37 35 36 34 34 34 35 34 33 34 34 34 34 32 33 34 32 32 31 29 26 19 16 13 12 11 11 11
33 33 32 32 32 32 34 35 36 36 36 35 35 34 34 35 37 35 36 35 34 34 34 34 34 34 33 34 33 33 33 27 23 21 16 14 13 12 12 12 12 11 11 11
32 33 33 33 34 34 34 36 37 37 37 36 35 34 35 36 36 34 36 36 35 34 34 34 34 33 33 33 29 28 23 19 17 16 15 14 13 11 11 9 6 7 8 8
34 31 30 29 33 36 36 37 36 34 34 34 33 33 35 38 36 32 36 36 35 33 32 33 33 33 33 32 23 23 20 17 15 13 13 15 16 18 19 20 20 22 21 20

GFSCGP_sfc_30mbdewp_054.txt.gz
Dewpoint
42 39 36 35 31 28 27 27 23 28 31 30 29 30 31 32 31 30 29 29 29 30 31 32 33 33 33 35 37 38 38 40 49 59 64 65 64 64 64 64 64 63 62 61
39 37 34 35 35 32 29 25 25 32 31 30 29 29 29 30 30 29 28 28 28 28 27 27 29 28 29 31 33 35 37 38 41 49 59 63 63 64 64 64 64 64 63 62
37 38 37 34 34 31 31 27 29 28 29 28 27 25 25 25 23 26 24 24 24 25 29 34 35 34 33 33 33 33 35 37 39 40 49 57 60 62 62 63 63 63 63 63
36 40 36 34 32 31 30 35 32 30 29 24 27 15 23 19 24 26 27 28 30 32 34 36 36 37 38 40 41 39 35 35 36 39 42 51 57 58 59 59 62 63 63 63
34 37 38 34 33 34 34 34 30 28 27 27 24 21 18 19 22 25 28 31 33 36 38 38 39 41 41 42 42 41 39 39 36 37 39 43 53 55 56 58 59 60 62 62
37 42 39 38 39 36 31 29 27 27 27 25 24 21 12 16 21 26 28 31 33 36 39 40 41 42 42 43 43 43 42 40 40 40 38 40 44 52 56 58 59 60 61 61
34 34 38 39 34 35 30 30 26 23 25 21 22 20 15 19 23 27 30 31 33 36 39 41 41 42 42 42 42 42 41 41 41 40 40 40 40 45 54 56 57 58 59 60
30 27 33 37 35 32 33 30 25 16 14 14 22 14 15 20 22 24 28 31 32 35 40 41 41 42 41 41 41 41 41 41 41 41 41 41 42 43 43 47 53 55 56 58
30 29 31 31 30 32 28 29 24 21 20 18 14 18 20 20 22 24 29 33 34 36 42 41 41 41 41 42 42 42 41 40 41 42 44 44 45 46 46 45 45 48 51 54
28 28 30 30 31 29 29 27 24 25 15 11 9 9 9 20 22 24 29 32 33 38 42 40 40 41 42 42 41 41 41 42 43 44 45 46 47 48 49 50 49 49 49 50
29 28 30 30 29 28 26 26 25 23 19 7 -2 3 14 21 22 24 27 31 33 40 41 39 39 38 42 41 39 39 39 39 40 42 43 45 47 48 48 49 49 50 51 51
29 29 27 29 29 29 28 26 23 21 20 22 18 8 22 20 24 25 28 31 36 41 39 36 36 36 40 38 38 38 38 38 38 39 41 44 45 46 47 48 48 48 49 50
28 27 24 26 27 29 28 27 24 24 25 22 13 11 23 24 24 26 30 32 39 40 36 34 34 35 38 36 36 36 36 36 36 37 39 40 41 43 42 41 43 44 44 45
28 26 24 19 24 28 28 28 25 26 23 20 17 17 21 22 23 28 30 35 40 37 32 32 35 36 35 34 34 33 34 35 35 35 36 37 37 38 37 36 35 34 33 34
29 26 26 25 26 28 28 28 26 25 25 22 18 19 18 22 26 28 31 40 38 33 32 31 33 33 33 33 33 34 35 35 35 35 35 35 35 35 35 35 34 34 34 34
29 28 28 25 26 27 27 27 27 26 26 25 25 25 26 27 28 31 36 39 36 32 30 30 30 31 32 33 34 35 35 35 35 34 34 34 33 34 35 35 35 36 36 36
28 28 27 23 25 25 24 25 26 27 27 26 25 25 27 28 30 33 38 38 33 30 29 28 28 28 30 33 34 35 35 35 35 35 34 33 34 34 34 35 35 36 37 38
28 28 27 25 24 19 22 28 27 26 27 28 27 27 28 30 34 38 39 35 31 30 29 29 29 29 30 32 34 34 35 35 36 35 35 34 34 33 34 33 33 33 34 34
28 29 27 24 22 22 24 28 28 27 27 27 27 28 31 35 37 39 37 31 30 29 29 30 30 30 31 32 33 34 34 35 35 35 35 35 34 33 33 32 32 32 32 32
31 29 27 25 21 16 27 33 34 30 33 34 30 32 35 35 33 38 37 32 31 30 31 31 32 32 32 33 33 33 34 34 34 35 35 35 35 33 32 32 32 32 32 31
29 30 26 24 21 22 24 26 36 31 32 35 36 35 35 34 35 38 35 33 32 33 33 33 32 32 32 33 33 34 34 33 34 35 34 34 34 33 32 32 32 32 31 31
26 25 26 26 22 20 27 35 33 36 35 35 36 35 35 35 37 37 35 34 33 33 33 33 33 32 33 34 34 33 33 35 35 34 33 34 34 34 33 30 25 22 19 18
26 26 25 25 23 26 31 32 33 35 35 36 35 36 35 35 37 37 36 34 34 34 34 34 33 34 34 35 35 33 34 34 33 33 31 28 24 19 17 15 14 12 12 11
33 33 29 31 30 29 30 35 36 37 37 38 37 35 35 35 36 37 37 35 34 34 34 33 35 34 34 35 35 35 33 31 29 26 20 14 13 12 12 12 12 11 11 10
31 33 32 32 33 35 35 37 36 36 36 36 36 35 35 36 36 37 37 36 35 34 34 34 35 34 34 33 33 31 27 28 21 15 14 14 12 10 8 9 7 6 7 7
33 31 31 29 32 33 35 37 36 35 34 34 33 34 34 36 37 36 36 37 35 34 34 34 36 35 34 33 31 29 25 19 16 14 13 12 14 16 18 19 20 22 21 21

GFSCGP_sfc_30mbdewp_057.txt.gz
Dewpoint
44 40 36 33 29 24 21 22 17 20 31 29 26 26 24 28 29 29 28 27 26 26 27 31 33 33 34 35 36 37 37 37 39 46 55 64 65 65 65 65 63 62 61 61
41 34 37 32 28 26 26 22 21 26 29 28 24 26 28 28 27 27 27 28 27 28 29 29 30 30 29 30 32 34 37 38 39 41 46 59 63 63 64 64 65 65 63 62
33 36 39 39 31 28 25 25 22 25 30 29 27 25 25 26 25 26 25 24 25 26 27 33 35 35 34 36 38 35 35 37 39 40 42 47 59 61 62 64 64 64 63 64
36 38 38 38 32 28 24 25 25 29 26 16 26 8 25 23 24 25 25 24 27 31 34 36 37 38 39 41 43 41 39 36 36 38 40 41 46 53 57 58 60 61 62 62
35 36 39 32 32 29 25 32 31 30 28 27 25 20 20 21 23 25 27 30 33 35 36 37 39 41 42 44 44 44 41 39 40 37 37 39 41 47 54 56 57 57 59 62
38 40 40 37 36 33 35 31 30 29 28 25 25 19 17 18 21 25 28 31 33 36 39 40 41 42 42 44 44 44 42 41 41 40 40 38 40 42 47 53 54 56 57 60
32 33 39 38 34 34 33 31 28 27 26 22 22 22 18 17 22 26 28 31 34 36 39 40 41 41 42 42 43 42 41 41 41 41 41 39 40 40 43 46 51 54 55 58
30 27 33 37 36 34 34 31 27 19 20 20 20 17 16 20 26 28 30 33 34 36 40 41 41 41 41 42 42 42 41 41 41 41 42 41 41 41 42 42 44 50 52 54
30 29 36 37 38 37 34 30 27 19 19 16 15 17 20 21 23 25 30 33 35 37 41 40 40 41 41 42 42 42 41 42 42 43 44 43 44 45 46 46 45 44 44 47
31 29 32 33 36 33 34 29 27 28 17 10 12 10 10 19 21 24 29 32 34 37 40 39 39 39 41 42 41 41 40 40 41 42 43 44 46 47 47 47 48 49 50 50
29 28 31 30 30 28 27 27 26 25 19 10 2 5 15 18 22 25 29 32 34 39 40 38 38 38 41 41 40 40 39 39 39 40 41 43 44 46 47 47 47 48 49 49
30 29 27 29 29 29 28 26 25 24 21 21 18 13 18 21 23 25 29 32 35 40 39 36 36 37 39 38 38 38 38 38 37 38 39 41 42 44 43 43 44 46 47 48
28 28 25 26 27 29 28 27 25 24 27 25 13 15 21 21 24 26 30 33 37 39 36 35 35 36 38 36 36 36 36 37 37 37 38 38 39 40 39 39 38 38 38 41
28 26 26 21 27 28 28 27 26 28 25 19 16 18 21 22 23 29 30 33 38 38 34 34 36 37 36 35 35 35 36 37 37 37 37 37 37 37 37 36 36 35 34 33
29 28 26 26 26 30 29 28 27 27 25 22 18 18 20 20 26 28 30 37 39 36 33 32 34 34 35 34 35 36 37 37 36 36 36 35 36 36 36 36 36 36 35 35
30 28 28 26 26 27 27 26 27 27 26 24 23 23 23 26 28 31 33 38 38 35 32 32 32 32 33 34 35 36 36 36 36 35 35 34 34 35 35 36 37 37 37 38
28 29 28 24 25 25 23 25 25 26 26 26 24 24 26 28 31 34 37 39 36 33 32 31 30 30 31 34 35 35 36 36 36 36 35 34 34 34 35 35 36 35 35 35
28 28 27 24 24 20 27 27 26 25 26 26 26 26 27 30 33 36 40 38 35 32 32 31 31 31 32 33 33 34 35 36 36 36 35 34 34 35 35 34 33 33 34 33
28 26 25 23 22 22 21 26 27 26 26 26 27 27 30 34 36 36 39 35 33 32 31 31 31 30 32 33 33 34 34 35 36 35 35 35 35 34 34 33 32 33 32 31
30 28 26 25 22 18 29 32 30 30 29 30 27 30 33 35 34 39 38 34 32 32 32 32 32 32 32 32 33 33 33 34 35 35 35 35 35 34 33 33 32 33 32 31
28 28 26 23 22 21 24 33 35 31 33 35 35 35 35 35 36 39 36 34 33 33 33 33 32 32 32 33 33 33 34 33 35 35 35 35 34 34 34 33 33 32 31 30
25 24 24 24 23 20 26 29 31 35 36 36 36 36 36 36 36 37 36 35 34 34 33 33 33 32 33 33 34 33 33 35 35 35 35 35 34 33 33 31 28 24 21 18
24 25 24 24 24 28 33 34 36 36 36 37 37 36 36 35 35 37 37 36 34 35 34 35 34 34 34 34 35 34 34 35 35 34 33 31 28 22 19 17 16 13 12 11
28 29 27 30 28 27 31 33 36 37 37 38 38 37 36 35 36 37 37 36 35 35 34 33 34 34 34 35 36 36 35 34 32 30 24 17 13 12 12 13 14 12 10 8
29 32 30 28 29 33 34 35 37 37 37 36 36 36 36 36 36 37 37 37 36 35 34 35 35 35 35 35 35 35 32 31 28 19 15 14 13 11 10 12 11 6 12 14
29 30 29 27 30 30 33 37 36 36 36 35 34 34 35 35 36 37 37 38 37 35 34 35 36 36 35 34 34 32 31 29 18 15 13 12 13 15 17 18 20 23 22 22

GFSCGP_sfc_30mbdewp_060.txt.gz
Dewpoint
40 38 35 36 35 31 27 28 27 25 30 29 29 31 29 28 28 28 29 28 27 28 28 29 33 33 33 33 35 37 38 38 40 41 50 65 65 65 65 65 65 65 62 62
38 35 36 36 34 30 25 23 24 23 31 30 28 26 26 27 28 29 29 28 27 27 28 30 32 32 30 31 34 35 36 38 39 40 42 53 65 65 65 64 64 65 65 63
33 34 37 36 32 29 25 24 21 24 29 29 26 24 26 28 27 27 27 27 26 26 27 33 35 36 38 42 42 40 38 36 37 39 42 43 54 63 63 63 63 62 64 64
38 39 38 38 35 29 25 25 24 28 28 22 27 13 24 26 24 25 25 23 25 31 35 36 38 40 42 44 45 44 41 39 37 37 38 40 41 46 59 62 64 64 64 63
35 37 37 36 36 31 25 26 29 29 28 27 25 22 22 23 23 25 26 29 33 35 36 38 40 41 43 45 45 45 45 42 40 41 38 38 40 42 44 49 57 59 60 63
37 39 39 37 40 39 32 31 30 30 29 26 26 21 20 20 23 25 28 32 34 37 39 40 42 42 43 44 44 44 44 42 43 41 41 40 39 40 41 42 49 55 56 58
35 34 38 40 37 36 32 30 25 25 25 24 24 23 22 20 24 27 29 32 35 37 40 41 41 42 42 43 43 43 42 42 42 42 43 42 41 42 42 42 44 48 53 55
29 27 34 37 37 34 32 30 25 18 22 21 21 21 18 23 28 30 32 34 35 37 41 41 41 41 41 42 42 42 42 42 43 43 44 43 44 45 45 46 45 45 45 46
30 28 36 37 38 37 35 31 27 22 17 18 18 18 19 26 27 28 30 33 35 38 41 40 40 41 41 42 41 41 40 41 42 42 44 45 46 47 47 47 48 49 50 50
32 28 34 37 38 37 35 33 26 26 10 14 14 16 15 21 23 24 31 33 35 37 40 39 39 39 41 42 41 40 40 39 40 40 41 44 45 46 47 48 48 48 48 49
31 31 32 36 34 32 33 33 29 26 22 17 10 10 18 20 23 24 30 33 34 38 40 38 37 37 41 40 40 39 38 38 38 38 40 41 43 43 42 42 42 44 46 47
30 31 29 29 29 31 33 29 30 28 24 21 18 16 18 20 24 29 31 33 35 40 39 36 36 37 39 38 38 37 37 37 37 38 39 39 40 40 39 38 38 37 37 40
29 28 25 26 27 28 28 28 27 26 26 23 18 17 21 23 25 26 30 33 38 39 36 35 36 36 37 36 36 36 37 37 37 38 38 37 37 37 37 36 36 36 34 34
29 27 26 22 27 29 27 28 27 27 21 23 19 19 20 22 24 27 31 33 38 37 35 34 36 37 36 35 35 36 37 37 37 37 36 36 36 36 36 36 36 35 35 34
31 26 26 26 29 30 30 28 28 26 25 20 22 20 21 21 24 29 30 37 38 36 34 33 34 34 35 35 35 36 37 37 36 36 35 35 36 36 36 36 37 37 37 37
31 27 27 25 26 27 26 27 28 28 27 25 24 23 24 27 29 31 33 38 39 35 33 32 32 32 34 34 35 36 36 37 37 35 34 35 35 35 35 37 36 36 36 35
30 28 27 24 25 25 22 25 26 28 27 27 24 25 27 27 31 33 37 39 37 34 32 32 31 30 32 34 35 35 36 37 36 35 35 34 34 34 35 36 35 35 34 34
28 28 27 25 25 16 27 27 26 26 27 27 27 27 26 29 33 35 39 39 35 33 32 31 31 31 32 33 34 35 35 36 36 35 34 33 35 35 34 34 33 33 33 33
28 27 25 24 23 23 26 25 26 25 25 27 27 27 28 35 36 36 40 35 33 32 31 31 31 31 32 33 34 34 34 34 35 34 33 33 34 34 34 33 32 32 31 31
29 28 26 25 22 20 30 29 29 29 29 27 28 28 33 35 35 38 36 34 32 32 32 32 31 32 32 33 33 33 33 33 35 35 34 34 34 34 33 33 32 32 32 31
27 27 26 23 23 23 33 33 33 30 32 35 31 35 35 35 37 40 36 34 33 33 33 33 33 32 32 33 34 33 34 33 35 35 35 35 35 34 34 33 32 31 29 27
27 26 26 26 24 20 30 30 31 36 36 36 36 36 36 36 36 38 36 34 34 34 33 33 33 32 34 34 34 34 34 35 36 36 35 34 33 33 33 31 31 30 25 20
23 25 23 24 25 29 32 35 36 37 36 38 37 37 36 36 36 37 37 36 35 35 34 34 34 34 34 34 34 34 35 35 35 34 33 32 32 28 25 19 16 13 13 12
26 28 27 28 29 28 34 35 37 38 38 38 38 37 36 36 36 36 38 37 35 35 34 35 34 34 33 34 36 36 35 35 34 31 28 19 14 14 14 14 14 12 10 7
30 29 29 28 29 33 32 35 37 37 37 36 36 36 36 36 36 36 37 38 36 35 35 34 34 34 33 34 36 35 34 34 31 25 15 14 14 12 12 20 21 10 19 20
30 31 30 28 32 31 34 37 36 36 36 35 35 35 35 35 35 36 37 38 37 36 35 35 35 35 35 35 35 34 33 32 24 16 15 13 11 11 17 19 21 24 23 23

GFSCGP_sfc_30mbdewp_063.txt.gz
Dewpoint
41 38 34 34 37 33 36 32 29 31 30 31 30 31 31 30 29 29 28 29 29 28 29 31 32 31 31 31 33 35 36 38 43 59 64 64 64 64 64 65 65 65 65 63
39 34 36 36 37 35 31 31 29 28 29 30 30 31 32 31 28 28 29 29 29 28 29 32 32 31 37 40 40 39 37 36 37 41 43 60 64 65 64 65 65 64 64 64
35 34 37 36 35 33 32 26 27 26 29 29 27 26 27 28 28 29 28 28 27 26 32 35 38 40 41 42 43 43 40 39 37 37 38 41 52 63 64 64 64 64 64 64
35 37 36 35 33 32 30 27 25 28 28 25 26 19 21 26 26 26 26 26 25 34 37 39 40 42 43 44 45 45 45 42 40 39 37 37 39 41 52 60 63 63 63 63
36 37 36 36 35 36 29 27 30 29 26 25 25 20 18 26 25 25 25 24 26 34 37 39 40 42 45 45 45 45 44 43 42 41 40 38 38 40 42 43 46 55 62 64
38 40 39 36 39 40 38 30 30 30 29 24 27 23 18 24 25 25 27 33 35 38 40 41 42 43 43 44 44 43 42 42 42 42 42 41 40 40 41 41 42 44 51 56
34 35 38 40 35 37 37 28 25 23 24 21 23 25 21 23 24 26 29 32 36 39 40 41 41 42 42 43 43 43 42 42 43 44 44 43 44 43 43 45 45 45 47 49
27 28 36 38 36 36 36 27 21 15 20 22 21 23 21 22 26 29 31 34 37 40 41 41 41 41 42 42 41 41 41 42 42 43 44 46 47 47 47 47 48 48 49 49
28 27 36 37 40 38 35 30 28 22 19 19 21 19 25 28 29 31 33 35 35 40 41 40 41 41 42 41 41 40 40 40 40 40 43 45 45 46 47 47 47 48 48 49
33 27 35 37 40 38 36 34 26 26 14 16 18 17 18 26 28 29 31 32 35 40 40 39 40 39 42 41 40 39 39 38 38 39 42 42 42 42 41 41 40 42 44 46
34 30 31 36 33 34 33 31 29 27 23 15 12 13 17 25 26 27 31 33 36 38 39 38 37 38 41 40 39 38 38 37 37 39 40 40 40 39 39 38 37 36 38 39
32 31 29 32 36 37 36 33 29 25 23 20 18 15 19 23 24 26 32 34 36 40 37 36 36 37 39 38 37 37 37 37 38 38 38 38 38 37 37 36 36 35 34 34
30 28 25 27 29 33 33 34 34 28 27 22 15 15 21 25 27 30 31 33 38 39 36 35 36 37 37 36 36 37 37 37 37 37 37 36 37 36 36 36 36 36 35 35
30 28 25 19 23 28 27 31 27 26 25 23 21 19 22 25 25 27 31 34 39 37 35 35 36 37 35 35 36 37 37 36 37 36 35 36 36 36 36 37 37 37 36 36
30 24 26 28 30 29 29 27 28 24 24 20 20 19 22 23 24 26 31 38 38 36 34 34 35 35 35 35 36 37 36 36 36 35 35 35 36 36 37 38 37 37 37 38
32 27 25 23 27 27 24 27 28 27 26 25 25 24 22 22 28 30 33 38 38 35 33 33 33 34 34 35 36 36 36 37 36 35 34 35 35 35 36 36 36 36 36 36
29 27 24 23 25 25 19 25 27 28 28 27 23 24 27 27 30 32 36 39 38 34 33 32 32 32 34 35 36 36 36 36 35 35 34 34 35 35 35 36 35 34 34 34
29 27 27 25 24 13 16 27 27 27 28 28 27 26 26 30 33 36 40 39 35 33 32 31 31 32 33 34 35 35 36 36 35 34 34 35 35 35 35 34 33 33 33 32
29 28 25 23 22 19 27 26 26 26 26 28 27 27 28 35 36 37 39 37 33 32 32 32 32 32 33 33 34 34 34 35 35 33 34 34 34 34 34 33 32 32 31 31
29 29 24 25 22 20 29 29 29 30 28 30 28 27 28 35 33 38 34 33 32 32 32 31 31 32 33 33 34 33 33 35 35 34 34 34 35 34 33 32 32 32 31 30
26 26 24 21 23 22 31 32 32 29 29 31 28 29 36 35 37 40 35 33 33 33 33 32 32 32 32 33 34 34 33 34 35 35 35 35 35 34 34 32 32 30 28 27
25 23 24 25 24 19 33 31 32 35 36 36 36 36 36 36 38 37 35 34 34 33 34 33 32 32 34 34 34 33 34 36 36 35 34 33 34 33 33 32 30 28 24 21
23 25 22 25 25 28 30 33 36 37 36 37 36 36 36 36 36 37 37 35 34 34 34 34 33 33 34 34 35 34 35 36 35 35 34 33 33 33 31 25 22 20 18 15
27 28 26 27 29 30 35 36 37 38 38 38 38 37 37 36 36 36 38 36 35 35 34 34 33 33 33 34 35 35 36 36 35 34 32 31 27 21 19 15 15 12 10 8
29 29 28 28 29 31 33 35 37 37 37 36 36 36 36 36 36 36 37 38 36 35 35 35 34 34 33 33 35 35 36 35 34 31 26 17 14 14 16 20 13 13 19 16
30 29 29 29 32 31 34 36 37 36 36 35 35 35 35 35 35 36 36 38 37 36 35 34 35 34 34 34 35 35 35 34 32 27 15 14 14 11 16 20 23 24 23 23

GFSCGP_sfc_30mbdewp_066.txt.gz
Dewpoint
44 38 33 35 36 34 35 31 32 32 32 33 33 32 31 31 29 29 30 31 30 29 30 31 32 31 33 37 36 36 37 38 55 63 63 63 63 63 63 64 64 65 65 63
40 34 35 36 37 35 35 31 31 30 32 32 31 31 32 32 30 29 30 30 29 29 30 32 32 38 39 40 40 39 38 37 37 42 47 61 63 64 64 64 64 64 64 64
35 34 36 35 36 35 33 32 30 27 29 29 29 29 30 32 31 30 29 29 29 27 31 35 38 40 42 43 43 44 43 40 38 37 38 41 47 62 63 63 64 64 64 64
36 37 36 35 35 35 31 30 29 28 28 26 27 23 24 29 29 30 29 28 27 29 35 38 40 42 43 44 45 45 45 43 41 41 38 37 38 40 50 52 58 59 62 63
35 35 35 35 34 33 30 28 27 28 28 26 25 23 22 23 26 27 27 26 25 35 38 40 41 44 45 45 44 43 43 43 43 42 42 40 39 40 41 42 42 43 48 57
38 40 39 37 39 38 37 30 30 30 29 24 24 23 20 20 23 26 26 25 27 36 39 41 43 44 43 43 43 43 42 43 43 43 43 43 42 41 41 43 44 45 48 52
36 36 39 40 35 37 35 27 26 25 26 23 25 24 22 21 24 26 27 33 37 39 41 42 42 42 42 42 42 42 42 43 43 45 46 47 47 46 47 47 48 48 48 49
28 28 36 38 36 35 34 27 22 19 20 21 22 22 24 26 26 26 32 35 38 40 41 41 41 42 42 41 41 41 41 41 41 43 45 46 47 47 47 48 48 48 48 49
27 28 37 38 39 38 35 31 28 20 21 20 20 22 22 28 26 29 32 35 38 40 41 41 41 41 42 41 40 40 40 39 40 43 43 43 42 42 42 42 42 44 46 47
30 26 34 37 39 38 37 34 26 25 16 17 18 18 19 25 27 30 32 35 37 41 41 40 40 41 42 41 39 39 38 38 39 40 41 40 40 39 38 37 37 37 39 40
32 29 31 36 34 33 35 32 29 26 21 16 14 16 19 25 28 31 33 34 35 40 40 39 39 40 41 40 38 38 37 37 38 39 39 38 38 37 37 36 36 35 35 35
34 31 28 30 36 38 36 33 28 23 22 19 16 13 20 24 29 31 32 33 36 39 39 37 37 39 39 38 37 37 37 37 38 38 37 37 37 36 36 36 36 35 35 35
32 28 25 27 30 35 35 34 33 28 26 21 15 11 22 24 26 30 32 34 37 39 37 36 36 38 38 36 37 37 37 37 37 36 36 36 36 36 36 36 36 36 35 35
31 28 24 20 23 29 29 33 32 31 26 24 22 19 21 25 27 30 33 34 39 38 36 35 36 37 36 36 37 37 36 37 36 35 35 36 36 36 38 37 37 37 38 37
27 25 26 29 30 28 28 31 30 29 30 27 26 21 20 25 28 29 31 34 38 37 35 35 36 36 35 36 37 36 36 36 35 35 35 35 36 37 37 36 36 37 37 37
31 25 24 24 28 26 24 28 30 27 25 25 25 23 25 25 26 27 30 36 38 37 35 34 34 35 35 36 36 36 36 35 35 35 34 35 35 36 36 36 36 36 36 36
28 27 22 19 25 24 19 23 26 28 28 26 23 24 25 24 26 29 33 38 38 37 34 33 33 34 35 36 36 36 36 36 35 34 34 35 36 35 35 35 35 34 34 34
28 25 26 24 23 13 14 27 26 27 29 28 27 26 27 27 30 33 36 38 39 36 33 32 32 32 34 35 36 36 36 36 35 34 35 35 35 35 35 34 33 33 32 32
30 28 25 22 21 20 23 27 26 26 24 29 28 28 27 32 35 36 40 40 37 34 33 32 31 32 34 35 35 35 35 35 35 34 35 35 35 34 34 32 32 32 31 30
29 28 24 25 21 17 27 29 29 29 24 29 29 28 30 35 31 33 35 34 33 32 32 32 32 33 33 34 35 34 34 35 34 34 34 35 35 35 33 32 32 32 29 29
27 27 24 23 22 23 25 32 32 25 25 33 30 29 32 34 35 39 34 33 32 32 32 31 32 32 33 34 34 33 34 35 35 34 34 35 35 34 33 33 31 29 29 28
25 25 24 24 21 19 33 32 30 33 36 34 33 35 36 37 39 36 35 34 33 33 33 32 32 32 33 34 34 33 34 35 35 35 35 34 34 34 33 30 29 27 24 23
23 23 22 24 23 26 31 31 35 37 36 36 36 37 37 36 37 38 36 34 34 34 34 33 32 33 34 34 34 33 35 36 35 35 34 33 33 33 32 30 28 27 24 18
27 28 26 27 27 28 33 36 37 37 37 38 38 37 36 36 36 37 38 36 35 34 34 34 33 33 33 34 35 35 36 36 35 34 33 32 32 32 30 23 18 16 13 12
28 29 27 27 29 30 33 36 37 37 37 37 36 36 36 36 36 36 37 38 36 35 35 34 33 33 33 34 35 36 36 36 34 34 32 31 29 26 17 15 11 12 14 10
30 29 28 27 30 30 30 34 37 36 36 36 35 35 35 35 35 35 36 37 38 36 35 35 34 34 34 34 35 35 36 35 34 32 29 24 17 15 17 21 20 22 23 23

GFSCGP_sfc_30mbdewp_069.txt.gz
Dewpoint
43 37 30 35 37 34 33 32 31 32 33 34 34 32 31 31 30 30 31 32 32 31 30 32 32 33 36 37 36 38 45 44 59 63 63 63 62 63 63 64 64 64 64 62
40 32 32 37 37 34 33 31 31 32 33 34 32 32 32 32 32 30 29 30 31 30 30 31 36 37 39 39 39 38 38 37 38 47 56 62 63 63 63 63 63 64 64 64
34 36 36 36 36 34 34 30 30 30 30 30 30 30 31 32 32 32 31 30 30 30 30 33 37 39 42 42 43 44 43 39 38 37 39 41 45 60 62 62 63 63 64 64
37 36 35 36 35 35 32 32 30 29 28 28 29 25 26 30 30 31 31 30 29 28 32 36 39 41 42 44 45 44 44 43 42 41 38 37 37 39 46 50 50 46 52 58
34 35 34 34 35 34 31 31 30 29 28 26 26 26 25 23 28 29 31 30 28 29 34 38 41 43 45 44 43 43 43 43 43 43 41 40 38 40 41 42 41 43 46 53
38 40 38 37 38 35 35 30 30 30 28 24 25 25 24 22 22 25 29 29 27 33 38 41 43 44 43 43 43 43 43 44 45 45 44 43 42 41 42 45 46 47 49 50
36 36 39 39 35 37 33 28 26 25 25 23 25 24 25 24 23 24 24 27 26 37 40 42 43 42 42 42 41 42 42 42 44 46 46 47 47 47 47 47 47 47 48 48
30 28 36 38 35 33 32 27 23 18 20 22 24 23 24 26 27 26 27 28 31 38 41 42 42 42 42 41 41 41 41 40 43 45 44 45 46 46 46 46 46 46 47 48
28 29 37 39 39 37 34 30 26 20 21 20 21 22 22 24 26 25 30 34 37 40 41 41 42 42 42 41 40 40 39 39 42 42 42 41 40 40 40 39 39 41 42 44
29 27 34 37 37 38 36 34 26 23 17 17 19 19 17 23 25 27 31 36 39 40 41 41 41 41 41 40 39 39 38 39 40 40 40 39 38 38 37 37 36 36 36 36
30 29 31 37 34 32 35 33 30 26 20 17 15 15 20 18 24 28 32 36 39 40 40 40 40 41 41 40 38 38 38 38 38 38 38 37 37 37 36 36 36 35 35 35
32 30 27 31 35 37 37 34 29 24 22 20 16 17 19 21 26 31 33 36 38 41 40 40 39 41 40 38 37 37 37 38 38 37 37 37 37 37 36 36 36 35 35 35
32 29 25 27 31 35 35 36 32 27 24 20 19 18 21 24 29 32 32 35 36 40 39 38 37 39 39 37 37 37 37 37 37 36 36 36 36 37 36 37 37 37 37 37
31 28 23 20 22 29 31 35 34 29 25 23 21 21 20 22 26 30 32 34 36 38 38 37 36 38 38 36 37 37 37 36 36 36 36 36 36 38 37 36 37 37 38 37
28 25 26 28 30 28 30 31 33 31 30 26 26 24 23 22 24 29 32 34 38 38 37 36 36 36 36 36 37 36 36 36 35 35 35 35 36 37 37 36 36 36 36 36
29 24 25 24 28 26 24 28 32 33 31 30 29 26 25 24 27 29 32 34 36 38 37 36 36 36 35 36 36 36 36 35 35 35 34 35 36 36 36 36 36 35 35 36
27 26 21 17 25 23 17 21 26 31 29 29 28 30 25 23 26 28 29 34 36 37 37 35 35 35 35 36 36 36 36 35 34 34 35 35 36 36 35 35 34 34 34 34
27 24 24 23 22 15 16 26 26 26 29 29 27 27 26 25 25 28 31 32 36 38 36 34 34 34 35 36 36 36 36 35 35 35 35 35 35 35 35 34 33 32 33 32
29 27 24 21 21 20 20 26 26 25 23 28 29 29 27 30 34 34 37 39 38 38 35 33 33 33 35 35 36 36 36 35 35 34 35 35 35 35 34 32 32 32 31 29
29 28 24 24 20 14 23 29 28 28 24 32 29 29 28 34 29 32 37 37 36 34 33 32 32 33 34 35 36 35 35 34 34 34 35 35 35 34 33 32 32 30 28 28
27 27 24 24 23 22 25 30 31 24 23 35 31 30 31 33 33 35 35 34 33 32 32 32 32 32 33 35 34 34 34 34 35 35 35 35 35 34 33 33 31 28 28 27
25 24 25 24 22 17 29 32 28 30 36 35 31 31 33 37 38 35 34 33 33 33 32 32 32 32 33 34 34 33 34 36 35 34 35 35 35 33 33 31 29 28 27 26
23 25 23 24 23 25 29 32 33 37 36 36 36 37 37 38 38 36 35 34 34 34 34 33 32 32 33 34 34 33 34 36 35 35 34 34 34 33 32 28 27 25 23 20
27 28 25 26 26 28 29 34 37 37 37 38 37 37 36 36 37 38 37 36 35 34 34 34 33 32 33 34 34 33 35 35 35 34 33 33 33 32 31 29 27 26 22 19
28 28 27 27 28 30 31 35 36 38 38 37 36 36 36 36 37 39 41 42 41 37 35 34 33 33 33 34 34 35 36 35 34 34 33 32 32 32 30 25 18 16 14 13
30 29 27 26 28 28 29 33 37 37 37 36 35 35 35 35 35 35 36 37 38 37 36 35 34 33 33 34 35 35 36 35 34 33 32 31 31 28 22 17 18 20 19 24

GFSCGP_sfc_30mbdewp_072.txt.gz
Dewpoint
38 35 31 36 36 33 33 33 33 32 38 36 37 37 33 43 43 41 39 33 32 33 31 31 32 32 35 37 38 41 55 51 62 63 63 63 63 63 63 64 64 64 63 62
38 32 34 37 37 33 34 31 31 32 36 35 34 35 37 38 38 35 32 31 31 32 30 31 33 36 37 38 38 38 38 37 42 55 60 62 62 62 63 63 63 63 64 64
33 35 36 36 36 33 32 31 31 30 33 31 33 34 37 38 39 34 32 30 30 31 30 31 36 38 40 41 42 42 41 39 39 38 39 41 45 57 60 61 62 62 62 63
37 37 35 35 35 34 31 32 30 30 31 29 31 27 31 34 33 33 32 32 31 30 30 33 37 40 42 44 44 44 43 42 42 41 38 36 37 38 44 47 46 44 46 53
35 35 36 35 35 33 31 31 30 29 28 27 27 27 27 25 29 31 31 32 31 30 30 34 39 42 44 43 42 43 43 43 43 43 41 40 39 40 41 42 43 45 49 50
36 39 38 36 36 34 32 30 30 30 28 25 26 26 25 24 24 24 28 31 31 30 31 38 43 44 43 43 42 43 43 44 46 46 45 44 42 41 42 45 46 48 49 49
36 37 39 37 35 37 30 28 26 25 24 23 25 25 25 26 24 24 23 26 30 30 35 40 43 42 42 41 42 42 42 42 45 46 46 47 47 47 47 47 47 47 47 48
30 28 36 38 34 33 31 27 23 17 20 22 24 23 24 26 27 26 26 27 27 32 39 42 43 42 42 41 41 41 40 42 44 44 43 43 44 44 43 43 44 44 45 46
29 29 38 39 39 35 33 31 25 21 21 20 22 23 22 23 24 26 26 30 29 36 40 42 42 42 41 41 40 40 39 42 42 42 41 40 39 39 38 38 38 38 37 38
30 29 35 36 38 38 34 31 27 23 17 15 18 19 17 18 20 24 26 32 34 39 41 41 41 42 41 40 40 39 39 40 40 40 39 38 37 37 37 37 36 36 36 36
30 29 32 35 33 33 34 31 29 26 20 17 16 15 21 19 18 20 27 34 37 39 41 41 41 42 41 39 38 38 38 39 38 38 38 37 37 36 36 36 36 35 35 36
31 28 28 30 35 36 36 34 28 24 22 20 16 18 19 21 22 27 30 36 39 40 41 41 41 41 40 38 38 37 38 38 37 37 37 37 37 36 36 36 36 36 36 36
31 27 25 27 30 34 34 34 33 27 24 21 21 20 19 24 28 32 32 36 39 40 40 40 39 40 39 38 37 37 37 37 37 37 36 36 37 36 36 36 37 37 37 37
31 27 24 19 21 30 31 33 34 31 29 25 23 22 22 23 23 29 32 35 37 40 40 38 38 39 39 37 37 37 37 36 36 36 36 36 37 37 36 36 36 36 37 36
29 26 26 26 29 29 30 31 33 32 31 28 27 25 25 25 24 25 31 34 36 37 38 38 37 37 38 37 37 36 37 36 36 35 35 36 37 37 37 36 36 36 36 36
28 24 25 25 28 27 26 29 32 33 32 31 30 30 27 26 26 27 29 34 36 37 37 37 37 36 37 36 36 36 36 36 35 35 35 36 36 36 36 36 36 35 35 36
26 25 22 19 25 24 19 22 26 31 32 32 30 31 29 28 26 27 30 33 35 37 38 37 36 36 36 36 36 36 36 35 35 34 35 35 36 36 35 35 34 34 34 35
26 24 22 21 21 15 17 25 26 27 30 32 31 29 29 29 26 27 31 33 35 36 37 37 36 35 36 36 36 36 36 35 34 34 35 35 35 35 35 34 33 33 33 32
27 26 23 20 21 19 20 26 26 25 24 27 30 30 29 27 31 29 31 32 32 36 38 37 35 35 35 36 36 36 36 35 35 35 35 36 35 35 34 33 33 32 31 28
29 27 24 24 20 12 18 30 28 28 23 30 32 30 30 32 27 27 37 38 38 37 35 34 33 34 35 36 36 36 35 35 34 35 35 35 36 34 33 33 32 30 28 27
27 27 25 24 23 23 24 26 30 24 23 34 33 30 30 31 31 34 36 35 34 33 33 32 33 33 34 35 35 35 34 34 34 35 35 35 35 34 33 33 30 27 28 26
25 24 25 24 23 19 25 31 28 28 35 36 34 30 31 35 37 35 34 33 33 32 33 32 32 32 34 35 35 34 34 35 35 35 35 35 35 34 33 32 29 28 27 26
24 24 24 25 23 25 27 32 32 36 36 36 36 36 35 38 36 35 35 34 33 33 33 32 32 32 33 34 34 33 33 35 35 34 35 35 34 33 32 30 28 27 25 24
27 27 25 25 25 26 27 29 33 37 37 37 37 37 37 37 37 37 36 35 34 34 34 33 33 32 33 33 34 34 34 35 35 34 34 34 33 33 31 29 27 25 23 20
28 28 27 26 27 28 29 31 34 37 38 37 36 36 36 37 38 39 40 40 40 39 38 37 36 33 33 33 34 34 35 35 34 34 33 33 33 33 31 29 26 25 23 21
30 28 26 25 27 27 28 32 35 37 37 37 36 35 35 36 36 36 36 36 37 38 36 35 34 34 33 33 34 34 36 35 34 34 33 32 32 31 31 29 24 23 21 20

GFSCGP_sfc_30mbdewp_075.txt.gz
Dewpoint
38 34 33 36 36 32 34 32 32 36 40 39 39 37 39 42 43 40 42 42 39 37 34 32 32 32 38 39 44 52 61 61 63 63 63 63 62 63 63 63 63 62 62 62
35 32 35 37 36 33 34 32 32 32 38 37 37 36 37 42 41 43 43 42 38 35 33 32 32 35 36 37 39 41 47 46 55 62 63 63 63 63 63 64 64 64 64 64
32 35 37 37 36 33 32 31 31 30 36 35 34 33 36 38 40 41 43 41 39 32 32 31 33 36 39 40 41 40 39 39 39 41 44 46 49 57 60 62 62 56 57 61
35 39 36 35 34 33 31 32 31 31 33 30 33 26 33 36 38 40 40 39 38 32 31 32 34 38 40 43 45 43 43 42 42 41 38 37 38 40 45 47 46 45 50 52
34 36 35 34 34 34 32 32 30 31 29 28 28 28 28 33 35 36 40 38 37 33 32 31 35 40 43 44 43 43 43 44 44 43 42 40 39 40 42 44 45 47 50 50
36 40 39 35 37 33 32 31 31 30 29 27 28 29 27 26 32 35 35 35 35 33 32 32 39 43 43 43 43 44 44 45 46 46 46 44 43 42 43 46 47 48 49 49
35 37 39 38 35 35 30 30 27 25 26 23 25 26 27 27 25 26 27 29 31 32 31 35 41 43 42 42 43 43 43 45 46 46 47 47 47 47 47 47 46 46 47 47
29 27 37 37 35 31 29 27 22 18 20 22 25 23 23 27 27 27 26 26 27 29 32 37 42 43 42 41 42 41 43 44 44 44 43 43 44 43 42 42 44 43 43 44
30 29 38 39 38 35 32 28 24 21 20 20 22 23 22 23 24 25 26 27 28 28 36 40 43 42 41 41 41 40 42 43 42 42 41 40 39 39 39 38 38 38 37 38
32 28 35 37 37 37 33 30 26 23 17 15 17 18 15 18 18 19 20 26 31 34 39 42 42 42 41 41 40 40 41 41 41 40 39 38 37 37 37 37 36 36 36 37
30 30 32 34 33 32 32 30 28 25 20 17 15 15 21 19 18 20 22 26 33 37 40 42 42 42 41 40 39 38 39 39 39 38 38 37 37 37 36 36 36 36 36 36
30 30 29 32 35 36 36 32 27 24 22 19 17 18 19 19 23 25 28 33 37 39 41 41 41 41 40 39 38 38 38 38 38 37 37 37 37 37 36 36 36 37 37 37
30 27 25 26 29 33 33 35 29 26 24 21 20 20 19 23 26 31 31 36 39 40 41 41 41 41 40 38 38 37 38 38 37 37 37 37 37 36 36 37 37 37 36 36
30 27 22 18 20 29 30 33 32 31 28 24 23 23 24 24 24 25 31 34 38 40 40 40 40 40 40 38 37 37 37 37 37 36 36 36 37 37 36 37 37 37 36 35
29 25 25 25 26 30 30 30 32 31 30 26 25 25 26 27 27 26 26 32 36 39 40 39 39 39 39 38 37 37 37 36 36 36 36 36 37 37 37 37 36 36 36 35
27 25 27 26 29 28 27 29 31 33 32 29 29 28 30 30 28 26 27 30 34 37 40 39 38 38 39 38 37 37 37 36 36 35 35 36 37 36 37 37 36 36 36 36
26 24 23 19 25 24 19 23 26 31 32 32 29 30 32 32 32 32 30 30 32 36 37 38 38 37 37 37 37 36 36 36 35 35 35 36 36 36 36 36 35 35 35 35
26 23 22 20 21 14 18 25 25 25 28 33 33 33 32 32 32 31 29 30 33 36 37 38 38 37 37 37 37 37 36 35 35 35 35 36 36 35 35 34 34 34 33 31
26 25 22 20 20 19 20 26 25 25 24 27 31 32 33 32 29 29 31 30 33 35 37 38 37 37 36 36 37 36 35 35 35 35 35 36 36 35 34 33 33 33 31 28
28 27 23 23 19 12 15 30 28 27 24 29 32 32 31 30 28 29 31 34 35 36 37 36 35 35 35 36 36 36 35 35 35 35 35 36 36 35 34 34 33 32 29 27
27 27 25 23 22 22 24 25 29 23 22 32 34 32 30 30 31 33 36 36 35 34 34 33 34 34 35 36 36 35 35 35 35 35 36 36 36 35 34 33 31 29 28 26
25 24 25 25 24 19 25 31 27 26 33 36 35 33 30 33 37 35 34 34 33 33 33 33 33 33 35 36 36 35 35 35 35 35 35 36 35 34 34 32 29 29 27 25
24 24 24 24 23 25 26 32 32 34 35 36 36 36 33 37 36 35 34 33 33 33 33 33 33 33 34 35 35 34 34 35 35 35 35 35 34 34 33 31 28 27 26 25
27 27 25 24 24 26 27 27 29 33 35 37 37 37 37 37 36 36 35 35 34 34 34 33 33 32 33 34 34 34 34 35 35 34 34 34 34 33 32 31 29 27 25 24
27 27 26 26 27 27 28 30 31 34 38 37 37 37 37 38 37 37 37 36 36 36 36 35 34 33 33 33 34 34 34 35 35 34 34 34 34 34 31 30 28 27 24 22
30 28 26 25 27 27 27 32 34 36 37 37 36 35 35 37 36 37 37 37 38 39 39 39 38 38 38 36 34 34 34 35 34 34 33 33 33 33 32 31 29 29 27 26

GFSCGP_sfc_30mbdewp_078.txt.gz
Dewpoint
39 34 33 31 29 26 31 30 30 33 41 38 37 36 37 37 37 37 36 37 39 40 39 37 33 34 51 54 57 62 63 64 64 64 63 63 63 64 64 64 64 64 62 61
36 32 36 34 32 29 30 29 29 33 38 36 35 35 35 34 37 38 37 35 38 40 39 36 35 33 37 47 48 53 59 62 63 64 64 64 64 64 63 64 64 64 64 65
32 36 37 34 33 29 29 27 29 29 36 36 34 32 33 34 37 38 38 38 39 40 40 36 34 34 37 38 40 43 48 51 54 60 60 59 59 62 63 64 64 59 59 62
34 38 36 34 29 28 29 30 31 32 31 25 32 20 28 31 35 37 36 36 40 40 40 36 33 34 38 40 45 43 42 43 43 42 44 48 51 52 51 52 51 48 50 52
34 36 35 32 30 30 26 32 30 29 26 28 30 26 23 31 31 33 35 36 39 41 40 35 34 36 40 45 45 44 44 44 44 43 42 41 40 41 42 43 44 46 50 50
37 39 38 32 36 33 33 31 31 31 29 24 25 25 21 25 29 30 32 35 38 41 38 36 35 40 43 45 45 46 45 45 46 46 45 45 44 43 43 46 46 47 49 49
36 35 39 38 34 32 32 28 26 24 24 20 26 26 23 26 28 27 31 34 35 37 39 36 36 40 43 44 45 45 45 45 46 47 47 47 47 47 47 47 47 47 47 48
30 27 35 37 35 31 30 26 22 16 18 18 26 23 22 26 27 28 28 27 32 34 36 35 35 40 42 44 44 43 44 45 45 45 45 46 46 45 45 45 45 44 44 44
30 29 38 37 38 35 31 28 25 23 22 21 21 23 22 21 23 25 25 28 29 28 29 32 35 41 42 43 43 42 44 44 44 43 43 42 42 43 42 41 41 40 40 39
33 29 36 37 38 36 32 29 26 27 19 15 16 17 12 18 18 20 20 22 26 31 31 35 40 42 42 42 42 42 42 42 42 42 41 40 40 40 39 39 39 39 38 39
32 31 33 34 33 30 31 29 29 25 22 15 11 11 19 19 20 23 26 28 29 33 35 38 41 42 41 41 41 41 41 41 40 40 39 39 38 38 38 38 38 38 38 38
31 31 30 33 35 36 34 31 28 24 23 22 19 14 19 20 23 27 29 33 36 36 38 40 42 42 41 40 40 40 40 39 39 39 38 38 38 38 38 37 37 38 38 37
30 29 27 28 30 33 32 33 31 28 27 25 19 15 20 22 26 30 30 33 36 38 40 41 42 41 40 40 39 39 39 39 38 38 38 38 38 38 37 38 38 37 37 37
31 27 25 22 24 29 29 30 32 30 29 24 22 19 21 22 24 26 27 31 36 37 40 41 41 41 41 40 39 39 39 38 38 38 38 38 38 38 38 38 38 37 37 36
30 28 26 25 25 31 30 30 31 31 30 25 23 21 23 23 23 26 28 28 33 37 39 40 41 41 41 40 39 39 38 38 38 37 37 38 38 38 38 37 37 37 36 36
29 27 29 27 29 29 28 28 29 31 30 29 28 28 28 28 29 30 30 30 30 35 39 40 41 41 41 40 39 38 38 38 37 37 37 37 37 37 38 37 37 37 36 37
28 27 26 23 25 25 22 25 27 28 30 30 28 28 29 30 30 32 32 33 32 31 35 40 40 40 40 40 39 38 38 37 37 36 36 37 37 37 37 36 36 36 36 37
27 26 24 22 22 18 19 25 25 24 25 27 30 30 30 31 32 33 33 33 32 32 32 37 40 40 40 39 39 38 37 37 36 36 36 36 37 37 36 36 35 35 35 34
27 26 24 21 20 19 19 25 24 23 21 26 27 29 31 32 33 32 33 31 29 31 34 36 39 39 39 38 38 37 37 37 36 36 36 36 37 36 36 35 35 35 33 31
28 27 24 23 20 14 16 30 28 28 23 30 32 33 32 32 28 29 33 33 32 34 37 38 38 38 38 37 37 37 36 36 36 36 36 37 37 36 35 35 34 33 32 30
27 27 25 23 21 20 24 26 29 21 22 31 35 34 32 30 31 34 36 36 36 36 36 36 36 36 37 37 37 36 36 36 36 37 36 36 37 36 35 35 33 32 30 30
24 24 24 25 23 19 27 29 25 26 32 34 36 36 32 32 35 36 35 35 35 35 35 35 35 35 36 37 37 37 37 37 37 36 36 36 36 35 35 34 32 31 29 27
23 24 23 24 23 26 26 30 31 33 33 35 37 37 34 34 37 36 35 34 34 34 34 35 35 35 36 37 37 36 37 36 36 36 36 36 36 34 34 32 31 30 29 24
27 28 25 24 24 26 27 27 29 31 32 35 38 37 36 37 37 36 35 35 34 34 34 34 34 34 34 35 36 36 36 36 35 35 35 35 35 34 33 32 30 29 26 23
27 28 27 26 27 27 28 29 30 32 34 37 37 37 37 38 37 37 36 36 36 35 36 35 34 33 34 34 34 35 35 35 35 34 35 35 34 34 33 32 31 30 26 24
29 29 27 26 28 27 27 30 35 33 36 38 37 36 36 38 38 40 39 38 40 40 40 39 38 37 37 36 35 35 35 36 35 34 34 34 34 34 33 32 31 31 28 28

GFSCGP_sfc_30mbdewp_081.txt.gz
Dewpoint
38 34 32 31 27 21 22 22 21 24 34 36 35 35 36 37 38 38 37 36 37 38 40 38 36 38 53 62 62 63 63 63 63 63 63 63 63 63 64 63 63 63 63 62
35 32 37 31 26 29 25 30 29 32 35 34 31 31 32 34 36 36 35 35 36 37 39 38 36 35 38 54 56 60 62 63 63 63 63 63 63 63 63 64 64 64 64 63
33 35 37 33 29 30 27 26 27 28 32 34 30 28 31 33 33 33 35 35 35 36 37 40 37 36 36 43 48 50 56 61 62 63 64 63 63 64 64 64 63 63 61 63
33 38 35 32 26 24 24 25 27 29 31 27 31 17 23 29 31 32 35 35 36 36 37 40 37 34 36 37 43 43 46 50 51 55 58 60 60 59 57 58 58 54 53 54
34 36 35 30 27 26 23 27 27 29 28 22 27 24 20 26 26 29 32 34 35 34 37 40 38 36 37 42 46 44 43 44 44 44 43 44 43 42 43 43 44 45 49 50
36 39 38 34 30 30 32 30 28 27 24 23 23 23 16 22 25 25 29 31 33 35 38 40 38 37 40 46 47 46 44 44 45 45 44 44 44 43 43 45 45 46 48 49
35 35 38 39 32 33 28 26 24 22 23 19 22 20 19 24 25 27 27 29 30 33 37 41 38 38 40 45 46 46 45 45 46 46 46 46 47 46 46 46 46 46 46 48
29 26 37 36 33 31 26 24 20 14 15 15 24 20 20 24 26 27 28 28 30 33 37 41 38 38 41 44 45 45 45 45 45 46 46 46 47 46 45 46 46 45 44 45
29 29 36 38 37 34 29 25 26 23 22 19 20 20 21 20 21 23 25 27 28 29 32 34 38 37 40 43 44 43 44 44 44 44 44 44 44 44 44 43 43 42 41 40
31 28 36 35 38 35 33 29 22 27 19 11 15 15 13 17 19 22 22 22 23 28 30 31 34 36 41 43 43 43 43 43 43 43 42 42 41 41 41 41 40 40 39 39
32 30 32 34 36 32 31 29 28 25 22 15 8 10 16 20 23 25 26 29 29 28 31 33 36 40 42 42 42 42 42 42 42 41 40 40 39 39 39 39 38 38 39 39
31 31 30 31 34 34 34 28 27 24 21 20 19 15 20 21 25 28 28 33 34 34 35 36 39 41 41 42 41 41 41 41 41 40 39 39 39 39 39 38 38 38 38 38
30 30 27 29 31 32 31 30 29 26 30 26 18 14 21 21 23 29 28 29 33 35 37 38 40 41 41 41 40 40 40 40 40 39 39 39 39 39 38 38 38 38 38 37
31 28 27 23 26 28 28 28 29 30 29 23 22 20 19 21 24 27 26 27 29 35 38 39 40 40 40 40 40 40 39 39 39 39 38 39 39 39 38 39 38 38 37 37
31 30 27 26 25 32 31 28 28 30 30 25 23 20 21 21 21 23 25 28 29 33 37 39 40 40 40 40 40 39 39 39 39 38 38 38 39 39 38 38 38 38 37 37
31 30 30 27 27 28 27 27 27 28 28 29 28 26 26 27 26 26 27 28 29 30 34 38 40 40 40 40 40 40 39 39 39 38 38 38 39 38 38 38 38 37 37 37
29 29 27 23 24 24 21 24 26 26 27 28 27 27 28 27 27 29 29 31 32 32 31 36 39 40 41 41 41 40 39 39 38 38 38 38 38 38 38 38 37 37 37 37
28 27 26 24 22 18 20 24 23 23 25 26 26 27 27 28 29 30 31 32 33 33 33 33 36 39 41 41 41 40 39 38 38 38 37 37 37 37 37 37 36 36 36 36
27 25 23 21 19 18 18 21 22 22 19 23 24 25 30 31 32 31 32 32 33 31 30 31 32 37 40 41 40 39 38 38 38 38 37 37 37 37 37 36 36 36 35 33
29 27 25 23 19 16 19 29 28 28 20 30 31 32 32 31 28 28 34 35 34 32 33 36 36 39 40 40 39 38 38 37 37 37 37 37 38 37 36 36 36 35 34 32
27 26 24 23 22 20 21 28 28 20 23 30 33 34 34 31 30 33 36 36 36 36 37 38 39 38 39 38 38 38 37 37 37 38 37 37 37 37 36 36 35 33 32 31
22 22 22 22 21 20 28 27 22 27 30 31 32 34 36 33 32 36 36 36 36 36 36 37 37 37 37 38 38 38 38 38 38 38 37 37 37 37 36 35 33 32 31 30
22 21 21 21 21 27 27 26 29 30 31 31 33 35 37 33 35 37 36 35 35 35 36 37 37 37 37 38 38 38 39 38 37 37 37 36 36 36 35 34 32 31 30 29
26 26 25 25 23 24 25 26 27 27 29 31 31 36 38 35 37 37 36 36 35 35 35 35 35 35 36 37 37 37 38 37 36 36 36 36 35 35 34 33 32 31 30 30
28 28 26 26 27 28 28 28 28 28 30 32 35 37 37 38 38 37 36 36 36 36 36 35 35 35 35 35 35 36 36 36 36 36 35 35 35 35 33 33 31 31 31 29
31 29 27 26 27 28 27 29 34 34 33 33 36 37 37 39 38 38 39 40 41 41 41 40 39 37 36 35 35 35 36 36 36 36 36 35 35 35 33 32 32 33 32 29

GFSCGP_sfc_30mbdewp_084.txt.gz
Dewpoint
37 32 31 36 33 30 32 27 29 31 38 38 38 38 38 40 39 39 39 39 38 39 43 39 38 40 56 62 62 62 63 63 63 63 63 63 63 63 63 63 62 62 63 62
35 31 37 36 32 27 27 27 29 36 38 37 36 35 37 37 39 39 39 39 39 38 38 37 37 38 41 60 62 63 63 63 64 64 64 64 63 64 64 63 64 64 65 65
33 35 38 37 34 30 24 24 33 35 36 34 31 30 30 31 32 36 37 37 38 37 38 38 36 37 36 46 56 58 62 63 64 64 64 64 63 64 64 64 64 58 59 60
35 37 37 37 33 30 29 28 29 30 30 27 31 22 26 28 32 33 34 35 36 36 36 39 37 37 37 38 46 45 51 56 56 59 62 62 61 61 57 59 58 53 53 53
33 35 34 31 29 30 29 30 30 31 30 29 28 26 21 27 29 31 32 33 35 36 37 38 37 35 38 44 45 44 45 47 47 49 51 56 50 46 45 45 46 48 50 50
37 38 37 37 34 32 34 32 28 26 26 22 25 25 19 24 25 27 30 32 34 35 36 37 39 37 42 46 46 46 44 44 45 45 44 43 43 42 43 45 45 47 50 50
34 35 37 38 34 33 30 27 24 23 23 21 22 22 24 24 25 26 26 28 31 34 35 37 38 38 43 46 47 46 45 45 46 46 46 46 46 45 46 47 47 47 48 49
29 26 35 38 36 30 28 26 22 14 17 18 23 20 20 24 26 27 28 28 29 30 35 37 39 39 43 46 47 46 45 46 46 47 47 48 47 47 46 46 46 44 44 44
30 29 37 38 39 36 28 26 26 25 20 20 22 22 22 22 22 25 26 27 29 29 31 38 40 40 44 46 46 45 45 45 46 46 45 45 45 44 44 43 43 42 42 40
30 27 35 38 39 35 33 30 23 23 16 11 18 17 17 18 20 21 21 23 26 28 30 32 35 40 44 45 45 44 45 45 44 44 43 42 42 42 41 41 40 40 39 39
32 30 33 36 33 31 31 30 28 26 23 19 14 13 20 22 24 26 29 30 29 27 31 32 34 39 43 44 44 44 44 43 43 42 41 40 40 39 39 39 39 39 39 39
31 32 29 30 35 35 34 34 28 25 23 22 20 18 22 25 27 28 31 33 34 34 34 35 37 42 43 43 43 43 43 42 42 41 40 40 39 39 39 38 38 38 38 38
31 30 27 28 30 32 31 32 32 30 29 24 21 16 21 22 22 29 29 29 34 35 36 37 39 41 41 42 42 42 42 41 41 40 39 39 39 39 38 38 38 38 38 38
33 29 27 25 26 30 29 28 29 30 27 26 25 23 20 21 22 27 29 28 28 35 37 38 40 40 41 41 41 41 41 40 40 39 39 39 39 39 39 39 38 38 38 37
32 29 27 27 24 31 31 29 28 28 29 27 26 24 24 22 23 24 26 28 29 30 37 38 40 40 41 41 40 40 40 40 39 39 39 39 39 39 39 39 38 38 38 37
31 30 30 25 27 27 27 28 27 28 28 30 30 29 30 30 29 28 28 29 29 30 30 38 40 41 41 40 40 40 40 39 39 39 39 39 39 39 38 38 38 38 37 37
30 30 27 25 24 23 21 24 27 27 27 28 27 29 30 29 28 29 30 31 31 32 33 33 39 41 41 41 40 40 40 39 39 39 39 39 39 38 38 38 38 37 37 37
29 28 28 25 23 18 21 23 23 23 24 27 28 29 29 27 30 31 32 32 32 32 34 34 37 40 41 41 41 40 40 39 39 38 38 38 38 38 38 37 37 37 37 37
28 27 25 22 21 21 20 22 22 21 20 20 22 24 29 32 32 32 34 34 35 34 33 33 33 36 41 41 41 40 39 39 38 38 38 38 38 38 37 37 36 36 36 35
29 28 26 24 21 17 24 28 28 27 19 31 31 31 32 32 29 30 35 35 36 36 35 34 36 36 41 41 41 39 39 38 38 38 38 38 38 38 37 36 36 36 35 33
27 27 25 24 24 25 25 28 28 20 25 30 32 33 34 33 32 32 36 36 36 36 37 38 39 40 40 40 40 39 38 38 38 38 38 38 38 37 37 36 36 35 33 32
25 24 24 25 23 22 27 26 22 28 31 31 32 33 35 36 33 33 36 36 36 36 37 38 38 38 38 39 39 38 38 39 38 38 38 38 37 37 37 36 35 34 32 31
22 23 23 23 23 27 28 26 28 28 31 32 32 33 37 37 34 37 36 35 35 36 37 38 38 37 38 38 39 38 39 38 38 38 37 37 37 36 36 34 33 32 31 30
25 26 25 25 24 25 27 28 28 27 27 29 31 31 35 37 36 37 36 36 35 35 35 36 37 37 37 38 38 39 39 38 37 37 37 36 36 35 35 34 33 32 30 30
31 30 28 27 28 33 32 31 32 33 33 32 32 34 37 38 38 37 37 36 36 36 36 36 35 35 35 36 36 37 37 37 36 36 36 36 35 35 34 33 32 32 31 31
30 30 31 32 32 32 34 32 32 32 34 36 34 34 38 38 38 38 37 38 39 40 41 40 38 37 36 35 35 35 36 37 36 36 36 36 35 35 34 33 32 33 33 33

GFSCGP_sfc_30mbdewp_087.txt.gz
Dewpoint
35 33 30 34 36 36 33 32 31 34 41 40 40 39 40 41 40 39 39 39 39 42 42 39 43 48 58 62 64 64 65 64 65 64 64 64 63 63 63 63 63 63 63 63
33 31 35 36 34 35 32 32 31 34 38 35 36 35 39 39 39 38 38 39 39 39 41 39 39 39 46 61 63 63 64 63 64 64 64 64 64 64 64 65 64 65 65 65
31 35 38 37 34 31 32 30 32 31 38 39 37 34 34 37 39 39 39 39 39 39 39 38 38 38 40 55 61 62 63 63 64 64 64 64 64 64 63 64 60 59 60 59
33 37 37 34 32 31 28 33 36 35 33 31 35 27 31 33 34 38 38 38 39 39 39 38 36 37 36 45 54 55 61 63 63 64 63 62 61 60 60 63 58 55 54 53
34 36 36 35 34 34 31 34 35 37 31 32 30 26 22 28 30 31 33 36 36 36 37 38 37 37 36 43 46 48 52 56 55 59 62 61 58 55 53 53 52 50 50 50
36 39 38 37 38 36 38 33 33 32 29 22 28 26 21 26 28 30 33 34 34 35 36 37 38 38 38 44 45 45 46 46 49 48 50 53 48 46 45 45 46 48 49 49
31 34 36 39 32 37 37 27 26 24 21 19 24 26 25 24 27 28 29 32 33 34 36 36 38 37 44 46 46 45 46 46 47 45 45 44 43 43 43 45 46 48 49 48
26 22 35 37 37 33 34 27 20 16 19 17 23 20 20 24 26 28 28 28 29 30 34 36 39 38 44 46 46 46 45 46 46 46 47 47 47 47 47 47 47 46 47 44
28 28 36 38 39 36 29 25 26 25 21 19 21 22 22 25 26 26 26 26 27 29 31 36 39 39 43 45 46 45 45 46 47 47 47 46 46 45 45 44 43 42 41 40
30 28 34 38 37 35 32 31 22 23 14 15 21 19 16 19 20 21 22 23 26 28 31 36 39 41 44 45 46 45 46 46 46 45 45 44 44 43 42 42 41 40 40 40
32 29 32 35 32 32 31 28 28 26 23 18 14 14 20 21 24 26 29 31 30 29 30 32 37 42 44 45 45 45 45 45 44 43 42 41 41 40 40 39 39 39 39 39
32 31 27 30 34 35 34 33 31 23 21 22 19 17 24 26 27 29 31 32 33 33 34 34 35 42 43 44 44 44 44 44 43 42 41 40 39 39 39 38 38 39 38 38
31 29 25 27 30 32 31 32 33 30 28 23 21 15 23 27 28 30 30 32 34 35 35 36 39 42 43 43 44 44 43 43 42 41 40 39 39 39 39 38 38 38 38 37
32 29 25 19 24 29 29 30 31 30 26 25 24 23 21 21 21 24 29 28 32 35 36 37 39 41 42 42 43 42 42 42 41 40 40 40 39 39 39 38 38 38 37 37
32 28 27 27 26 29 31 29 29 28 29 26 26 26 25 26 24 27 27 28 28 34 37 38 39 40 41 42 41 41 41 40 40 39 39 39 39 39 39 38 38 38 38 37
31 29 28 24 26 26 26 27 27 29 29 29 29 28 29 30 31 30 29 29 29 29 35 38 39 40 40 41 41 40 40 40 39 39 39 39 39 39 39 38 38 37 37 37
31 29 27 24 24 23 20 21 26 27 27 28 27 29 31 31 31 29 29 30 31 31 32 33 38 40 41 41 41 40 40 40 39 39 39 39 39 38 38 38 38 37 37 37
29 29 28 25 23 17 19 23 24 26 27 28 28 29 29 29 31 32 34 33 33 34 33 34 35 40 41 41 41 40 40 39 39 39 39 39 39 38 38 37 37 37 36 36
28 27 25 23 22 21 22 23 23 22 20 28 22 30 32 32 32 31 35 35 34 35 36 35 34 35 41 41 41 40 39 39 39 39 38 39 38 38 38 37 37 36 36 36
29 28 25 24 21 17 22 27 28 27 18 30 31 32 33 33 28 29 33 36 36 36 36 37 39 38 37 42 41 40 39 39 38 38 38 38 38 38 37 36 36 36 36 35
26 27 24 24 23 24 27 28 28 18 20 30 32 33 33 33 33 33 34 36 36 36 36 37 39 40 40 41 40 39 39 38 39 39 38 38 38 38 37 36 36 35 35 34
24 24 24 25 23 20 28 26 21 23 30 31 32 33 33 36 37 34 36 36 36 36 37 38 38 38 39 40 40 39 38 39 39 39 38 38 38 38 37 36 35 35 34 33
20 22 22 24 24 27 28 26 27 28 28 29 32 32 33 34 37 35 37 36 35 36 36 38 37 38 38 39 39 38 38 39 38 38 37 37 37 37 36 35 34 33 32 32
29 30 25 26 25 32 33 33 33 34 33 33 31 31 32 32 36 37 37 35 35 35 35 37 37 37 37 38 39 39 38 38 38 37 37 37 36 36 36 35 34 33 32 31
30 30 29 29 31 33 36 34 34 34 35 35 35 35 35 35 37 38 37 36 36 35 35 35 36 36 36 37 37 39 38 38 37 37 37 36 36 36 35 34 33 33 32 32
31 32 31 30 33 34 33 34 35 36 36 37 37 37 37 38 37 38 38 37 38 38 38 38 36 35 35 35 35 37 37 37 37 36 36 36 36 36 35 34 33 35 34 34

GFSCGP_sfc_30mbdewp_090.txt.gz
Dewpoint
36 32 29 33 36 36 33 32 32 37 41 38 39 38 39 43 44 43 40 40 42 43 43 47 58 60 62 64 63 64 64 64 64 65 65 64 64 63 62 62 63 62 62 62
34 30 34 35 36 34 31 31 32 37 39 37 39 38 41 44 44 45 40 39 40 40 42 40 45 55 60 62 63 64 64 64 64 64 65 64 64 64 64 64 64 64 64 64
32 35 37 36 36 34 32 31 31 35 39 39 35 34 35 40 42 42 40 39 39 39 39 41 39 41 48 61 62 63 64 64 64 65 65 63 64 63 63 62 62 63 63 62
35 38 35 36 33 31 29 33 31 36 36 31 37 27 32 32 33 37 38 39 39 39 40 40 39 39 39 52 62 63 63 64 64 64 64 62 61 60 61 62 59 58 57 56
33 36 36 34 34 33 32 35 34 36 34 34 35 31 26 28 31 33 36 39 39 39 39 39 39 38 38 40 56 60 61 63 63 64 63 62 61 61 58 60 58 55 53 51
36 38 38 37 38 36 37 35 35 35 34 27 29 30 22 25 30 32 33 35 38 38 38 38 39 38 37 40 49 53 57 59 57 59 62 61 60 56 56 55 53 51 49 49
33 34 37 39 35 36 35 33 27 26 25 21 27 29 26 26 26 30 30 32 34 35 36 36 37 38 38 40 46 47 50 53 53 50 54 54 54 52 53 51 51 49 49 47
26 27 34 37 37 35 34 31 22 19 18 19 25 25 22 24 26 28 29 30 32 33 34 35 37 38 40 41 45 45 46 47 49 50 50 50 49 49 48 48 49 49 48 46
25 28 35 37 38 37 32 25 26 22 21 18 20 22 22 25 26 26 26 26 28 29 29 34 36 38 42 44 45 44 45 46 47 48 48 47 47 46 46 46 45 45 44 42
30 26 33 36 35 35 30 30 23 21 17 13 19 20 16 22 24 24 24 23 25 26 31 35 39 39 43 45 46 46 46 46 47 47 46 45 45 44 43 43 42 41 40 40
31 28 30 33 31 32 30 27 28 25 22 15 16 17 19 20 22 23 27 30 29 29 30 32 38 41 43 45 46 45 46 46 46 45 44 44 43 42 42 41 40 39 39 39
33 29 26 29 34 35 34 33 29 21 20 21 19 16 23 23 26 29 29 30 31 32 33 33 34 41 43 44 45 45 45 45 44 43 43 42 42 41 40 40 40 39 39 39
31 27 24 25 27 31 30 32 33 29 27 24 18 14 22 27 29 30 29 32 33 33 34 36 38 40 42 44 44 44 44 45 43 42 41 40 39 39 39 38 38 39 38 38
32 29 22 20 23 29 28 30 31 30 26 24 24 22 22 24 25 24 26 29 29 33 35 36 37 40 42 43 44 44 44 44 42 41 40 40 39 39 39 39 39 38 38 37
32 28 26 27 27 29 30 29 29 29 29 26 25 26 26 26 25 27 30 30 29 29 33 36 37 38 41 42 43 43 43 42 41 41 40 40 40 39 39 39 38 38 37 37
31 28 26 23 26 27 26 27 27 28 29 29 29 28 30 30 30 31 31 30 30 29 30 36 38 39 40 41 42 42 42 41 40 40 40 40 39 39 38 38 38 37 37 37
30 28 26 22 25 22 20 22 24 27 27 27 24 27 30 30 30 31 30 30 30 31 32 32 33 36 40 41 42 41 41 41 40 39 39 39 39 38 38 38 37 37 36 36
30 30 28 25 22 16 19 24 24 24 26 26 27 27 29 29 31 32 33 33 33 33 34 34 35 35 37 41 41 41 40 40 39 39 39 39 39 38 38 37 37 36 36 36
28 28 25 23 21 21 22 23 23 20 20 30 28 31 32 33 32 31 34 35 34 35 36 36 36 37 35 40 41 41 40 40 39 39 39 39 39 38 38 37 36 36 36 36
29 28 25 24 21 16 20 27 28 25 20 28 31 32 32 33 25 27 32 34 35 36 36 36 36 38 39 39 41 40 40 39 39 39 39 39 39 38 37 37 36 36 36 35
26 26 24 24 22 24 26 28 27 19 17 29 31 32 32 32 32 34 35 34 36 36 36 38 38 38 39 40 41 40 40 39 39 39 39 39 38 38 37 36 36 36 35 35
23 23 23 24 23 19 27 27 22 22 30 30 29 31 32 33 34 36 37 35 36 36 36 38 38 38 39 40 41 40 39 40 39 39 39 38 38 38 37 36 36 35 35 34
23 24 22 24 24 30 30 28 33 33 32 32 33 33 33 33 33 35 36 36 36 36 36 37 37 37 38 39 40 39 39 39 39 39 38 38 37 37 37 36 35 35 34 33
29 30 26 26 27 32 33 35 34 34 34 35 35 36 35 35 35 35 36 37 36 35 35 37 37 37 37 38 39 39 39 39 38 38 38 37 37 37 36 36 35 34 33 32
28 30 30 29 30 30 34 32 34 35 37 37 37 38 38 39 38 37 36 37 36 35 35 36 36 36 36 37 38 39 38 38 37 37 37 37 36 36 35 35 35 34 33 33
31 30 27 25 32 33 32 34 36 33 33 35 36 37 38 38 40 39 38 38 37 37 37 36 36 36 36 36 37 38 38 38 37 37 37 36 36 36 35 35 34 36 35 35

GFSCGP_sfc_30mbdewp_093.txt.gz
Dewpoint
35 31 28 31 35 34 31 33 34 37 41 38 37 39 40 42 43 43 43 41 43 49 52 52 59 61 63 63 64 63 63 64 65 64 63 63 63 64 63 63 62 62 61 61
32 29 33 35 35 34 33 32 31 37 40 37 38 37 42 43 43 44 43 42 40 43 44 42 46 58 61 63 63 63 63 64 64 63 64 64 64 64 64 63 63 63 62 62
30 32 35 33 33 35 33 31 32 34 38 38 36 35 36 39 43 41 43 43 42 40 41 42 40 50 56 60 62 63 63 64 64 65 65 64 64 63 63 63 63 64 64 64
35 37 34 33 35 33 30 35 36 37 35 31 37 28 34 34 38 38 39 40 41 40 40 40 41 39 44 51 60 63 63 64 64 64 64 63 62 61 62 61 61 61 61 61
33 36 34 34 35 34 32 36 36 35 34 34 35 28 29 32 32 33 35 37 38 40 39 39 40 40 40 40 43 60 62 63 63 64 64 63 62 61 61 61 60 58 57 56
36 39 38 37 38 37 37 36 36 36 33 26 32 31 26 25 28 30 31 33 36 39 39 39 40 40 40 39 40 50 58 61 61 62 63 62 62 60 59 59 58 55 52 51
34 34 37 38 35 36 35 31 27 24 25 23 31 30 26 27 29 27 30 32 33 35 38 38 38 38 39 39 41 46 53 57 58 57 60 60 60 58 58 57 55 53 51 50
28 25 35 37 36 34 33 29 24 20 21 20 29 24 25 23 26 28 30 30 31 33 34 35 36 37 38 39 41 45 50 53 55 53 54 55 55 55 55 54 54 53 52 49
26 29 35 37 38 37 31 29 26 21 21 20 25 22 22 25 26 26 27 27 28 29 29 32 37 36 37 39 41 44 47 48 49 51 50 51 52 52 52 51 52 50 48 45
29 27 32 35 36 37 32 28 23 21 17 12 18 20 16 22 25 25 25 24 25 26 30 31 37 39 40 43 45 45 46 46 47 48 47 48 48 48 46 45 44 43 41 41
30 26 29 31 31 32 30 27 27 24 21 14 16 15 20 20 23 23 25 28 29 28 29 31 33 40 42 45 45 45 45 46 46 46 45 45 45 44 44 44 43 41 40 40
32 28 27 30 34 35 33 32 26 18 20 20 18 16 22 23 24 27 29 31 32 33 33 34 35 39 42 43 45 45 45 45 46 45 44 43 42 42 41 41 41 41 40 40
30 26 22 23 26 30 29 31 31 27 26 22 16 14 23 27 28 30 30 31 31 33 33 34 35 37 39 42 44 44 45 45 45 43 43 42 41 40 39 39 39 39 39 38
32 27 21 17 21 27 27 29 32 29 26 24 23 21 23 24 25 24 26 30 30 29 31 34 35 36 39 41 43 44 44 45 43 42 42 41 40 40 39 39 39 38 38 37
31 27 26 26 27 29 29 29 30 28 29 25 26 25 26 28 28 26 27 30 31 30 29 31 34 36 38 41 43 43 44 44 43 42 41 40 40 39 39 39 38 38 38 37
31 28 25 24 26 27 25 26 27 28 29 29 29 28 30 30 30 30 31 32 30 30 30 30 34 37 38 39 41 43 43 43 42 41 41 40 39 39 39 38 38 37 37 37
30 27 25 23 25 22 19 21 23 26 27 27 24 25 29 28 29 30 31 31 30 31 32 33 33 34 35 37 40 41 42 42 41 41 40 40 39 39 38 38 37 37 36 36
30 29 27 24 22 10 18 22 23 24 24 27 26 26 27 29 31 32 33 33 32 33 33 33 34 35 35 36 39 41 42 41 41 40 40 39 39 38 38 37 37 36 36 36
29 28 25 22 21 20 21 23 23 22 21 27 29 31 32 33 32 28 33 34 34 34 35 36 36 36 37 37 38 41 41 41 40 40 39 39 39 38 37 37 36 36 35 35
28 27 25 23 20 14 18 27 28 24 19 24 30 30 31 33 28 26 30 34 34 35 36 36 37 37 37 38 39 41 40 40 40 40 39 39 39 38 37 37 36 36 35 35
26 26 24 24 21 22 26 28 26 21 18 29 30 31 31 31 32 33 35 36 36 36 36 37 37 37 38 39 39 40 40 40 40 40 39 39 39 38 38 36 36 36 35 35
22 22 23 23 22 17 28 26 23 28 32 32 32 33 33 34 34 34 35 35 36 36 36 36 37 37 38 39 39 40 40 40 40 40 39 39 38 38 37 36 35 35 35 35
22 24 23 24 23 31 32 28 33 33 33 33 34 35 36 36 35 36 36 36 36 37 37 36 37 37 37 38 39 40 39 40 39 39 39 38 38 38 37 36 35 35 35 35
28 29 25 25 27 31 30 34 33 35 35 35 36 36 36 36 37 38 38 38 38 38 36 36 36 36 36 37 39 39 39 39 39 38 38 38 38 37 36 36 35 35 34 34
28 30 29 27 29 28 34 32 33 33 32 31 32 34 33 33 34 36 37 38 39 40 39 36 36 36 36 37 38 38 39 39 39 39 39 38 37 37 36 36 35 35 34 34
29 29 26 23 31 31 30 32 33 31 29 30 30 31 31 32 32 35 36 38 39 41 41 36 36 36 37 37 38 38 38 38 38 37 38 37 37 37 36 35 35 36 36 36

GFSCGP_sfc_30mbdewp_096.txt.gz
Dewpoint
35 29 27 29 31 30 31 30 32 35 40 37 36 36 38 43 43 42 43 43 44 48 53 59 61 62 62 62 60 62 62 62 64 64 64 63 62 64 64 63 62 61 60 59
31 28 31 33 34 33 31 32 32 39 39 37 37 36 38 40 42 43 43 42 41 43 45 45 53 61 61 61 62 63 62 61 64 64 63 63 64 64 64 64 63 62 61 60
29 32 34 34 33 33 31 32 35 34 38 39 37 34 36 39 40 43 42 44 43 41 41 42 43 55 59 61 63 63 63 62 63 62 64 63 63 63 63 63 63 63 63 62
33 35 32 32 33 33 30 33 36 36 35 30 37 26 35 37 37 38 39 40 41 42 41 41 41 40 52 57 61 63 63 63 63 64 62 62 61 60 61 62 63 62 62 62
33 34 33 32 35 35 33 36 35 35 34 34 34 30 31 36 34 34 36 38 39 40 41 40 40 40 41 41 49 59 62 63 63 63 63 62 61 61 61 61 60 58 58 58
35 35 35 37 38 38 37 34 34 34 31 23 32 28 26 28 30 31 32 33 36 38 39 40 40 40 40 40 40 43 54 60 62 62 63 63 61 60 60 59 58 56 55 54
34 35 38 39 35 37 33 29 25 22 20 20 32 27 25 28 28 28 28 29 32 35 38 38 39 39 39 40 40 42 47 53 59 60 61 61 61 60 59 59 57 55 53 53
25 27 35 38 37 35 33 28 23 18 19 21 30 25 23 24 26 28 30 31 32 33 35 36 37 38 38 38 39 41 45 50 56 55 57 58 59 58 58 57 56 54 53 52
27 29 34 38 38 36 33 26 26 21 21 23 26 25 21 24 26 26 25 25 28 30 31 33 37 38 37 37 39 41 45 49 54 54 53 54 54 55 55 55 55 54 52 50
29 28 32 35 35 35 30 29 22 22 16 11 18 20 18 20 24 24 25 26 27 27 29 31 33 39 40 41 42 44 46 47 49 50 50 51 51 52 52 52 52 51 49 47
29 27 30 30 33 32 29 26 26 24 20 14 12 14 20 22 22 23 28 30 31 31 31 32 33 38 42 44 44 44 45 46 47 47 47 47 47 48 48 48 46 45 44 42
31 28 27 30 34 35 33 32 25 17 19 19 17 16 21 27 28 29 29 31 32 33 33 34 35 37 40 43 44 44 45 45 46 46 45 45 44 44 43 42 41 41 40 40
29 25 22 22 26 29 29 32 28 26 24 20 13 16 24 27 28 28 29 29 30 30 30 33 34 35 38 41 43 44 45 45 45 45 44 43 42 42 41 41 40 40 39 39
31 26 20 17 22 27 27 29 31 28 23 22 21 20 23 25 26 26 25 28 30 31 31 30 32 34 36 39 41 43 44 45 44 44 43 42 41 40 40 40 40 39 38 38
29 26 26 26 28 28 29 29 29 27 27 23 24 25 26 28 29 30 28 28 30 31 30 30 30 32 36 38 39 42 43 44 43 43 42 41 41 40 39 39 38 38 38 37
30 27 24 24 25 26 25 26 27 28 29 29 29 28 30 31 30 30 31 31 31 31 31 31 32 33 34 36 38 40 42 43 43 42 42 41 40 39 39 38 38 38 37 37
29 26 24 21 24 21 18 21 23 26 27 27 22 24 28 25 27 29 30 31 31 31 32 33 33 33 34 34 36 37 39 42 42 42 41 41 40 39 38 38 37 36 36 36
29 28 26 22 20 7 17 22 23 23 24 25 27 27 31 31 32 33 32 33 32 33 33 33 34 35 36 36 36 37 39 41 42 41 41 40 39 38 38 37 37 36 35 35
30 27 24 20 19 18 21 23 22 22 21 26 30 31 31 32 32 29 29 33 34 34 35 35 36 37 37 37 37 38 39 40 41 41 41 40 39 38 37 37 36 35 35 35
28 27 24 23 18 9 17 27 28 24 19 30 30 31 32 32 28 30 33 34 35 36 36 36 36 37 37 37 38 39 39 39 40 41 41 40 39 38 37 37 36 35 35 35
26 25 25 23 21 22 25 28 27 20 18 31 31 33 33 33 33 34 35 35 36 36 36 37 37 37 37 38 38 38 39 39 40 41 40 40 39 38 37 37 36 35 35 34
22 22 23 23 23 15 29 26 23 29 32 32 33 34 35 35 36 36 36 37 37 37 37 38 37 37 37 38 38 38 39 40 40 40 39 39 39 38 37 36 35 35 35 34
22 22 22 23 22 29 32 31 33 33 32 33 34 34 33 33 33 33 33 35 37 38 38 39 37 37 37 37 38 38 39 40 40 40 39 39 38 38 37 36 35 35 34 34
27 29 25 24 25 31 30 33 33 34 33 32 31 31 32 31 29 29 29 30 31 33 35 39 39 37 36 37 37 38 39 39 39 39 39 38 38 37 37 36 35 35 34 34
27 29 27 27 28 28 33 32 31 32 30 30 30 30 30 30 32 32 32 34 35 36 37 39 39 39 37 37 37 38 39 39 38 38 38 38 38 37 36 36 36 35 35 35
29 28 26 24 28 27 28 32 31 30 29 31 30 32 32 30 30 31 33 35 36 38 39 39 39 40 37 39 37 38 38 39 39 39 39 38 38 37 37 36 36 37 36 36

GFSCGP_sfc_30mbdewp_099.txt.gz
Dewpoint
35 29 26 28 29 29 31 26 25 32 39 36 35 35 37 39 40 41 45 46 51 54 58 58 57 61 61 60 58 60 58 57 62 64 64 64 63 63 64 63 62 62 62 61
30 27 33 29 29 30 30 27 28 33 38 36 36 35 38 40 40 41 44 45 46 49 54 57 59 61 61 60 58 59 60 59 60 63 63 64 64 64 64 65 64 63 62 61
28 31 36 33 31 30 27 29 32 32 37 38 36 33 36 39 42 42 43 44 44 44 45 49 57 60 60 60 59 59 60 60 61 64 64 63 64 63 63 64 64 64 63 63
30 35 34 32 30 33 29 33 33 35 34 30 38 26 34 38 39 40 38 40 42 42 42 42 44 49 57 60 61 60 61 61 62 63 62 62 61 60 60 61 63 62 63 62
32 34 32 32 32 35 29 36 34 35 33 32 33 29 32 36 37 38 35 37 39 40 42 42 41 42 44 48 57 61 62 62 62 62 62 62 61 61 61 62 61 59 59 59
32 37 36 37 38 36 37 35 35 33 30 23 30 26 25 32 35 34 32 35 36 39 40 40 40 41 41 42 42 49 58 60 62 63 63 62 61 61 61 60 60 58 57 56
33 34 39 39 36 36 32 28 23 18 18 20 28 26 26 29 34 31 30 28 30 34 37 38 38 39 40 40 41 41 45 51 59 61 61 62 62 61 60 60 58 56 54 53
27 27 35 38 36 33 31 27 20 15 19 22 30 24 25 25 28 29 30 30 33 33 35 36 36 37 38 39 39 40 43 46 55 58 59 60 60 60 59 59 57 56 55 54
27 29 36 38 38 37 30 24 26 22 22 23 24 24 20 24 25 25 25 27 30 32 33 33 37 39 39 39 38 39 42 46 53 55 55 56 57 58 58 57 57 55 54 53
29 29 34 34 38 36 31 28 21 21 14 15 18 19 18 21 22 25 28 28 28 29 30 31 33 38 42 42 43 43 44 46 51 54 53 53 53 54 55 55 55 54 53 51
28 28 29 31 32 32 31 27 25 23 19 12 12 16 20 23 23 26 29 31 32 32 32 33 35 37 41 43 44 44 45 47 48 49 49 50 51 52 52 53 52 51 49 47
30 28 28 30 32 34 33 31 24 17 17 18 16 18 22 28 29 29 30 30 30 31 32 33 34 36 38 41 43 44 45 46 47 47 46 47 47 48 48 47 45 44 43 42
29 25 22 21 23 28 29 31 27 25 22 19 13 18 24 27 27 25 26 29 30 30 31 31 32 34 36 39 41 43 44 45 45 45 45 44 44 44 44 43 42 41 41 40
30 25 19 16 21 27 26 30 30 26 18 21 19 20 23 27 29 30 30 28 28 30 32 31 31 32 35 37 40 42 43 44 45 45 44 43 43 43 42 41 41 40 40 39
28 26 25 26 28 27 29 29 29 26 26 22 25 24 27 29 29 29 29 31 31 31 31 31 32 33 34 36 38 40 42 44 44 44 43 43 42 41 41 40 40 39 38 38
29 26 24 24 25 25 25 26 27 28 29 29 28 27 28 28 30 31 31 32 32 32 32 33 33 33 34 34 35 37 40 42 44 43 43 43 41 40 40 39 39 38 38 38
28 26 22 21 24 21 18 21 24 26 27 27 22 25 30 31 32 32 31 32 33 33 33 34 35 35 35 36 36 36 37 39 42 43 42 42 41 40 39 39 38 38 38 37
28 26 25 21 16 5 17 22 23 23 24 26 28 30 31 31 32 32 33 33 33 34 34 35 35 36 36 37 37 37 37 38 40 41 42 41 40 39 39 38 38 37 36 36
29 26 22 17 16 15 21 24 23 21 24 30 30 31 32 33 31 29 33 35 35 35 35 36 36 36 37 37 37 37 38 39 39 40 41 41 40 39 38 37 37 36 36 36
27 26 22 22 14 3 16 27 28 23 20 30 31 31 31 32 26 28 34 35 35 36 36 36 37 37 37 37 38 38 38 38 39 39 40 41 40 39 38 38 37 36 36 35
25 25 24 23 20 20 23 27 27 19 15 31 32 32 33 30 31 34 36 36 36 36 37 38 38 38 38 38 38 37 38 38 39 40 41 41 40 39 39 37 36 36 35 35
22 21 23 24 22 11 29 26 23 27 31 31 33 32 31 32 32 32 32 31 30 31 32 34 35 38 38 39 38 37 37 39 39 40 40 40 40 39 38 37 36 35 35 34
22 22 20 23 20 26 31 30 33 32 29 32 31 30 30 30 31 30 29 29 30 30 30 31 33 34 37 39 38 37 37 38 39 40 40 39 39 38 37 36 36 35 35 35
26 27 24 23 25 30 31 33 32 33 31 30 30 30 30 30 30 28 29 29 30 32 34 36 37 37 38 38 39 38 37 38 39 39 39 39 38 38 37 36 36 36 35 34
25 28 26 25 27 29 31 32 30 31 30 29 30 30 30 30 30 29 29 30 32 33 36 37 38 38 38 38 38 38 37 38 39 39 39 38 38 38 36 36 36 36 36 35
29 28 25 21 27 26 29 31 31 26 26 28 29 29 29 30 30 30 30 31 32 33 35 36 38 37 37 38 39 38 38 39 39 38 38 38 38 38 37 36 36 37 36 37

GFSCGP_sfc_30mbdewp_102.txt.gz
Dewpoint
29 29 26 30 30 27 27 20 18 24 25 30 30 33 35 38 39 39 40 42 46 52 55 57 58 61 61 59 60 60 60 60 60 62 63 63 62 63 63 62 61 61 61 61
31 27 30 30 29 26 30 25 21 29 32 29 33 33 36 38 38 39 40 42 46 52 56 56 55 56 60 60 59 59 60 59 60 60 62 63 63 64 64 64 63 62 62 63
28 29 34 33 27 26 28 25 23 29 34 35 33 32 36 38 40 40 42 42 46 50 55 54 53 55 59 59 59 59 59 59 59 61 62 64 64 65 65 65 64 64 64 64
31 34 32 32 27 28 24 26 28 31 30 28 36 26 31 37 38 40 42 42 45 46 49 53 55 57 57 58 60 60 59 60 60 61 62 60 59 58 59 62 64 64 64 64
31 32 31 30 29 30 24 28 32 32 29 30 30 26 31 36 37 39 41 41 43 45 45 48 50 55 59 59 60 60 59 59 61 62 62 61 60 61 61 60 62 61 62 62
33 37 37 35 31 33 36 34 34 32 30 26 29 27 31 34 37 40 39 39 40 43 44 43 44 45 48 54 59 60 60 59 60 60 62 61 60 60 60 60 61 60 59 59
33 35 38 39 33 36 35 34 26 23 23 22 28 26 29 33 36 38 37 35 30 37 40 40 40 41 42 44 45 49 57 60 61 62 61 62 61 59 60 61 61 59 57 56
29 27 35 39 36 31 31 27 23 16 17 22 29 28 29 29 26 32 35 32 33 34 36 37 38 39 39 41 42 43 43 45 52 58 61 62 62 62 61 61 60 59 57 55
28 29 37 37 38 36 30 26 26 23 25 21 23 22 26 25 24 27 28 31 32 32 33 34 37 40 41 41 40 40 41 43 47 53 57 60 60 59 60 60 60 59 58 56
30 29 35 35 36 35 30 28 23 25 17 15 17 18 21 22 23 26 27 28 30 31 32 33 35 38 41 43 44 44 42 43 47 52 55 56 57 58 59 59 58 57 56 54
29 29 32 33 32 32 30 26 25 22 19 12 11 18 23 23 24 28 29 31 31 32 32 33 34 37 40 43 45 45 45 46 48 52 53 53 53 54 56 57 56 56 55 53
30 29 29 30 32 33 32 29 24 21 17 19 15 20 26 28 29 29 29 30 31 31 32 32 33 34 36 39 43 45 45 46 48 49 49 49 50 52 53 54 53 52 52 52
28 25 24 24 26 28 30 31 29 25 25 21 16 20 26 27 28 30 30 29 29 31 33 31 31 32 33 36 39 42 44 45 46 46 46 47 48 49 51 51 50 49 48 48
30 26 22 19 24 28 27 28 29 27 25 19 20 22 26 27 27 26 28 30 31 31 32 32 33 33 33 35 36 38 41 44 45 45 45 45 45 46 47 47 47 47 46 44
30 27 26 27 27 29 28 28 28 27 25 23 24 24 25 26 28 30 31 32 32 32 33 34 34 34 33 33 34 35 36 40 44 44 45 45 45 44 44 44 44 44 42 41
30 27 26 25 24 25 24 25 26 27 28 28 27 26 30 31 31 29 31 32 32 32 33 34 34 34 35 35 35 37 37 37 39 42 44 45 44 43 43 43 42 41 41 40
28 27 24 22 23 20 18 21 23 25 27 27 21 28 30 29 30 31 32 32 32 33 34 34 34 35 35 36 36 36 37 37 38 38 40 43 44 43 42 42 41 40 40 40
27 27 26 21 16 10 20 23 23 24 26 27 30 30 31 32 32 32 34 33 29 29 30 31 33 34 35 36 37 37 37 37 38 39 39 40 43 43 42 41 40 40 40 39
28 25 22 16 13 16 21 24 23 21 24 30 30 31 31 31 30 30 33 30 28 29 30 30 32 33 35 36 36 36 37 38 38 39 39 40 41 43 42 41 40 41 40 40
28 26 21 22 11 3 18 27 28 24 19 31 30 29 28 26 23 22 25 26 27 28 29 30 30 33 34 33 34 35 35 37 38 39 39 40 41 42 42 41 41 40 40 40
26 26 22 21 18 17 22 27 28 19 16 31 30 28 26 20 19 23 27 28 29 29 30 30 30 30 31 32 34 35 36 37 39 39 40 41 42 42 42 42 41 40 39 38
22 21 22 24 21 10 27 27 23 26 31 28 29 26 25 25 26 28 29 29 29 30 32 33 33 34 35 36 35 35 36 38 39 40 40 40 41 42 42 41 40 39 37 37
21 22 20 23 18 26 30 28 32 30 26 29 27 24 26 28 28 29 28 28 28 28 29 31 32 34 36 37 39 38 38 37 38 39 39 40 41 41 41 40 39 37 37 36
25 26 24 24 24 28 31 33 31 30 27 28 27 28 29 29 28 28 28 28 29 31 31 32 33 35 36 36 37 38 37 37 38 38 38 39 40 40 40 39 38 37 36 36
24 27 25 25 26 28 31 32 31 30 29 27 28 28 27 27 27 28 29 29 30 30 30 31 32 35 35 36 37 38 39 38 37 38 39 40 40 40 38 38 38 38 37 37
28 26 23 20 26 27 28 32 31 28 24 25 27 26 25 27 27 28 29 29 29 29 29 30 33 34 34 35 35 38 39 40 38 38 39 40 39 40 38 37 37 38 38 38

GFSCGP_sfc_30mbdewp_105.txt.gz
Dewpoint
28 29 24 24 28 30 27 21 17 18 10 24 22 27 29 33 37 37 38 39 41 46 50 56 57 59 59 58 61 60 60 61 60 61 62 62 62 62 61 61 60 59 60 62
30 26 26 34 33 32 31 23 20 19 22 23 23 26 27 31 34 35 37 38 41 46 53 56 56 56 56 58 60 61 61 60 60 60 61 62 63 63 63 62 62 60 60 61
29 29 34 33 30 27 26 24 22 29 25 24 22 25 30 35 38 37 39 38 42 46 54 54 54 54 56 55 59 60 60 61 61 60 61 61 63 61 63 64 64 63 62 63
31 33 33 32 28 24 19 21 28 31 25 24 27 22 31 36 38 37 35 40 44 48 54 54 54 54 57 57 60 60 60 59 60 61 60 60 59 58 61 62 63 63 64 65
32 32 32 31 26 24 25 27 26 30 26 30 33 31 32 36 37 38 41 40 45 48 53 54 55 55 56 57 59 60 60 60 60 60 61 60 59 60 61 61 60 62 63 63
33 36 35 32 31 28 31 30 34 36 32 23 28 29 31 33 37 41 39 42 45 48 50 52 55 56 57 58 58 60 60 59 58 59 60 61 60 60 60 61 61 61 62 62
34 35 36 37 32 34 33 33 27 25 25 22 30 27 31 34 35 40 40 34 44 46 47 48 48 48 48 54 58 59 59 58 59 59 59 60 60 58 59 59 59 59 60 58
29 25 34 37 36 34 32 31 26 22 22 24 29 26 30 36 36 40 38 34 38 40 40 40 41 42 44 45 46 50 55 58 57 59 58 59 60 59 60 60 61 61 61 59
31 30 36 36 37 35 30 25 26 24 21 21 27 30 34 28 32 38 37 32 34 36 37 38 40 41 41 41 42 43 44 45 50 56 59 60 61 60 61 60 60 61 59 58
32 29 34 35 35 34 29 27 25 27 17 15 24 28 28 26 26 31 31 30 31 32 33 34 36 39 42 44 44 44 41 42 44 48 53 55 59 60 60 60 60 60 58 57
31 32 31 33 31 31 30 26 23 23 19 12 15 20 24 24 27 27 29 30 31 31 32 33 34 36 39 42 44 44 45 44 46 49 52 54 55 57 58 59 58 58 57 56
29 30 28 29 31 30 31 28 24 24 15 18 16 21 27 27 28 28 29 29 31 32 32 32 32 33 34 37 39 43 45 45 47 49 50 51 53 53 54 55 56 57 56 54
28 25 26 25 27 28 27 26 25 25 30 21 17 21 26 28 27 28 29 30 31 32 32 33 32 33 33 34 36 38 41 44 45 46 46 47 48 50 51 53 54 54 53 53
31 27 25 23 27 29 26 26 25 29 25 20 21 24 24 25 27 28 29 30 31 32 33 34 34 33 33 33 34 34 35 39 43 45 45 45 46 46 48 50 51 51 50 51
29 27 27 26 26 28 25 25 25 26 24 23 23 23 26 28 27 29 30 31 31 31 32 32 33 33 33 33 33 35 36 37 37 41 44 45 45 45 45 47 48 49 48 48
29 26 27 23 23 24 21 22 24 25 25 25 25 26 28 29 28 29 30 30 30 31 31 32 32 33 33 34 34 36 35 35 37 38 38 42 45 45 45 45 45 46 46 44
26 26 25 22 21 19 18 21 23 24 25 25 22 28 28 29 30 30 31 30 28 27 27 27 28 30 32 33 35 35 36 36 37 37 38 38 41 44 44 44 44 43 43 42
25 25 25 20 17 13 21 23 23 23 25 27 28 30 30 30 30 29 33 31 26 21 22 23 24 26 27 28 29 31 34 35 37 38 39 40 40 42 44 44 43 43 43 42
28 23 19 17 10 15 20 22 23 22 22 28 28 30 29 28 27 27 32 26 21 21 24 26 28 28 29 29 30 31 31 31 33 35 37 39 40 40 42 44 43 43 43 42
28 25 20 18 12 2 18 25 27 24 18 29 30 29 28 26 20 20 21 21 23 27 28 29 30 31 31 31 32 32 32 32 33 34 36 38 40 41 41 43 44 43 43 42
23 23 20 16 17 14 23 27 27 18 21 30 29 28 26 23 20 19 21 24 28 28 28 29 29 30 31 31 33 34 36 36 36 36 38 39 40 41 41 42 44 43 42 42
19 18 18 20 18 14 26 27 22 27 29 29 29 26 23 20 20 23 25 27 28 28 28 29 30 30 32 33 34 35 36 37 39 37 38 38 39 41 41 43 43 43 42 41
19 20 19 20 19 26 27 28 31 30 29 28 26 22 21 22 23 25 26 26 27 28 30 30 31 31 32 33 35 36 34 35 36 37 37 37 36 39 40 42 42 42 40 39
24 26 22 23 22 25 29 31 31 29 28 27 23 23 24 24 24 24 24 26 27 29 29 29 29 29 29 33 33 34 36 37 37 37 37 36 36 38 39 41 42 41 39 38
22 26 24 23 24 26 28 31 31 30 27 24 24 25 25 24 23 24 25 26 27 28 29 29 29 28 29 31 31 34 36 35 35 38 38 38 39 39 40 41 41 40 39 38
25 22 22 16 22 24 26 30 32 30 28 23 22 23 24 23 24 24 24 24 25 26 28 28 28 28 29 30 30 31 33 33 33 35 38 39 39 40 41 41 40 41 40 39

GFSCGP_sfc_30mbdewp_111.txt.gz
Dewpoint
32 29 25 26 29 26 25 25 24 24 28 27 25 22 21 21 27 29 34 25 37 39 43 49 54 58 59 59 58 60 60 59 61 62 62 61 58 59 61 61 60 62 62 62
30 27 29 29 27 27 30 28 26 26 26 27 27 23 22 23 27 33 36 36 38 40 44 52 55 56 56 58 59 60 60 58 58 61 62 61 61 61 61 62 63 62 63 63
28 29 34 33 32 30 28 27 27 25 27 28 25 21 20 22 30 32 36 37 39 39 43 52 54 55 55 56 57 59 60 58 58 59 61 60 61 61 60 60 61 62 64 64
31 32 32 31 30 31 26 27 29 31 27 21 26 20 25 25 26 31 33 37 38 41 50 53 53 54 55 55 57 59 60 59 59 60 59 58 57 55 58 60 62 62 62 62
29 33 33 27 27 28 26 26 29 30 29 27 24 25 31 37 32 36 39 37 38 47 51 52 53 54 55 57 57 58 60 60 60 59 59 58 58 59 59 59 59 61 61 62
33 36 35 32 31 33 34 32 33 32 30 23 26 26 29 31 34 36 39 42 45 48 52 53 54 54 56 56 57 58 59 59 60 60 59 58 57 57 58 58 58 59 61 62
34 33 35 35 35 36 35 30 24 21 21 23 31 28 30 34 38 39 41 39 48 51 53 52 53 54 55 54 56 56 57 58 59 59 59 59 57 58 58 58 58 58 59 60
28 21 33 37 35 32 32 31 26 20 22 26 32 25 28 37 39 41 41 45 48 47 48 48 50 51 50 54 55 56 57 56 58 58 58 59 59 58 59 58 58 59 58 59
29 27 34 36 37 38 35 31 33 29 31 24 28 30 35 36 37 41 43 43 42 42 43 44 44 44 43 43 47 53 54 55 57 58 58 58 58 59 59 59 59 59 60 60
32 29 32 33 37 36 36 33 27 29 22 20 25 27 27 31 34 38 40 39 41 40 40 40 40 42 44 45 45 45 42 43 45 48 56 57 57 58 58 58 59 59 59 60
32 32 29 31 29 28 29 27 25 25 23 23 21 26 32 32 37 34 37 40 38 33 34 34 36 37 39 41 44 45 46 47 48 50 51 52 54 55 59 59 59 59 59 59
30 30 26 27 30 29 29 27 25 22 20 23 25 26 33 36 37 32 32 33 34 34 34 33 34 34 35 35 37 39 41 43 45 46 46 47 49 51 53 54 58 59 58 58
30 27 24 23 23 27 28 26 28 28 27 23 21 27 29 30 31 32 32 32 32 33 33 33 33 34 34 35 36 36 37 37 39 41 43 45 46 46 47 50 53 55 57 57
33 27 26 19 24 29 24 26 26 26 24 25 25 25 27 29 30 31 31 31 31 30 29 29 29 31 31 33 33 33 34 36 36 37 38 39 41 44 46 46 50 53 53 54
30 25 25 26 27 25 23 25 26 24 25 22 25 25 26 28 29 30 31 29 26 24 23 24 24 25 26 27 28 29 30 32 33 34 36 38 39 40 43 45 46 49 51 51
29 23 26 22 22 22 21 23 25 26 27 27 27 26 27 29 30 30 29 26 24 21 21 22 24 25 27 28 29 29 30 31 32 32 33 35 37 38 39 41 44 45 48 49
26 26 26 23 22 20 19 21 23 24 27 27 24 27 29 29 30 31 31 28 24 21 22 25 27 28 30 31 31 32 32 33 33 33 34 34 35 36 38 40 42 43 44 46
26 24 24 20 16 8 22 23 23 24 27 29 28 29 30 30 30 29 25 22 21 23 26 28 29 30 30 31 31 31 32 32 33 34 35 36 36 36 37 38 39 41 43 44
28 25 20 14 15 14 21 22 23 23 21 29 29 30 30 28 29 25 20 20 24 26 28 29 29 29 30 30 31 32 32 32 32 32 33 35 36 36 38 38 39 39 40 42
27 27 21 18 10 3 17 24 25 23 14 28 30 30 28 26 24 28 20 23 26 27 28 28 29 30 31 31 32 31 30 32 32 33 35 34 34 35 35 35 35 37 38 40
21 23 18 20 18 17 24 26 26 15 14 29 30 29 27 24 22 22 23 26 27 28 28 30 31 31 31 31 30 30 30 31 33 33 33 34 34 35 35 36 37 36 37 39
18 19 19 19 18 9 27 27 18 20 30 30 29 28 26 24 21 22 25 26 26 27 29 30 30 29 30 30 30 29 29 30 32 32 33 33 32 33 34 35 37 38 37 37
18 20 18 20 18 24 28 25 28 30 30 30 29 26 24 21 21 24 24 24 26 27 28 29 29 29 29 30 28 27 27 28 29 29 29 29 31 31 32 35 37 38 37 36
23 25 21 20 19 25 27 30 30 30 29 29 28 24 22 18 23 24 24 25 25 26 26 28 28 28 28 28 28 27 27 27 27 27 27 28 29 30 32 34 36 38 38 37
21 25 23 23 23 25 26 28 30 29 29 26 23 22 21 23 24 24 24 24 24 25 25 27 26 28 27 27 27 28 27 27 27 27 26 27 28 29 30 31 34 35 38 40
26 23 21 17 22 22 24 27 31 29 27 25 24 23 24 25 24 24 24 25 25 26 27 26 26 27 27 27 27 28 28 27 27 27 26 26 26 29 30 30 31 34 37 38

GFSCGP_sfc_30mbdewp_114.txt.gz
Dewpoint
33 28 24 24 28 25 24 24 24 25 26 26 26 26 27 28 26 22 22 26 29 29 29 40 53 56 57 57 57 58 59 60 60 60 60 60 60 58 60 59 59 58 59 58
28 25 27 29 28 27 27 26 24 26 27 26 26 26 27 28 25 24 26 28 33 32 35 46 53 55 55 57 58 59 60 59 59 60 62 61 60 60 59 59 58 59 59 59
26 26 32 31 30 28 27 26 26 25 26 29 28 24 25 24 26 27 28 34 37 38 39 47 52 53 55 56 58 59 60 59 59 60 62 61 60 61 60 60 59 60 60 60
30 31 31 31 30 28 25 27 28 27 29 22 24 17 23 34 34 27 25 25 32 37 41 49 51 53 54 55 56 58 59 58 58 59 59 60 59 58 59 58 60 61 63 62
28 32 32 30 27 29 26 28 28 30 30 28 25 21 26 34 34 36 38 40 36 38 45 49 51 53 55 56 56 58 59 58 58 59 59 58 58 59 59 59 59 61 62 62
33 36 35 32 31 29 32 34 33 33 30 21 24 23 28 30 32 35 38 41 42 40 49 49 52 53 54 55 55 57 58 58 58 59 59 59 57 58 58 57 58 58 60 61
32 33 35 35 33 36 36 30 23 21 20 20 31 27 29 32 35 39 40 40 45 48 49 51 52 53 54 55 55 57 57 58 58 59 59 58 57 57 57 58 57 57 57 57
26 23 33 36 36 32 32 31 26 19 20 24 32 25 28 35 42 43 44 44 45 46 47 47 48 48 49 52 54 56 56 58 58 58 58 59 59 58 58 57 57 57 57 58
28 25 32 35 37 37 35 31 34 28 31 23 28 30 34 36 36 40 41 41 43 44 46 46 47 47 46 45 47 50 53 56 57 57 58 58 59 59 58 58 59 59 59 59
31 28 31 33 37 37 36 36 29 29 22 18 23 26 26 30 31 36 37 40 41 42 41 41 42 42 42 44 45 46 46 47 49 51 53 58 58 58 58 59 59 59 59 59
32 32 28 31 28 28 29 28 27 26 29 22 21 25 33 32 33 36 38 38 38 37 37 36 35 35 36 37 38 40 42 44 45 46 47 49 52 55 57 59 59 59 59 59
30 29 26 25 30 30 29 27 26 20 22 24 25 25 35 37 37 37 33 32 33 33 33 33 34 34 34 34 34 35 36 37 39 40 42 44 45 46 47 49 52 56 58 59
30 27 23 11 17 26 27 26 27 27 24 23 21 25 30 34 31 32 31 31 30 29 28 28 28 28 28 29 29 30 32 33 34 36 37 38 40 41 43 45 47 51 55 56
32 27 24 17 22 27 24 25 26 25 22 24 25 27 28 30 30 30 30 28 25 24 23 24 24 26 28 29 29 29 30 32 33 33 34 34 36 37 39 42 43 46 50 52
29 23 25 25 26 26 23 24 26 24 24 21 25 25 27 29 30 30 29 25 22 21 22 23 25 27 29 30 30 31 32 32 33 33 34 34 35 36 37 38 40 42 44 47
29 23 26 23 22 21 20 22 25 26 27 26 26 25 27 29 30 29 27 25 23 21 23 26 28 29 29 30 31 31 32 33 34 34 34 35 35 36 37 37 38 39 41 42
26 25 24 22 21 20 17 20 23 24 27 27 23 25 28 29 30 31 30 27 23 21 25 27 28 28 29 30 31 31 31 32 33 33 34 35 36 36 36 36 37 38 39 40
26 24 24 18 15 3 17 24 23 23 27 28 28 28 29 29 30 29 26 25 21 24 27 28 29 29 30 30 31 32 32 31 32 33 34 35 35 34 35 36 36 37 37 38
27 24 19 9 12 11 18 22 23 21 17 29 28 29 30 29 29 23 20 22 25 26 28 28 29 30 31 31 30 30 29 30 31 31 33 32 32 33 33 32 33 34 35 36
27 25 20 18 6 -3 8 22 25 21 10 26 29 29 29 26 14 19 21 25 26 27 28 29 30 30 30 30 30 29 29 30 30 30 31 31 32 32 31 32 32 33 35 36
21 23 18 17 15 17 18 25 24 7 -3 27 30 29 28 23 22 22 24 24 26 27 28 31 30 29 29 30 30 29 29 29 29 30 30 31 31 30 30 31 31 32 33 36
15 18 18 20 18 5 26 26 18 15 29 30 30 29 28 25 21 21 24 25 25 26 28 29 29 28 28 28 29 28 28 29 28 28 29 29 29 28 28 29 30 31 33 34
19 20 17 19 15 21 28 23 26 30 29 30 30 29 28 24 21 22 23 24 25 26 27 29 29 28 29 29 29 27 27 28 26 26 28 27 27 27 27 29 29 29 30 32
22 24 22 20 16 22 26 28 29 30 29 30 30 27 25 23 20 22 24 24 24 25 25 26 27 27 27 28 28 28 28 28 27 26 26 27 27 28 28 28 28 28 28 29
21 24 23 22 23 23 25 27 29 30 30 29 28 25 24 20 22 24 23 24 24 25 25 26 26 26 27 27 27 28 28 28 27 26 26 26 27 27 27 27 28 29 29 31
26 24 22 18 20 20 20 25 30 29 29 28 25 23 22 22 22 24 24 24 25 25 27 26 26 26 27 27 27 27 28 27 26 25 25 25 26 26 26 27 27 29 30 33

GFSCGP_sfc_30mbdewp_117.txt.gz
Dewpoint
33 28 23 23 27 25 25 24 23 24 25 25 26 26 26 27 28 28 28 25 23 25 26 30 33 37 53 56 55 55 57 59 59 59 59 59 59 59 59 59 61 62 62 62
27 25 27 28 29 28 27 25 23 24 26 26 25 25 27 29 29 29 28 25 24 27 30 31 36 51 53 53 55 57 58 58 60 60 60 60 59 60 59 60 62 63 62 63
26 25 31 31 29 28 26 25 24 24 27 28 28 25 22 32 32 27 27 27 28 31 33 37 46 52 53 52 55 56 58 59 59 59 60 60 60 60 59 60 61 60 61 62
29 30 31 30 29 29 23 26 26 27 27 23 26 20 22 32 35 34 36 37 31 31 36 40 48 51 52 53 55 56 57 60 59 59 59 58 60 58 59 59 60 60 62 61
27 31 31 30 30 30 26 28 30 32 30 29 26 23 21 33 31 34 35 38 41 42 38 41 47 50 54 54 55 56 57 58 58 58 59 57 59 59 60 60 60 61 61 62
34 35 35 33 32 30 29 30 32 33 30 22 24 24 24 29 32 35 36 39 44 46 42 47 50 53 53 54 55 56 56 57 58 58 58 57 58 58 58 59 59 59 60 60
31 32 34 35 33 36 35 31 22 21 20 18 30 26 29 33 36 39 40 42 45 47 48 48 48 49 49 51 51 52 56 56 58 59 58 57 58 58 58 58 58 58 57 57
26 19 31 36 35 33 33 31 26 18 20 22 30 24 29 36 39 41 43 43 45 46 47 47 48 48 48 49 49 49 57 57 58 58 58 58 58 58 58 58 58 58 57 58
28 25 30 33 37 37 34 31 35 28 30 23 27 30 34 35 34 38 39 41 43 45 44 44 44 44 45 46 47 48 50 51 53 54 55 58 59 58 58 58 58 58 58 58
30 27 31 32 36 37 36 36 29 28 22 18 24 26 26 30 31 33 35 37 41 41 40 39 39 38 36 37 38 39 40 41 45 47 50 54 58 59 58 58 58 58 58 59
32 31 27 29 27 28 29 28 30 27 28 21 19 24 36 33 33 33 35 37 36 35 34 33 31 30 29 29 31 32 33 33 36 38 40 42 45 47 51 54 55 58 59 59
31 28 25 24 28 30 29 27 27 21 21 25 24 25 36 36 37 37 32 31 29 28 27 27 26 27 28 29 29 31 32 32 33 34 35 36 37 39 41 43 45 48 50 55
30 26 20 9 16 25 26 26 27 27 25 23 20 24 31 34 36 32 28 25 23 22 23 25 27 28 29 30 30 31 32 33 33 34 34 34 35 36 37 38 40 42 45 48
32 26 22 15 19 25 24 23 26 25 21 23 23 26 29 30 30 29 25 22 22 22 23 25 27 28 29 30 30 31 31 33 33 33 34 34 35 36 37 37 38 39 41 42
29 23 25 24 25 25 24 22 25 24 24 20 23 26 28 30 30 30 27 23 21 22 23 25 27 28 29 30 30 31 31 32 33 33 33 34 36 37 36 36 36 37 38 39
28 22 26 25 23 22 20 21 24 25 26 26 26 25 27 30 30 30 27 24 22 22 24 26 28 28 29 30 31 31 31 31 32 33 33 34 35 35 34 34 35 36 37 38
26 25 23 16 22 18 10 18 21 24 26 26 24 25 28 29 30 30 29 27 23 22 25 27 27 28 29 30 31 30 31 31 31 32 33 34 34 33 33 34 34 34 35 35
26 24 23 17 14 -9 7 24 23 23 24 28 28 28 28 29 30 30 29 28 22 24 25 27 28 29 30 30 30 31 31 30 31 32 32 32 32 32 31 31 32 32 33 33
27 24 19 12 9 7 12 21 21 21 14 25 27 28 29 29 28 26 20 21 23 24 26 28 29 30 30 30 30 29 29 29 30 29 29 30 31 31 30 30 30 30 31 32
27 25 20 17 7 -11 2 21 25 20 6 17 28 29 29 28 22 17 21 23 25 26 28 29 30 30 29 28 29 28 28 28 28 28 28 29 30 29 28 28 28 29 30 30
23 23 20 17 11 10 16 24 23 0 -10 23 30 30 29 26 23 22 22 25 26 27 28 30 29 27 27 28 28 27 27 27 28 27 27 27 28 27 27 28 28 28 28 28
16 15 16 19 15 0 25 24 15 10 26 28 30 30 29 26 22 22 24 24 24 25 26 27 26 26 27 28 27 27 27 28 28 27 27 26 26 26 26 27 27 27 28 28
15 19 15 19 14 19 26 24 24 26 27 28 30 30 29 26 23 22 21 22 23 25 25 27 26 26 27 28 28 27 28 28 28 28 27 26 26 25 26 26 25 25 25 26
21 23 21 20 17 19 23 26 28 28 28 29 30 29 28 26 23 21 21 22 23 24 24 25 25 26 26 27 28 27 28 28 28 27 27 25 25 26 26 26 25 25 26 27
20 23 22 22 21 23 23 24 25 28 30 30 30 28 27 24 22 20 21 22 23 24 25 25 26 26 26 27 27 27 27 28 27 26 25 25 25 25 25 25 26 26 27 28
26 24 22 20 22 19 18 22 26 28 29 29 28 26 25 22 21 22 22 23 24 24 25 26 27 27 27 27 27 27 27 28 27 25 25 25 26 26 26 26 25 26 27 28

GFSCGP_sfc_30mbdewp_120.txt.gz
Dewpoint
32 27 23 23 26 25 26 24 24 24 25 25 24 24 25 26 27 28 29 29 29 28 27 29 29 31 35 41 45 53 54 55 57 57 57 57 57 58 58 59 59 62 63 63
27 24 26 27 28 27 27 25 23 24 25 26 25 25 27 28 29 31 29 29 29 29 27 29 31 32 34 41 49 54 55 56 58 58 58 59 58 58 59 59 59 59 61 62
26 25 30 30 29 28 27 25 23 23 25 28 27 26 22 26 35 35 35 34 30 28 27 28 32 34 38 49 52 53 54 56 58 59 59 59 60 60 59 59 60 60 59 62
29 30 30 30 29 28 25 26 27 26 27 23 29 21 24 32 33 33 35 36 37 40 35 35 38 43 48 51 53 55 56 57 58 59 59 59 57 56 57 58 60 60 61 61
25 30 30 30 30 30 27 27 28 30 30 29 27 24 22 32 31 34 36 37 40 42 42 36 40 48 51 53 54 55 55 56 57 58 58 58 57 57 58 59 59 61 61 62
32 35 34 31 33 30 29 29 31 33 30 21 23 25 22 29 31 34 38 41 44 45 43 47 49 49 49 50 50 50 51 55 56 57 57 57 57 58 58 59 59 60 61 61
28 33 34 35 33 35 34 31 22 19 20 19 29 25 28 33 33 37 41 43 44 45 46 47 47 47 48 47 46 48 50 54 56 57 58 57 58 58 57 58 58 57 57 58
27 19 29 35 33 33 34 31 25 18 20 23 28 24 29 36 36 36 37 42 42 42 44 43 43 43 43 43 43 45 52 56 57 57 58 58 58 58 58 58 58 57 57 58
28 26 30 35 37 36 33 30 35 28 29 24 25 29 35 37 34 34 36 39 39 39 40 40 39 39 40 41 41 42 44 45 46 48 51 55 58 58 57 58 58 57 58 58
31 27 30 32 36 36 35 36 27 27 21 19 22 26 27 31 32 33 33 35 38 37 37 36 32 32 36 37 37 38 38 39 40 41 44 46 46 51 55 56 56 57 58 58
32 30 27 28 27 28 28 25 29 30 28 22 18 23 36 33 35 36 35 35 33 29 26 27 27 29 30 30 31 32 32 34 33 34 35 38 39 38 41 42 44 47 51 52
31 28 26 24 28 29 29 26 26 23 20 25 23 25 35 35 36 37 30 26 23 23 24 26 28 29 30 30 31 32 32 32 33 34 34 34 35 36 36 37 38 40 40 43
30 26 19 10 17 23 25 26 26 27 25 22 21 24 31 33 35 31 25 21 21 22 24 26 28 28 29 30 30 31 32 32 33 34 34 35 36 35 35 35 36 37 38 39
32 26 22 14 17 24 24 24 25 26 23 22 22 24 29 31 31 29 24 21 21 22 24 26 27 28 29 30 30 30 31 32 33 33 34 35 35 35 35 35 35 36 37 37
29 24 25 24 24 25 24 23 23 24 23 21 21 24 27 30 30 30 27 23 22 23 23 26 27 28 29 30 30 30 30 31 32 33 34 34 34 33 33 34 34 35 36 36
28 24 25 22 24 21 19 20 21 25 26 26 26 25 28 30 31 30 29 24 23 23 23 26 27 28 29 29 29 29 30 31 32 32 32 33 32 32 32 32 32 32 32 33
26 25 22 10 19 15 6 13 18 24 25 25 22 23 27 29 30 30 29 27 25 23 24 25 27 29 29 29 29 29 30 31 31 31 32 32 31 32 31 31 31 30 30 31
26 24 23 17 11 -21 1 23 22 22 24 27 27 26 27 28 30 31 31 30 26 23 24 26 28 29 29 29 29 30 30 30 30 29 29 30 30 30 29 29 29 29 29 29
28 24 20 11 11 5 4 16 21 18 12 22 26 28 29 30 28 29 25 25 24 23 25 28 29 29 29 29 29 29 28 28 28 28 27 28 29 28 28 27 28 28 28 28
26 25 21 17 5 -13 -6 18 25 20 1 12 25 28 29 29 25 24 23 22 24 25 27 28 29 29 29 27 28 27 27 27 27 28 27 27 27 27 26 27 27 27 28 28
24 23 20 18 13 9 12 23 22 -1 -10 19 27 29 29 28 26 20 22 24 25 25 27 30 29 26 27 28 27 27 27 27 28 28 28 27 27 26 26 26 26 26 26 26
16 17 17 19 16 2 22 24 13 8 19 27 29 30 30 28 24 23 23 23 24 25 27 28 26 26 27 28 27 26 25 28 28 28 28 26 26 25 25 25 26 26 25 24
15 16 13 17 11 15 25 20 23 23 25 26 28 30 30 29 25 22 23 23 24 25 25 27 25 25 26 27 27 26 27 27 28 27 27 26 26 25 25 25 24 25 24 24
21 22 20 20 18 20 21 23 26 26 26 28 29 30 30 28 25 23 22 22 23 24 24 25 25 25 25 26 27 27 27 27 27 27 27 26 25 25 25 24 24 25 24 24
20 22 21 22 21 21 21 22 23 24 28 28 29 30 29 28 25 23 22 21 22 23 24 25 25 26 26 27 26 27 27 27 27 27 26 24 24 24 24 24 25 25 25 26
25 23 21 18 20 19 20 21 24 25 26 28 29 28 28 27 25 22 20 21 23 23 24 25 26 27 27 27 26 27 27 27 27 26 24 24 24 24 24 24 24 25 26 26

GFSCGP_sfc_30mbdewp_123.txt.gz
Dewpoint
31 24 21 23 25 23 24 24 23 24 25 25 23 24 26 27 28 28 28 31 31 31 31 32 32 33 35 38 39 39 45 51 55 57 56 56 56 57 57 58 59 59 61 61
25 22 26 27 28 27 26 25 23 24 25 25 25 25 27 29 30 31 33 34 35 34 32 31 31 32 33 34 37 43 49 54 56 57 57 57 57 58 58 58 59 59 59 61
26 25 29 29 29 27 26 25 24 23 25 28 27 26 24 26 34 35 35 37 37 37 37 36 31 32 34 35 37 43 51 55 56 58 58 58 58 58 59 60 60 60 60 59
29 30 29 30 29 28 25 27 26 27 27 23 28 21 25 32 32 34 37 38 38 40 41 40 37 36 40 42 46 51 54 56 57 58 58 56 56 56 57 58 58 58 59 60
25 29 30 30 30 30 27 29 27 28 29 29 28 25 23 32 31 33 36 39 43 45 44 42 42 48 50 51 52 53 55 55 56 58 58 58 58 58 58 58 58 58 59 60
32 34 34 31 32 32 31 31 31 32 30 21 22 25 22 30 31 32 36 42 43 44 45 45 46 46 45 45 45 47 50 51 54 56 58 58 57 57 57 57 59 59 59 61
29 31 34 35 32 35 34 31 22 18 19 18 25 26 25 33 33 33 36 39 41 42 41 42 41 43 43 42 41 44 49 51 54 56 57 57 57 58 58 58 57 57 57 58
27 20 29 35 32 33 34 32 25 18 20 22 29 25 29 36 36 35 37 39 39 39 38 38 39 39 41 41 40 42 46 49 51 53 57 58 58 58 58 58 58 57 58 58
28 26 30 33 35 36 32 29 35 28 28 25 24 29 36 36 35 35 34 37 37 37 37 36 37 38 38 38 39 40 41 42 44 45 47 46 47 49 54 54 56 57 58 58
31 28 30 32 36 36 34 36 26 26 20 18 20 25 27 32 33 34 34 34 34 33 33 33 34 33 33 34 36 38 39 39 39 42 42 43 42 42 42 43 43 45 48 49
32 30 26 28 28 28 28 24 27 29 27 21 18 24 35 34 35 36 33 31 26 24 26 29 29 29 30 30 31 34 33 35 35 35 38 39 38 38 37 37 37 38 40 42
32 28 26 23 27 27 29 26 26 24 21 24 23 24 35 36 35 34 28 21 21 23 26 28 29 29 29 29 30 30 31 32 33 34 34 34 34 34 34 34 35 36 36 37
30 27 20 8 15 24 25 26 26 27 25 22 20 22 33 32 34 30 26 20 21 22 25 27 28 29 29 29 29 30 31 32 33 33 33 33 32 32 33 33 34 35 35 35
32 27 22 12 13 22 22 25 25 26 24 22 22 22 28 30 31 31 27 22 22 22 24 26 27 28 29 29 29 30 31 32 32 33 32 31 31 32 32 32 33 33 33 33
30 26 24 24 24 24 24 24 23 23 24 21 18 23 24 29 31 31 30 25 22 23 23 25 26 28 29 28 28 29 30 31 31 31 31 31 31 31 31 31 31 30 31 31
28 24 25 22 24 25 22 22 21 21 26 25 25 24 27 29 31 31 30 27 24 24 24 25 27 28 28 28 28 29 29 30 31 30 30 31 30 31 30 30 30 29 29 29
26 25 22 14 20 16 5 9 16 19 25 24 21 22 27 28 30 30 31 29 26 26 24 24 26 28 28 27 28 28 29 30 30 29 29 29 29 29 29 29 29 28 28 29
27 24 23 18 12 -22 -2 23 20 19 23 25 26 25 26 27 29 31 31 30 28 26 24 25 27 28 28 28 27 29 29 29 29 28 28 28 28 28 28 28 27 27 27 27
29 25 20 12 11 5 4 12 19 17 9 19 24 27 28 29 29 29 30 32 31 26 24 26 28 29 28 27 28 28 28 28 28 28 27 27 27 27 26 26 26 27 27 27
26 25 21 17 6 -13 -12 16 24 20 -3 13 20 22 28 29 25 24 27 26 25 24 26 27 29 29 28 27 27 27 26 27 27 28 28 28 27 26 26 26 26 26 27 26
24 24 22 20 14 11 11 22 23 -4 -11 10 25 24 28 28 27 20 23 23 24 25 26 29 29 26 26 27 27 26 26 26 28 28 28 27 26 26 25 26 26 26 26 25
18 18 19 20 17 3 20 23 12 4 13 24 26 28 29 29 27 23 22 24 25 24 27 29 27 26 26 27 27 26 25 27 28 28 28 26 26 25 25 26 26 26 25 24
16 16 12 17 11 16 23 21 22 19 21 24 26 27 30 30 27 24 23 23 24 24 26 28 26 25 26 27 27 26 26 27 27 27 26 26 26 25 25 25 25 25 24 24
21 21 18 19 17 19 21 21 23 25 25 26 27 28 30 30 29 26 23 23 23 24 25 26 25 24 25 26 26 26 27 27 27 26 25 25 24 25 25 25 25 25 24 24
20 22 20 20 20 20 19 22 22 22 24 26 28 28 29 30 29 27 24 23 23 23 24 25 24 25 25 26 26 26 27 27 26 25 25 24 24 24 25 24 24 25 25 25
24 22 20 16 19 18 18 21 22 24 24 25 26 27 29 30 29 26 24 23 22 22 24 25 25 26 26 26 24 25 27 27 25 24 23 23 25 25 24 24 24 25 25 25